<?xml version="1.0" encoding="UTF-8" standalone="no" ?>
<gpx xmlns="http://www.topografix.com/GPX/1/1" xmlns:xsi="http://www.w3.org/2001/XMLSchema-instance" xsi:schemaLocation="http://www.topografix.com/GPX/1/1 http://www.topografix.com/GPX/1/1/gpx.xsd" version="1.1" creator="VisuGPX - https://www.visugpx.com">
  <metadata>
    <name>Pont en Royans Choranche Chatelus 310722</name>
    <desc><![CDATA[Realisé le 31 juillet 2022
Modification apportée sur le retour car le sentier est interdit entre la côte 309 et le Pont Picard, on doit désormais longer la D531. Nous ne l'avons pas fait car aucune signalétique ni barrière ne l'indiquait au point 309. 
Titre du dauphiné: 
Risques naturels : Villeneuve, le quartier interdit de Pont-en-Royans
Au quartier Villeneuve de Pont-en-Royans, seize maisons et un commerce sont interdits d’accès depuis le 1er janvier 2022. En cause, un trop fort risque de chutes de pierres depuis le mont Barret qui surplombe la commune.]]></desc>
  </metadata>
  <trk>
    <name><![CDATA[2022-07-31 09:11]]></name>
    <extensions>
      <line xmlns="http://www.topografix.com/GPX/gpx_style/0/2">
        <color>0000FF</color>
        <opacity>0.59</opacity>
        <width>6</width>
      </line>
    </extensions>
    <trkseg>
      <trkpt lat="45.06426" lon="5.33729">
        <ele>210.61</ele>
        <time>2022-07-31T07:11:58.350Z</time>
      </trkpt>
      <trkpt lat="45.0642" lon="5.33717">
        <ele>210.4</ele>
        <time>2022-07-31T07:12:07.489Z</time>
      </trkpt>
      <trkpt lat="45.06411" lon="5.3371">
        <ele>210.16</ele>
        <time>2022-07-31T07:12:17.549Z</time>
      </trkpt>
      <trkpt lat="45.06402" lon="5.33715">
        <ele>210.07</ele>
        <time>2022-07-31T07:12:28.188Z</time>
      </trkpt>
      <trkpt lat="45.06394" lon="5.33729">
        <ele>210.14</ele>
        <time>2022-07-31T07:12:37.606Z</time>
      </trkpt>
      <trkpt lat="45.06386" lon="5.33737">
        <ele>210.2</ele>
        <time>2022-07-31T07:13:03.763Z</time>
      </trkpt>
      <trkpt lat="45.06378" lon="5.33751">
        <ele>210.44</ele>
        <time>2022-07-31T07:13:12.842Z</time>
      </trkpt>
      <trkpt lat="45.06372" lon="5.33769">
        <ele>210.86</ele>
        <time>2022-07-31T07:13:22.325Z</time>
      </trkpt>
      <trkpt lat="45.06367" lon="5.33781">
        <ele>211.1</ele>
        <time>2022-07-31T07:13:31.690Z</time>
      </trkpt>
      <trkpt lat="45.06364" lon="5.33793">
        <ele>211.36</ele>
        <time>2022-07-31T07:13:40.778Z</time>
      </trkpt>
      <trkpt lat="45.06357" lon="5.33802">
        <ele>211.39</ele>
        <time>2022-07-31T07:13:50.287Z</time>
      </trkpt>
      <trkpt lat="45.06352" lon="5.33815">
        <ele>211.55</ele>
        <time>2022-07-31T07:13:59.825Z</time>
      </trkpt>
      <trkpt lat="45.06352" lon="5.33832">
        <ele>212.12</ele>
        <time>2022-07-31T07:14:09.351Z</time>
      </trkpt>
      <trkpt lat="45.0635" lon="5.33847">
        <ele>212.64</ele>
        <time>2022-07-31T07:14:18.444Z</time>
      </trkpt>
      <trkpt lat="45.06347" lon="5.3386">
        <ele>213.02</ele>
        <time>2022-07-31T07:14:27.640Z</time>
      </trkpt>
      <trkpt lat="45.06347" lon="5.33873">
        <ele>213.68</ele>
        <time>2022-07-31T07:14:39.243Z</time>
      </trkpt>
      <trkpt lat="45.06346" lon="5.33888">
        <ele>214.43</ele>
        <time>2022-07-31T07:14:48.661Z</time>
      </trkpt>
      <trkpt lat="45.06347" lon="5.33906">
        <ele>215.33</ele>
        <time>2022-07-31T07:14:57.999Z</time>
      </trkpt>
      <trkpt lat="45.06349" lon="5.3392">
        <ele>215.99</ele>
        <time>2022-07-31T07:15:09.468Z</time>
      </trkpt>
      <trkpt lat="45.06351" lon="5.33935">
        <ele>216.61</ele>
        <time>2022-07-31T07:15:18.489Z</time>
      </trkpt>
      <trkpt lat="45.06351" lon="5.33951">
        <ele>217.18</ele>
        <time>2022-07-31T07:15:28.049Z</time>
      </trkpt>
      <trkpt lat="45.06351" lon="5.33968">
        <ele>217.72</ele>
        <time>2022-07-31T07:15:37.546Z</time>
      </trkpt>
      <trkpt lat="45.06351" lon="5.33981">
        <ele>218.18</ele>
        <time>2022-07-31T07:15:46.665Z</time>
      </trkpt>
      <trkpt lat="45.06348" lon="5.33995">
        <ele>218.56</ele>
        <time>2022-07-31T07:15:56.266Z</time>
      </trkpt>
      <trkpt lat="45.06345" lon="5.34007">
        <ele>218.92</ele>
        <time>2022-07-31T07:16:06.364Z</time>
      </trkpt>
      <trkpt lat="45.0634" lon="5.3402">
        <ele>219.27</ele>
        <time>2022-07-31T07:16:15.841Z</time>
      </trkpt>
      <trkpt lat="45.06334" lon="5.34032">
        <ele>219.53</ele>
        <time>2022-07-31T07:16:24.920Z</time>
      </trkpt>
      <trkpt lat="45.06328" lon="5.34044">
        <ele>219.77</ele>
        <time>2022-07-31T07:16:34.549Z</time>
      </trkpt>
      <trkpt lat="45.06321" lon="5.34058">
        <ele>220.13</ele>
        <time>2022-07-31T07:16:44.069Z</time>
      </trkpt>
      <trkpt lat="45.06312" lon="5.34067">
        <ele>220.32</ele>
        <time>2022-07-31T07:16:53.327Z</time>
      </trkpt>
      <trkpt lat="45.06302" lon="5.34079">
        <ele>220.68</ele>
        <time>2022-07-31T07:17:03.290Z</time>
      </trkpt>
      <trkpt lat="45.06294" lon="5.34087">
        <ele>220.93</ele>
        <time>2022-07-31T07:17:12.707Z</time>
      </trkpt>
      <trkpt lat="45.06287" lon="5.34095">
        <ele>221.16</ele>
        <time>2022-07-31T07:17:22.084Z</time>
      </trkpt>
      <trkpt lat="45.06276" lon="5.34102">
        <ele>221.21</ele>
        <time>2022-07-31T07:17:31.186Z</time>
      </trkpt>
      <trkpt lat="45.06269" lon="5.34111">
        <ele>221.32</ele>
        <time>2022-07-31T07:17:40.445Z</time>
      </trkpt>
      <trkpt lat="45.0626" lon="5.34121">
        <ele>221.17</ele>
        <time>2022-07-31T07:17:49.760Z</time>
      </trkpt>
      <trkpt lat="45.06258" lon="5.34134">
        <ele>221.61</ele>
        <time>2022-07-31T07:17:58.944Z</time>
      </trkpt>
      <trkpt lat="45.06261" lon="5.34149">
        <ele>222.58</ele>
        <time>2022-07-31T07:18:08.100Z</time>
      </trkpt>
      <trkpt lat="45.0626" lon="5.34165">
        <ele>223.2</ele>
        <time>2022-07-31T07:18:17.611Z</time>
      </trkpt>
      <trkpt lat="45.0626" lon="5.3418">
        <ele>223.73</ele>
        <time>2022-07-31T07:18:27.069Z</time>
      </trkpt>
      <trkpt lat="45.06259" lon="5.34196">
        <ele>224.07</ele>
        <time>2022-07-31T07:18:36.271Z</time>
      </trkpt>
      <trkpt lat="45.06262" lon="5.34212">
        <ele>224.69</ele>
        <time>2022-07-31T07:18:45.288Z</time>
      </trkpt>
      <trkpt lat="45.06258" lon="5.34228">
        <ele>224.83</ele>
        <time>2022-07-31T07:18:54.446Z</time>
      </trkpt>
      <trkpt lat="45.0625" lon="5.34244">
        <ele>224.81</ele>
        <time>2022-07-31T07:19:04.347Z</time>
      </trkpt>
      <trkpt lat="45.0625" lon="5.34258">
        <ele>225.25</ele>
        <time>2022-07-31T07:19:14.465Z</time>
      </trkpt>
      <trkpt lat="45.06251" lon="5.34272">
        <ele>225.67</ele>
        <time>2022-07-31T07:19:25.582Z</time>
      </trkpt>
      <trkpt lat="45.06246" lon="5.34283">
        <ele>225.62</ele>
        <time>2022-07-31T07:19:43.090Z</time>
      </trkpt>
      <trkpt lat="45.06236" lon="5.3429">
        <ele>225.39</ele>
        <time>2022-07-31T07:19:52.549Z</time>
      </trkpt>
      <trkpt lat="45.06229" lon="5.34298">
        <ele>225.48</ele>
        <time>2022-07-31T07:20:02.070Z</time>
      </trkpt>
      <trkpt lat="45.06223" lon="5.34308">
        <ele>225.77</ele>
        <time>2022-07-31T07:20:12.532Z</time>
      </trkpt>
      <trkpt lat="45.06218" lon="5.34319">
        <ele>226.2</ele>
        <time>2022-07-31T07:20:28.587Z</time>
      </trkpt>
      <trkpt lat="45.06218" lon="5.34332">
        <ele>227.06</ele>
        <time>2022-07-31T07:20:37.886Z</time>
      </trkpt>
      <trkpt lat="45.06224" lon="5.34342">
        <ele>227.85</ele>
        <time>2022-07-31T07:21:01.363Z</time>
      </trkpt>
      <trkpt lat="45.06233" lon="5.34347">
        <ele>228.39</ele>
        <time>2022-07-31T07:21:51.208Z</time>
      </trkpt>
      <trkpt lat="45.06242" lon="5.34349">
        <ele>228.85</ele>
        <time>2022-07-31T07:22:05.548Z</time>
      </trkpt>
      <trkpt lat="45.06251" lon="5.34355">
        <ele>229.95</ele>
        <time>2022-07-31T07:22:14.684Z</time>
      </trkpt>
      <trkpt lat="45.06258" lon="5.34362">
        <ele>231.31</ele>
        <time>2022-07-31T07:22:32.702Z</time>
      </trkpt>
      <trkpt lat="45.06263" lon="5.34373">
        <ele>233.06</ele>
        <time>2022-07-31T07:22:46.400Z</time>
      </trkpt>
      <trkpt lat="45.06266" lon="5.34391">
        <ele>236.04</ele>
        <time>2022-07-31T07:22:56.000Z</time>
      </trkpt>
      <trkpt lat="45.06256" lon="5.34393">
        <ele>235.24</ele>
        <time>2022-07-31T07:23:17.589Z</time>
      </trkpt>
      <trkpt lat="45.06248" lon="5.34404">
        <ele>236.23</ele>
        <time>2022-07-31T07:23:27.526Z</time>
      </trkpt>
      <trkpt lat="45.06246" lon="5.34418">
        <ele>238.82</ele>
        <time>2022-07-31T07:23:36.665Z</time>
      </trkpt>
      <trkpt lat="45.06242" lon="5.34429">
        <ele>240.93</ele>
        <time>2022-07-31T07:23:54.544Z</time>
      </trkpt>
      <trkpt lat="45.0625" lon="5.34435">
        <ele>243.46</ele>
        <time>2022-07-31T07:24:16.282Z</time>
      </trkpt>
      <trkpt lat="45.06257" lon="5.34443">
        <ele>246.48</ele>
        <time>2022-07-31T07:24:29.999Z</time>
      </trkpt>
      <trkpt lat="45.06264" lon="5.34451">
        <ele>250.23</ele>
        <time>2022-07-31T07:24:49.523Z</time>
      </trkpt>
      <trkpt lat="45.0627" lon="5.34462">
        <ele>254.57</ele>
        <time>2022-07-31T07:25:05.309Z</time>
      </trkpt>
      <trkpt lat="45.06264" lon="5.34471">
        <ele>256.79</ele>
        <time>2022-07-31T07:25:21.266Z</time>
      </trkpt>
      <trkpt lat="45.06273" lon="5.34471">
        <ele>258.77</ele>
        <time>2022-07-31T07:26:16.962Z</time>
      </trkpt>
      <trkpt lat="45.06284" lon="5.34464">
        <ele>258.54</ele>
        <time>2022-07-31T07:26:26.091Z</time>
      </trkpt>
      <trkpt lat="45.06292" lon="5.34457">
        <ele>257.66</ele>
        <time>2022-07-31T07:26:35.536Z</time>
      </trkpt>
      <trkpt lat="45.06301" lon="5.34459">
        <ele>260.47</ele>
        <time>2022-07-31T07:26:46.225Z</time>
      </trkpt>
      <trkpt lat="45.06311" lon="5.34462">
        <ele>263.67</ele>
        <time>2022-07-31T07:26:55.999Z</time>
      </trkpt>
      <trkpt lat="45.06306" lon="5.34473">
        <ele>266.93</ele>
        <time>2022-07-31T07:27:14.999Z</time>
      </trkpt>
      <trkpt lat="45.06304" lon="5.34486">
        <ele>271.62</ele>
        <time>2022-07-31T07:27:29.244Z</time>
      </trkpt>
      <trkpt lat="45.063" lon="5.34498">
        <ele>275.86</ele>
        <time>2022-07-31T07:27:47.441Z</time>
      </trkpt>
      <trkpt lat="45.06296" lon="5.3451">
        <ele>279.74</ele>
        <time>2022-07-31T07:28:01.140Z</time>
      </trkpt>
      <trkpt lat="45.06305" lon="5.34514">
        <ele>283.71</ele>
        <time>2022-07-31T07:28:18.370Z</time>
      </trkpt>
      <trkpt lat="45.06315" lon="5.34508">
        <ele>283.73</ele>
        <time>2022-07-31T07:28:32.794Z</time>
      </trkpt>
      <trkpt lat="45.06324" lon="5.34508">
        <ele>286.03</ele>
        <time>2022-07-31T07:28:42.999Z</time>
      </trkpt>
      <trkpt lat="45.06333" lon="5.34513">
        <ele>289.96</ele>
        <time>2022-07-31T07:29:05.265Z</time>
      </trkpt>
      <trkpt lat="45.06342" lon="5.34516">
        <ele>293.5</ele>
        <time>2022-07-31T07:29:25.686Z</time>
      </trkpt>
      <trkpt lat="45.06351" lon="5.34519">
        <ele>296.89</ele>
        <time>2022-07-31T07:29:41.999Z</time>
      </trkpt>
      <trkpt lat="45.06357" lon="5.34529">
        <ele>302.24</ele>
        <time>2022-07-31T07:30:02.610Z</time>
      </trkpt>
      <trkpt lat="45.06366" lon="5.34526">
        <ele>303.15</ele>
        <time>2022-07-31T07:30:16.068Z</time>
      </trkpt>
      <trkpt lat="45.06363" lon="5.34538">
        <ele>307.31</ele>
        <time>2022-07-31T07:30:52.143Z</time>
      </trkpt>
      <trkpt lat="45.06357" lon="5.34548">
        <ele>309.96</ele>
        <time>2022-07-31T07:31:03.203Z</time>
      </trkpt>
      <trkpt lat="45.06351" lon="5.34558">
        <ele>313.01</ele>
        <time>2022-07-31T07:31:18.527Z</time>
      </trkpt>
      <trkpt lat="45.06358" lon="5.34566">
        <ele>318.66</ele>
        <time>2022-07-31T07:31:39.999Z</time>
      </trkpt>
      <trkpt lat="45.06368" lon="5.34564">
        <ele>319.49</ele>
        <time>2022-07-31T07:31:52.749Z</time>
      </trkpt>
      <trkpt lat="45.06378" lon="5.34561">
        <ele>320.57</ele>
        <time>2022-07-31T07:32:08.000Z</time>
      </trkpt>
      <trkpt lat="45.06387" lon="5.34559">
        <ele>321.62</ele>
        <time>2022-07-31T07:32:25.267Z</time>
      </trkpt>
      <trkpt lat="45.06396" lon="5.34562">
        <ele>324.99</ele>
        <time>2022-07-31T07:32:35.545Z</time>
      </trkpt>
      <trkpt lat="45.06405" lon="5.34562">
        <ele>326.69</ele>
        <time>2022-07-31T07:32:45.047Z</time>
      </trkpt>
      <trkpt lat="45.06414" lon="5.34567">
        <ele>330.78</ele>
        <time>2022-07-31T07:32:56.044Z</time>
      </trkpt>
      <trkpt lat="45.06424" lon="5.34567">
        <ele>332.54</ele>
        <time>2022-07-31T07:33:10.004Z</time>
      </trkpt>
      <trkpt lat="45.06432" lon="5.34562">
        <ele>331.78</ele>
        <time>2022-07-31T07:33:20.090Z</time>
      </trkpt>
      <trkpt lat="45.06441" lon="5.34559">
        <ele>332.39</ele>
        <time>2022-07-31T07:33:29.369Z</time>
      </trkpt>
      <trkpt lat="45.0645" lon="5.34561">
        <ele>334.68</ele>
        <time>2022-07-31T07:33:40.192Z</time>
      </trkpt>
      <trkpt lat="45.06459" lon="5.34556">
        <ele>334.35</ele>
        <time>2022-07-31T07:33:50.325Z</time>
      </trkpt>
      <trkpt lat="45.06468" lon="5.34552">
        <ele>334.32</ele>
        <time>2022-07-31T07:34:01.283Z</time>
      </trkpt>
      <trkpt lat="45.06466" lon="5.34565">
        <ele>338.94</ele>
        <time>2022-07-31T07:34:42.423Z</time>
      </trkpt>
      <trkpt lat="45.06463" lon="5.3458">
        <ele>345.07</ele>
        <time>2022-07-31T07:35:19.069Z</time>
      </trkpt>
      <trkpt lat="45.06455" lon="5.34589">
        <ele>347.91</ele>
        <time>2022-07-31T07:35:31.000Z</time>
      </trkpt>
      <trkpt lat="45.06449" lon="5.34599">
        <ele>352.66</ele>
        <time>2022-07-31T07:35:42.272Z</time>
      </trkpt>
      <trkpt lat="45.06442" lon="5.34608">
        <ele>356.12</ele>
        <time>2022-07-31T07:36:05.183Z</time>
      </trkpt>
      <trkpt lat="45.06438" lon="5.3462">
        <ele>362.72</ele>
        <time>2022-07-31T07:36:29.262Z</time>
      </trkpt>
      <trkpt lat="45.06434" lon="5.34633">
        <ele>369.7</ele>
        <time>2022-07-31T07:37:03.306Z</time>
      </trkpt>
      <trkpt lat="45.06435" lon="5.34652">
        <ele>380.92</ele>
        <time>2022-07-31T07:37:40.121Z</time>
      </trkpt>
      <trkpt lat="45.06431" lon="5.34663">
        <ele>387.01</ele>
        <time>2022-07-31T07:37:57.411Z</time>
      </trkpt>
      <trkpt lat="45.06423" lon="5.34669">
        <ele>388.88</ele>
        <time>2022-07-31T07:38:09.292Z</time>
      </trkpt>
      <trkpt lat="45.06411" lon="5.34679">
        <ele>393.84</ele>
        <time>2022-07-31T07:38:41.000Z</time>
      </trkpt>
      <trkpt lat="45.06404" lon="5.34687">
        <ele>398.81</ele>
        <time>2022-07-31T07:38:53.000Z</time>
      </trkpt>
      <trkpt lat="45.06396" lon="5.34695">
        <ele>402.57</ele>
        <time>2022-07-31T07:39:06.065Z</time>
      </trkpt>
      <trkpt lat="45.06388" lon="5.34699">
        <ele>403.08</ele>
        <time>2022-07-31T07:39:18.163Z</time>
      </trkpt>
      <trkpt lat="45.06378" lon="5.34698">
        <ele>400.4</ele>
        <time>2022-07-31T07:39:28.281Z</time>
      </trkpt>
      <trkpt lat="45.06368" lon="5.34698">
        <ele>398.34</ele>
        <time>2022-07-31T07:39:37.463Z</time>
      </trkpt>
      <trkpt lat="45.06359" lon="5.34702">
        <ele>396.78</ele>
        <time>2022-07-31T07:39:48.629Z</time>
      </trkpt>
      <trkpt lat="45.0635" lon="5.34704">
        <ele>394.44</ele>
        <time>2022-07-31T07:40:05.999Z</time>
      </trkpt>
      <trkpt lat="45.06356" lon="5.34712">
        <ele>397.31</ele>
        <time>2022-07-31T07:40:18.306Z</time>
      </trkpt>
      <trkpt lat="45.06357" lon="5.34725">
        <ele>397.25</ele>
        <time>2022-07-31T07:40:41.322Z</time>
      </trkpt>
      <trkpt lat="45.06349" lon="5.34731">
        <ele>392.26</ele>
        <time>2022-07-31T07:40:52.628Z</time>
      </trkpt>
      <trkpt lat="45.0634" lon="5.34734">
        <ele>387.17</ele>
        <time>2022-07-31T07:41:09.030Z</time>
      </trkpt>
      <trkpt lat="45.06331" lon="5.3473">
        <ele>385.29</ele>
        <time>2022-07-31T07:41:18.208Z</time>
      </trkpt>
      <trkpt lat="45.0632" lon="5.34732">
        <ele>381.81</ele>
        <time>2022-07-31T07:41:27.542Z</time>
      </trkpt>
      <trkpt lat="45.0631" lon="5.34729">
        <ele>381.31</ele>
        <time>2022-07-31T07:41:38.407Z</time>
      </trkpt>
      <trkpt lat="45.06302" lon="5.34723">
        <ele>381.41</ele>
        <time>2022-07-31T07:41:47.723Z</time>
      </trkpt>
      <trkpt lat="45.06294" lon="5.34717">
        <ele>380.5</ele>
        <time>2022-07-31T07:42:00.584Z</time>
      </trkpt>
      <trkpt lat="45.06285" lon="5.34714">
        <ele>378.67</ele>
        <time>2022-07-31T07:42:15.223Z</time>
      </trkpt>
      <trkpt lat="45.06276" lon="5.34717">
        <ele>377.2</ele>
        <time>2022-07-31T07:42:25.999Z</time>
      </trkpt>
      <trkpt lat="45.06287" lon="5.34718">
        <ele>379.48</ele>
        <time>2022-07-31T07:48:00.687Z</time>
      </trkpt>
      <trkpt lat="45.06296" lon="5.34722">
        <ele>380.74</ele>
        <time>2022-07-31T07:48:20.544Z</time>
      </trkpt>
      <trkpt lat="45.06305" lon="5.34727">
        <ele>381.12</ele>
        <time>2022-07-31T07:48:37.143Z</time>
      </trkpt>
      <trkpt lat="45.06318" lon="5.34733">
        <ele>381.44</ele>
        <time>2022-07-31T07:48:46.242Z</time>
      </trkpt>
      <trkpt lat="45.06333" lon="5.34733">
        <ele>385.09</ele>
        <time>2022-07-31T07:48:56.389Z</time>
      </trkpt>
      <trkpt lat="45.06341" lon="5.34727">
        <ele>389.91</ele>
        <time>2022-07-31T07:49:07.709Z</time>
      </trkpt>
      <trkpt lat="45.0635" lon="5.34724">
        <ele>394.27</ele>
        <time>2022-07-31T07:49:21.550Z</time>
      </trkpt>
      <trkpt lat="45.06358" lon="5.34716">
        <ele>397.87</ele>
        <time>2022-07-31T07:49:40.228Z</time>
      </trkpt>
      <trkpt lat="45.06354" lon="5.34704">
        <ele>395.91</ele>
        <time>2022-07-31T07:49:50.361Z</time>
      </trkpt>
      <trkpt lat="45.06363" lon="5.34703">
        <ele>398.44</ele>
        <time>2022-07-31T07:50:11.084Z</time>
      </trkpt>
      <trkpt lat="45.0637" lon="5.34694">
        <ele>397.46</ele>
        <time>2022-07-31T07:50:26.523Z</time>
      </trkpt>
      <trkpt lat="45.06379" lon="5.3469">
        <ele>397.28</ele>
        <time>2022-07-31T07:50:38.684Z</time>
      </trkpt>
      <trkpt lat="45.06388" lon="5.3469">
        <ele>398.49</ele>
        <time>2022-07-31T07:50:51.903Z</time>
      </trkpt>
      <trkpt lat="45.06398" lon="5.34688">
        <ele>398.69</ele>
        <time>2022-07-31T07:51:05.602Z</time>
      </trkpt>
      <trkpt lat="45.06407" lon="5.34678">
        <ele>393.32</ele>
        <time>2022-07-31T07:51:15.176Z</time>
      </trkpt>
      <trkpt lat="45.06415" lon="5.34671">
        <ele>389.32</ele>
        <time>2022-07-31T07:51:31.472Z</time>
      </trkpt>
      <trkpt lat="45.0642" lon="5.3466">
        <ele>383.69</ele>
        <time>2022-07-31T07:51:40.706Z</time>
      </trkpt>
      <trkpt lat="45.06428" lon="5.34656">
        <ele>382.07</ele>
        <time>2022-07-31T07:51:56.536Z</time>
      </trkpt>
      <trkpt lat="45.06435" lon="5.34646">
        <ele>377.47</ele>
        <time>2022-07-31T07:52:18.000Z</time>
      </trkpt>
      <trkpt lat="45.06434" lon="5.34633">
        <ele>369.77</ele>
        <time>2022-07-31T07:52:59.567Z</time>
      </trkpt>
      <trkpt lat="45.06441" lon="5.34625">
        <ele>365.64</ele>
        <time>2022-07-31T07:53:12.000Z</time>
      </trkpt>
      <trkpt lat="45.06448" lon="5.34616">
        <ele>361.85</ele>
        <time>2022-07-31T07:54:08.190Z</time>
      </trkpt>
      <trkpt lat="45.06458" lon="5.34612">
        <ele>360.77</ele>
        <time>2022-07-31T07:54:17.409Z</time>
      </trkpt>
      <trkpt lat="45.06466" lon="5.34603">
        <ele>357.11</ele>
        <time>2022-07-31T07:54:26.709Z</time>
      </trkpt>
      <trkpt lat="45.06474" lon="5.34593">
        <ele>353.29</ele>
        <time>2022-07-31T07:54:37.000Z</time>
      </trkpt>
      <trkpt lat="45.06484" lon="5.3459">
        <ele>353.12</ele>
        <time>2022-07-31T07:54:52.404Z</time>
      </trkpt>
      <trkpt lat="45.06497" lon="5.34585">
        <ele>352.38</ele>
        <time>2022-07-31T07:55:02.518Z</time>
      </trkpt>
      <trkpt lat="45.06506" lon="5.34576">
        <ele>349.48</ele>
        <time>2022-07-31T07:55:11.542Z</time>
      </trkpt>
      <trkpt lat="45.06514" lon="5.3457">
        <ele>348.04</ele>
        <time>2022-07-31T07:55:22.278Z</time>
      </trkpt>
      <trkpt lat="45.06522" lon="5.34564">
        <ele>346.72</ele>
        <time>2022-07-31T07:55:37.591Z</time>
      </trkpt>
      <trkpt lat="45.0653" lon="5.34569">
        <ele>349.98</ele>
        <time>2022-07-31T07:55:49.611Z</time>
      </trkpt>
      <trkpt lat="45.0654" lon="5.34573">
        <ele>352.78</ele>
        <time>2022-07-31T07:56:00.999Z</time>
      </trkpt>
      <trkpt lat="45.06548" lon="5.34579">
        <ele>356.39</ele>
        <time>2022-07-31T07:56:27.185Z</time>
      </trkpt>
      <trkpt lat="45.06558" lon="5.3458">
        <ele>357.57</ele>
        <time>2022-07-31T07:56:42.484Z</time>
      </trkpt>
      <trkpt lat="45.06568" lon="5.34582">
        <ele>359.67</ele>
        <time>2022-07-31T07:56:54.742Z</time>
      </trkpt>
      <trkpt lat="45.06577" lon="5.34584">
        <ele>361.81</ele>
        <time>2022-07-31T07:57:07.620Z</time>
      </trkpt>
      <trkpt lat="45.06586" lon="5.34589">
        <ele>364.98</ele>
        <time>2022-07-31T07:57:19.430Z</time>
      </trkpt>
      <trkpt lat="45.06594" lon="5.34597">
        <ele>369.41</ele>
        <time>2022-07-31T07:57:33.999Z</time>
      </trkpt>
      <trkpt lat="45.06601" lon="5.34606">
        <ele>374.23</ele>
        <time>2022-07-31T07:57:50.524Z</time>
      </trkpt>
      <trkpt lat="45.06608" lon="5.34615">
        <ele>378.62</ele>
        <time>2022-07-31T07:58:06.367Z</time>
      </trkpt>
      <trkpt lat="45.06616" lon="5.34622">
        <ele>382.7</ele>
        <time>2022-07-31T07:58:28.446Z</time>
      </trkpt>
      <trkpt lat="45.06624" lon="5.34629">
        <ele>386.1</ele>
        <time>2022-07-31T07:58:45.366Z</time>
      </trkpt>
      <trkpt lat="45.06632" lon="5.34635">
        <ele>389.02</ele>
        <time>2022-07-31T07:59:01.563Z</time>
      </trkpt>
      <trkpt lat="45.06641" lon="5.3464">
        <ele>391.92</ele>
        <time>2022-07-31T07:59:15.760Z</time>
      </trkpt>
      <trkpt lat="45.06649" lon="5.34648">
        <ele>395.53</ele>
        <time>2022-07-31T07:59:32.649Z</time>
      </trkpt>
      <trkpt lat="45.06659" lon="5.3465">
        <ele>396.72</ele>
        <time>2022-07-31T07:59:43.999Z</time>
      </trkpt>
      <trkpt lat="45.06667" lon="5.34656">
        <ele>399.99</ele>
        <time>2022-07-31T07:59:57.224Z</time>
      </trkpt>
      <trkpt lat="45.06676" lon="5.34658">
        <ele>401.69</ele>
        <time>2022-07-31T08:00:06.447Z</time>
      </trkpt>
      <trkpt lat="45.06685" lon="5.34659">
        <ele>402.77</ele>
        <time>2022-07-31T08:00:16.185Z</time>
      </trkpt>
      <trkpt lat="45.06695" lon="5.34661">
        <ele>404.55</ele>
        <time>2022-07-31T08:00:26.566Z</time>
      </trkpt>
      <trkpt lat="45.06705" lon="5.34658">
        <ele>403.99</ele>
        <time>2022-07-31T08:00:36.025Z</time>
      </trkpt>
      <trkpt lat="45.06714" lon="5.34659">
        <ele>405.39</ele>
        <time>2022-07-31T08:00:48.999Z</time>
      </trkpt>
      <trkpt lat="45.06725" lon="5.34662">
        <ele>408.21</ele>
        <time>2022-07-31T08:00:59.648Z</time>
      </trkpt>
      <trkpt lat="45.06734" lon="5.34662">
        <ele>409.19</ele>
        <time>2022-07-31T08:01:09.287Z</time>
      </trkpt>
      <trkpt lat="45.06743" lon="5.34663">
        <ele>410.79</ele>
        <time>2022-07-31T08:01:19.568Z</time>
      </trkpt>
      <trkpt lat="45.06754" lon="5.34662">
        <ele>411.57</ele>
        <time>2022-07-31T08:01:29.705Z</time>
      </trkpt>
      <trkpt lat="45.06763" lon="5.34659">
        <ele>411.36</ele>
        <time>2022-07-31T08:01:40.532Z</time>
      </trkpt>
      <trkpt lat="45.06772" lon="5.34659">
        <ele>412.24</ele>
        <time>2022-07-31T08:01:50.529Z</time>
      </trkpt>
      <trkpt lat="45.06781" lon="5.34663">
        <ele>414.91</ele>
        <time>2022-07-31T08:02:00.443Z</time>
      </trkpt>
      <trkpt lat="45.0679" lon="5.34662">
        <ele>415.67</ele>
        <time>2022-07-31T08:02:10.569Z</time>
      </trkpt>
      <trkpt lat="45.06799" lon="5.3466">
        <ele>416.17</ele>
        <time>2022-07-31T08:02:21.990Z</time>
      </trkpt>
      <trkpt lat="45.06808" lon="5.34659">
        <ele>416.73</ele>
        <time>2022-07-31T08:02:32.542Z</time>
      </trkpt>
      <trkpt lat="45.06818" lon="5.34658">
        <ele>417.57</ele>
        <time>2022-07-31T08:02:42.365Z</time>
      </trkpt>
      <trkpt lat="45.06827" lon="5.3466">
        <ele>420.13</ele>
        <time>2022-07-31T08:02:52.808Z</time>
      </trkpt>
      <trkpt lat="45.06837" lon="5.34662">
        <ele>422.56</ele>
        <time>2022-07-31T08:03:01.999Z</time>
      </trkpt>
      <trkpt lat="45.06847" lon="5.34662">
        <ele>423.8</ele>
        <time>2022-07-31T08:03:11.539Z</time>
      </trkpt>
      <trkpt lat="45.06856" lon="5.34658">
        <ele>423.86</ele>
        <time>2022-07-31T08:03:22.540Z</time>
      </trkpt>
      <trkpt lat="45.06867" lon="5.34657">
        <ele>425.42</ele>
        <time>2022-07-31T08:03:31.714Z</time>
      </trkpt>
      <trkpt lat="45.06877" lon="5.34656">
        <ele>426.69</ele>
        <time>2022-07-31T08:03:41.170Z</time>
      </trkpt>
      <trkpt lat="45.06886" lon="5.34652">
        <ele>426.34</ele>
        <time>2022-07-31T08:03:51.328Z</time>
      </trkpt>
      <trkpt lat="45.06895" lon="5.34651">
        <ele>427.65</ele>
        <time>2022-07-31T08:04:00.448Z</time>
      </trkpt>
      <trkpt lat="45.06906" lon="5.34648">
        <ele>427.68</ele>
        <time>2022-07-31T08:04:10.000Z</time>
      </trkpt>
      <trkpt lat="45.06914" lon="5.3464">
        <ele>425.54</ele>
        <time>2022-07-31T08:04:19.049Z</time>
      </trkpt>
      <trkpt lat="45.06923" lon="5.34635">
        <ele>424.34</ele>
        <time>2022-07-31T08:04:30.266Z</time>
      </trkpt>
      <trkpt lat="45.06932" lon="5.34631">
        <ele>423.54</ele>
        <time>2022-07-31T08:04:40.944Z</time>
      </trkpt>
      <trkpt lat="45.0694" lon="5.34636">
        <ele>426.39</ele>
        <time>2022-07-31T08:04:58.982Z</time>
      </trkpt>
      <trkpt lat="45.0695" lon="5.34631">
        <ele>424.95</ele>
        <time>2022-07-31T08:05:15.621Z</time>
      </trkpt>
      <trkpt lat="45.06964" lon="5.3463">
        <ele>425.67</ele>
        <time>2022-07-31T08:05:52.627Z</time>
      </trkpt>
      <trkpt lat="45.06981" lon="5.34638">
        <ele>430.79</ele>
        <time>2022-07-31T08:06:02.286Z</time>
      </trkpt>
      <trkpt lat="45.06998" lon="5.34645">
        <ele>435.68</ele>
        <time>2022-07-31T08:06:11.463Z</time>
      </trkpt>
      <trkpt lat="45.07009" lon="5.34653">
        <ele>439.85</ele>
        <time>2022-07-31T08:06:21.562Z</time>
      </trkpt>
      <trkpt lat="45.07019" lon="5.34657">
        <ele>442.31</ele>
        <time>2022-07-31T08:06:31.162Z</time>
      </trkpt>
      <trkpt lat="45.07027" lon="5.34664">
        <ele>446.09</ele>
        <time>2022-07-31T08:06:46.000Z</time>
      </trkpt>
      <trkpt lat="45.07032" lon="5.34675">
        <ele>451.05</ele>
        <time>2022-07-31T08:06:59.549Z</time>
      </trkpt>
      <trkpt lat="45.07039" lon="5.34684">
        <ele>454.82</ele>
        <time>2022-07-31T08:07:11.986Z</time>
      </trkpt>
      <trkpt lat="45.07046" lon="5.34692">
        <ele>458.23</ele>
        <time>2022-07-31T08:07:23.000Z</time>
      </trkpt>
      <trkpt lat="45.07054" lon="5.347">
        <ele>460.93</ele>
        <time>2022-07-31T08:07:34.305Z</time>
      </trkpt>
      <trkpt lat="45.07063" lon="5.34706">
        <ele>463.04</ele>
        <time>2022-07-31T08:07:50.263Z</time>
      </trkpt>
      <trkpt lat="45.07069" lon="5.34716">
        <ele>466.76</ele>
        <time>2022-07-31T08:08:08.181Z</time>
      </trkpt>
      <trkpt lat="45.07076" lon="5.34728">
        <ele>470.8</ele>
        <time>2022-07-31T08:08:34.527Z</time>
      </trkpt>
      <trkpt lat="45.07082" lon="5.34737">
        <ele>474.46</ele>
        <time>2022-07-31T08:08:49.050Z</time>
      </trkpt>
      <trkpt lat="45.07087" lon="5.34747">
        <ele>478.68</ele>
        <time>2022-07-31T08:09:00.447Z</time>
      </trkpt>
      <trkpt lat="45.07094" lon="5.34757">
        <ele>483.22</ele>
        <time>2022-07-31T08:09:17.285Z</time>
      </trkpt>
      <trkpt lat="45.071" lon="5.34767">
        <ele>487.88</ele>
        <time>2022-07-31T08:09:35.661Z</time>
      </trkpt>
      <trkpt lat="45.07108" lon="5.34774">
        <ele>492.05</ele>
        <time>2022-07-31T08:09:48.099Z</time>
      </trkpt>
      <trkpt lat="45.07112" lon="5.34786">
        <ele>495.86</ele>
        <time>2022-07-31T08:10:02.068Z</time>
      </trkpt>
      <trkpt lat="45.07115" lon="5.34798">
        <ele>499.11</ele>
        <time>2022-07-31T08:10:23.068Z</time>
      </trkpt>
      <trkpt lat="45.07122" lon="5.34808">
        <ele>501.83</ele>
        <time>2022-07-31T08:10:38.604Z</time>
      </trkpt>
      <trkpt lat="45.07128" lon="5.34819">
        <ele>504.37</ele>
        <time>2022-07-31T08:10:53.000Z</time>
      </trkpt>
      <trkpt lat="45.07134" lon="5.34828">
        <ele>506.48</ele>
        <time>2022-07-31T08:11:03.741Z</time>
      </trkpt>
      <trkpt lat="45.07142" lon="5.34835">
        <ele>508.41</ele>
        <time>2022-07-31T08:11:13.101Z</time>
      </trkpt>
      <trkpt lat="45.07144" lon="5.34847">
        <ele>510.93</ele>
        <time>2022-07-31T08:11:34.148Z</time>
      </trkpt>
      <trkpt lat="45.07142" lon="5.3486">
        <ele>513.74</ele>
        <time>2022-07-31T08:12:05.999Z</time>
      </trkpt>
      <trkpt lat="45.07146" lon="5.34872">
        <ele>516.65</ele>
        <time>2022-07-31T08:12:19.427Z</time>
      </trkpt>
      <trkpt lat="45.07148" lon="5.34885">
        <ele>519.68</ele>
        <time>2022-07-31T08:12:41.282Z</time>
      </trkpt>
      <trkpt lat="45.07153" lon="5.34896">
        <ele>522.12</ele>
        <time>2022-07-31T08:12:50.462Z</time>
      </trkpt>
      <trkpt lat="45.07153" lon="5.34909">
        <ele>524.98</ele>
        <time>2022-07-31T08:13:15.594Z</time>
      </trkpt>
      <trkpt lat="45.07153" lon="5.34922">
        <ele>527.82</ele>
        <time>2022-07-31T08:13:32.537Z</time>
      </trkpt>
      <trkpt lat="45.07152" lon="5.34935">
        <ele>531.26</ele>
        <time>2022-07-31T08:13:52.205Z</time>
      </trkpt>
      <trkpt lat="45.07155" lon="5.34948">
        <ele>534.49</ele>
        <time>2022-07-31T08:14:13.742Z</time>
      </trkpt>
      <trkpt lat="45.07149" lon="5.34959">
        <ele>538.02</ele>
        <time>2022-07-31T08:14:38.489Z</time>
      </trkpt>
      <trkpt lat="45.07142" lon="5.34968">
        <ele>541.61</ele>
        <time>2022-07-31T08:14:54.146Z</time>
      </trkpt>
      <trkpt lat="45.07138" lon="5.34981">
        <ele>544.83</ele>
        <time>2022-07-31T08:15:03.644Z</time>
      </trkpt>
      <trkpt lat="45.07149" lon="5.34988">
        <ele>543.65</ele>
        <time>2022-07-31T08:22:24.565Z</time>
      </trkpt>
      <trkpt lat="45.07158" lon="5.35002">
        <ele>542.85</ele>
        <time>2022-07-31T08:22:34.520Z</time>
      </trkpt>
      <trkpt lat="45.07157" lon="5.35015">
        <ele>542.06</ele>
        <time>2022-07-31T08:22:44.602Z</time>
      </trkpt>
      <trkpt lat="45.07148" lon="5.35021">
        <ele>541.93</ele>
        <time>2022-07-31T08:23:07.561Z</time>
      </trkpt>
      <trkpt lat="45.0714" lon="5.35027">
        <ele>541.52</ele>
        <time>2022-07-31T08:23:16.890Z</time>
      </trkpt>
      <trkpt lat="45.07131" lon="5.35033">
        <ele>540.93</ele>
        <time>2022-07-31T08:23:37.427Z</time>
      </trkpt>
      <trkpt lat="45.07121" lon="5.35037">
        <ele>540.82</ele>
        <time>2022-07-31T08:23:55.485Z</time>
      </trkpt>
      <trkpt lat="45.07134" lon="5.35047">
        <ele>535.82</ele>
        <time>2022-07-31T08:24:30.470Z</time>
      </trkpt>
      <trkpt lat="45.07143" lon="5.35057">
        <ele>532.08</ele>
        <time>2022-07-31T08:24:39.669Z</time>
      </trkpt>
      <trkpt lat="45.07153" lon="5.35067">
        <ele>529.32</ele>
        <time>2022-07-31T08:24:48.725Z</time>
      </trkpt>
      <trkpt lat="45.0716" lon="5.35076">
        <ele>526.72</ele>
        <time>2022-07-31T08:25:04.535Z</time>
      </trkpt>
      <trkpt lat="45.07169" lon="5.35085">
        <ele>524.6</ele>
        <time>2022-07-31T08:25:13.703Z</time>
      </trkpt>
      <trkpt lat="45.07178" lon="5.35092">
        <ele>523.63</ele>
        <time>2022-07-31T08:25:26.359Z</time>
      </trkpt>
      <trkpt lat="45.07197" lon="5.35103">
        <ele>523.12</ele>
        <time>2022-07-31T08:25:35.537Z</time>
      </trkpt>
      <trkpt lat="45.07218" lon="5.35115">
        <ele>524.36</ele>
        <time>2022-07-31T08:25:44.549Z</time>
      </trkpt>
      <trkpt lat="45.0723" lon="5.3512">
        <ele>525.92</ele>
        <time>2022-07-31T08:25:53.773Z</time>
      </trkpt>
      <trkpt lat="45.07238" lon="5.35127">
        <ele>525</ele>
        <time>2022-07-31T08:26:04.542Z</time>
      </trkpt>
      <trkpt lat="45.07246" lon="5.35136">
        <ele>523.12</ele>
        <time>2022-07-31T08:26:13.767Z</time>
      </trkpt>
      <trkpt lat="45.07254" lon="5.35143">
        <ele>521.68</ele>
        <time>2022-07-31T08:26:24.329Z</time>
      </trkpt>
      <trkpt lat="45.07263" lon="5.35154">
        <ele>519.22</ele>
        <time>2022-07-31T08:26:33.745Z</time>
      </trkpt>
      <trkpt lat="45.07267" lon="5.35165">
        <ele>514.83</ele>
        <time>2022-07-31T08:26:53.544Z</time>
      </trkpt>
      <trkpt lat="45.07275" lon="5.35176">
        <ele>512.13</ele>
        <time>2022-07-31T08:27:03.125Z</time>
      </trkpt>
      <trkpt lat="45.07285" lon="5.35185">
        <ele>510.7</ele>
        <time>2022-07-31T08:27:12.742Z</time>
      </trkpt>
      <trkpt lat="45.07294" lon="5.35189">
        <ele>511.51</ele>
        <time>2022-07-31T08:27:44.390Z</time>
      </trkpt>
      <trkpt lat="45.07307" lon="5.35204">
        <ele>510.2</ele>
        <time>2022-07-31T08:27:54.168Z</time>
      </trkpt>
      <trkpt lat="45.07321" lon="5.35213">
        <ele>512.08</ele>
        <time>2022-07-31T08:28:03.304Z</time>
      </trkpt>
      <trkpt lat="45.07328" lon="5.35222">
        <ele>512.99</ele>
        <time>2022-07-31T08:28:14.464Z</time>
      </trkpt>
      <trkpt lat="45.07333" lon="5.35232">
        <ele>513.08</ele>
        <time>2022-07-31T08:28:24.423Z</time>
      </trkpt>
      <trkpt lat="45.07337" lon="5.35248">
        <ele>512.48</ele>
        <time>2022-07-31T08:28:33.532Z</time>
      </trkpt>
      <trkpt lat="45.07339" lon="5.35263">
        <ele>511.66</ele>
        <time>2022-07-31T08:28:43.049Z</time>
      </trkpt>
      <trkpt lat="45.07335" lon="5.35276">
        <ele>508.46</ele>
        <time>2022-07-31T08:28:52.087Z</time>
      </trkpt>
      <trkpt lat="45.0733" lon="5.35287">
        <ele>505.26</ele>
        <time>2022-07-31T08:29:03.267Z</time>
      </trkpt>
      <trkpt lat="45.07327" lon="5.35303">
        <ele>502.61</ele>
        <time>2022-07-31T08:29:12.543Z</time>
      </trkpt>
      <trkpt lat="45.07329" lon="5.35318">
        <ele>502.78</ele>
        <time>2022-07-31T08:29:21.763Z</time>
      </trkpt>
      <trkpt lat="45.07336" lon="5.35331">
        <ele>504.95</ele>
        <time>2022-07-31T08:29:31.244Z</time>
      </trkpt>
      <trkpt lat="45.07343" lon="5.35339">
        <ele>507.45</ele>
        <time>2022-07-31T08:29:46.424Z</time>
      </trkpt>
      <trkpt lat="45.07351" lon="5.35349">
        <ele>509.89</ele>
        <time>2022-07-31T08:30:01.070Z</time>
      </trkpt>
      <trkpt lat="45.07361" lon="5.35362">
        <ele>512.03</ele>
        <time>2022-07-31T08:30:10.568Z</time>
      </trkpt>
      <trkpt lat="45.07367" lon="5.35381">
        <ele>508.55</ele>
        <time>2022-07-31T08:30:19.686Z</time>
      </trkpt>
      <trkpt lat="45.07371" lon="5.35395">
        <ele>504.76</ele>
        <time>2022-07-31T08:30:29.305Z</time>
      </trkpt>
      <trkpt lat="45.07378" lon="5.35407">
        <ele>503.4</ele>
        <time>2022-07-31T08:30:38.386Z</time>
      </trkpt>
      <trkpt lat="45.07387" lon="5.35421">
        <ele>502.68</ele>
        <time>2022-07-31T08:30:47.663Z</time>
      </trkpt>
      <trkpt lat="45.07394" lon="5.35432">
        <ele>502</ele>
        <time>2022-07-31T08:30:57.064Z</time>
      </trkpt>
      <trkpt lat="45.07401" lon="5.35442">
        <ele>501.97</ele>
        <time>2022-07-31T08:31:08.101Z</time>
      </trkpt>
      <trkpt lat="45.07406" lon="5.35455">
        <ele>500.42</ele>
        <time>2022-07-31T08:31:17.221Z</time>
      </trkpt>
      <trkpt lat="45.0741" lon="5.35468">
        <ele>499.74</ele>
        <time>2022-07-31T08:31:26.554Z</time>
      </trkpt>
      <trkpt lat="45.07414" lon="5.35484">
        <ele>498.69</ele>
        <time>2022-07-31T08:31:35.589Z</time>
      </trkpt>
      <trkpt lat="45.07416" lon="5.35497">
        <ele>497.84</ele>
        <time>2022-07-31T08:31:44.629Z</time>
      </trkpt>
      <trkpt lat="45.0742" lon="5.35509">
        <ele>499.51</ele>
        <time>2022-07-31T08:31:58.545Z</time>
      </trkpt>
      <trkpt lat="45.07426" lon="5.3553">
        <ele>503.34</ele>
        <time>2022-07-31T08:32:08.684Z</time>
      </trkpt>
      <trkpt lat="45.07424" lon="5.35544">
        <ele>503.4</ele>
        <time>2022-07-31T08:32:18.262Z</time>
      </trkpt>
      <trkpt lat="45.07419" lon="5.35556">
        <ele>502.42</ele>
        <time>2022-07-31T08:32:28.704Z</time>
      </trkpt>
      <trkpt lat="45.0741" lon="5.3557">
        <ele>499.37</ele>
        <time>2022-07-31T08:32:37.986Z</time>
      </trkpt>
      <trkpt lat="45.07402" lon="5.3558">
        <ele>496.62</ele>
        <time>2022-07-31T08:32:47.249Z</time>
      </trkpt>
      <trkpt lat="45.07394" lon="5.35587">
        <ele>493.39</ele>
        <time>2022-07-31T08:32:58.846Z</time>
      </trkpt>
      <trkpt lat="45.07388" lon="5.35598">
        <ele>491.17</ele>
        <time>2022-07-31T08:33:08.168Z</time>
      </trkpt>
      <trkpt lat="45.0738" lon="5.35606">
        <ele>488.88</ele>
        <time>2022-07-31T08:33:17.745Z</time>
      </trkpt>
      <trkpt lat="45.07375" lon="5.35617">
        <ele>487.81</ele>
        <time>2022-07-31T08:33:33.904Z</time>
      </trkpt>
      <trkpt lat="45.07366" lon="5.35619">
        <ele>484.99</ele>
        <time>2022-07-31T08:33:44.903Z</time>
      </trkpt>
      <trkpt lat="45.07354" lon="5.35623">
        <ele>481.93</ele>
        <time>2022-07-31T08:33:54.086Z</time>
      </trkpt>
      <trkpt lat="45.07344" lon="5.35627">
        <ele>479.57</ele>
        <time>2022-07-31T08:34:03.360Z</time>
      </trkpt>
      <trkpt lat="45.07335" lon="5.35627">
        <ele>477.01</ele>
        <time>2022-07-31T08:34:57.190Z</time>
      </trkpt>
      <trkpt lat="45.07324" lon="5.35626">
        <ele>474.34</ele>
        <time>2022-07-31T08:35:06.408Z</time>
      </trkpt>
      <trkpt lat="45.07315" lon="5.35626">
        <ele>472.49</ele>
        <time>2022-07-31T08:35:23.426Z</time>
      </trkpt>
      <trkpt lat="45.07306" lon="5.35626">
        <ele>470.86</ele>
        <time>2022-07-31T08:35:33.687Z</time>
      </trkpt>
      <trkpt lat="45.07297" lon="5.35622">
        <ele>469.04</ele>
        <time>2022-07-31T08:35:46.246Z</time>
      </trkpt>
      <trkpt lat="45.07287" lon="5.35623">
        <ele>467.49</ele>
        <time>2022-07-31T08:35:55.384Z</time>
      </trkpt>
      <trkpt lat="45.07275" lon="5.35625">
        <ele>465.53</ele>
        <time>2022-07-31T08:36:04.763Z</time>
      </trkpt>
      <trkpt lat="45.07264" lon="5.3562">
        <ele>463.34</ele>
        <time>2022-07-31T08:36:14.003Z</time>
      </trkpt>
      <trkpt lat="45.07253" lon="5.35618">
        <ele>461.28</ele>
        <time>2022-07-31T08:36:23.270Z</time>
      </trkpt>
      <trkpt lat="45.07243" lon="5.35614">
        <ele>459.08</ele>
        <time>2022-07-31T08:36:33.520Z</time>
      </trkpt>
      <trkpt lat="45.07234" lon="5.3561">
        <ele>457.11</ele>
        <time>2022-07-31T08:36:42.606Z</time>
      </trkpt>
      <trkpt lat="45.07224" lon="5.3561">
        <ele>455.31</ele>
        <time>2022-07-31T08:36:55.305Z</time>
      </trkpt>
      <trkpt lat="45.07215" lon="5.35608">
        <ele>453.64</ele>
        <time>2022-07-31T08:37:04.366Z</time>
      </trkpt>
      <trkpt lat="45.07206" lon="5.35604">
        <ele>451.9</ele>
        <time>2022-07-31T08:37:14.425Z</time>
      </trkpt>
      <trkpt lat="45.07197" lon="5.356">
        <ele>450.34</ele>
        <time>2022-07-31T08:37:24.342Z</time>
      </trkpt>
      <trkpt lat="45.07188" lon="5.35603">
        <ele>448.52</ele>
        <time>2022-07-31T08:37:35.000Z</time>
      </trkpt>
      <trkpt lat="45.07179" lon="5.35602">
        <ele>446.53</ele>
        <time>2022-07-31T08:37:48.150Z</time>
      </trkpt>
      <trkpt lat="45.0717" lon="5.35601">
        <ele>444.37</ele>
        <time>2022-07-31T08:37:57.170Z</time>
      </trkpt>
      <trkpt lat="45.07161" lon="5.35599">
        <ele>441.92</ele>
        <time>2022-07-31T08:38:06.687Z</time>
      </trkpt>
      <trkpt lat="45.07153" lon="5.35606">
        <ele>438.69</ele>
        <time>2022-07-31T08:38:28.345Z</time>
      </trkpt>
      <trkpt lat="45.07143" lon="5.35603">
        <ele>435.96</ele>
        <time>2022-07-31T08:38:39.569Z</time>
      </trkpt>
      <trkpt lat="45.07134" lon="5.35603">
        <ele>432.52</ele>
        <time>2022-07-31T08:38:52.566Z</time>
      </trkpt>
      <trkpt lat="45.07125" lon="5.35604">
        <ele>428.93</ele>
        <time>2022-07-31T08:39:07.481Z</time>
      </trkpt>
      <trkpt lat="45.07116" lon="5.35599">
        <ele>425.67</ele>
        <time>2022-07-31T08:39:32.247Z</time>
      </trkpt>
      <trkpt lat="45.07108" lon="5.3559">
        <ele>422.58</ele>
        <time>2022-07-31T08:39:41.427Z</time>
      </trkpt>
      <trkpt lat="45.07102" lon="5.35602">
        <ele>420.12</ele>
        <time>2022-07-31T08:39:59.532Z</time>
      </trkpt>
      <trkpt lat="45.07094" lon="5.35607">
        <ele>416.42</ele>
        <time>2022-07-31T08:40:14.062Z</time>
      </trkpt>
      <trkpt lat="45.07086" lon="5.35614">
        <ele>412.67</ele>
        <time>2022-07-31T08:40:30.062Z</time>
      </trkpt>
      <trkpt lat="45.07077" lon="5.35618">
        <ele>409.23</ele>
        <time>2022-07-31T08:40:41.651Z</time>
      </trkpt>
      <trkpt lat="45.0707" lon="5.35627">
        <ele>405.79</ele>
        <time>2022-07-31T08:40:51.470Z</time>
      </trkpt>
      <trkpt lat="45.07061" lon="5.3563">
        <ele>403.2</ele>
        <time>2022-07-31T08:41:11.466Z</time>
      </trkpt>
      <trkpt lat="45.07052" lon="5.35637">
        <ele>400.54</ele>
        <time>2022-07-31T08:41:20.945Z</time>
      </trkpt>
      <trkpt lat="45.07043" lon="5.35645">
        <ele>398.27</ele>
        <time>2022-07-31T08:41:30.406Z</time>
      </trkpt>
      <trkpt lat="45.07034" lon="5.35646">
        <ele>397.02</ele>
        <time>2022-07-31T08:41:47.544Z</time>
      </trkpt>
      <trkpt lat="45.07025" lon="5.35653">
        <ele>395.48</ele>
        <time>2022-07-31T08:41:56.588Z</time>
      </trkpt>
      <trkpt lat="45.07015" lon="5.35657">
        <ele>394.18</ele>
        <time>2022-07-31T08:42:06.241Z</time>
      </trkpt>
      <trkpt lat="45.07007" lon="5.35661">
        <ele>392.63</ele>
        <time>2022-07-31T08:42:15.539Z</time>
      </trkpt>
      <trkpt lat="45.06998" lon="5.35667">
        <ele>390.54</ele>
        <time>2022-07-31T08:42:27.249Z</time>
      </trkpt>
      <trkpt lat="45.06987" lon="5.35667">
        <ele>388.39</ele>
        <time>2022-07-31T08:42:37.232Z</time>
      </trkpt>
      <trkpt lat="45.06978" lon="5.35666">
        <ele>386.45</ele>
        <time>2022-07-31T08:42:48.149Z</time>
      </trkpt>
      <trkpt lat="45.0697" lon="5.35672">
        <ele>383.9</ele>
        <time>2022-07-31T08:42:58.085Z</time>
      </trkpt>
      <trkpt lat="45.06957" lon="5.35675">
        <ele>380.61</ele>
        <time>2022-07-31T08:43:07.535Z</time>
      </trkpt>
      <trkpt lat="45.06948" lon="5.35676">
        <ele>377.97</ele>
        <time>2022-07-31T08:43:19.264Z</time>
      </trkpt>
      <trkpt lat="45.0694" lon="5.35681">
        <ele>374.85</ele>
        <time>2022-07-31T08:43:30.063Z</time>
      </trkpt>
      <trkpt lat="45.06931" lon="5.35683">
        <ele>371.98</ele>
        <time>2022-07-31T08:43:41.719Z</time>
      </trkpt>
      <trkpt lat="45.06922" lon="5.35682">
        <ele>369.24</ele>
        <time>2022-07-31T08:43:59.291Z</time>
      </trkpt>
      <trkpt lat="45.06913" lon="5.35689">
        <ele>365.61</ele>
        <time>2022-07-31T08:44:14.538Z</time>
      </trkpt>
      <trkpt lat="45.06905" lon="5.35696">
        <ele>361.46</ele>
        <time>2022-07-31T08:44:40.388Z</time>
      </trkpt>
      <trkpt lat="45.06896" lon="5.35701">
        <ele>357.75</ele>
        <time>2022-07-31T08:44:49.426Z</time>
      </trkpt>
      <trkpt lat="45.06884" lon="5.35702">
        <ele>353.74</ele>
        <time>2022-07-31T08:44:59.424Z</time>
      </trkpt>
      <trkpt lat="45.06875" lon="5.35705">
        <ele>350.4</ele>
        <time>2022-07-31T08:45:10.999Z</time>
      </trkpt>
      <trkpt lat="45.06866" lon="5.35709">
        <ele>347.31</ele>
        <time>2022-07-31T08:45:24.589Z</time>
      </trkpt>
      <trkpt lat="45.06858" lon="5.35714">
        <ele>344.66</ele>
        <time>2022-07-31T08:45:35.288Z</time>
      </trkpt>
      <trkpt lat="45.06849" lon="5.3572">
        <ele>342.39</ele>
        <time>2022-07-31T08:45:44.307Z</time>
      </trkpt>
      <trkpt lat="45.0684" lon="5.3573">
        <ele>340.74</ele>
        <time>2022-07-31T08:45:53.346Z</time>
      </trkpt>
      <trkpt lat="45.06832" lon="5.35735">
        <ele>339.12</ele>
        <time>2022-07-31T08:46:03.024Z</time>
      </trkpt>
      <trkpt lat="45.06823" lon="5.3574">
        <ele>337.54</ele>
        <time>2022-07-31T08:46:18.999Z</time>
      </trkpt>
      <trkpt lat="45.06813" lon="5.35747">
        <ele>335.95</ele>
        <time>2022-07-31T08:46:28.064Z</time>
      </trkpt>
      <trkpt lat="45.06804" lon="5.35745">
        <ele>334.15</ele>
        <time>2022-07-31T08:46:42.553Z</time>
      </trkpt>
      <trkpt lat="45.06794" lon="5.35748">
        <ele>332.49</ele>
        <time>2022-07-31T08:46:51.600Z</time>
      </trkpt>
      <trkpt lat="45.06785" lon="5.35743">
        <ele>330.03</ele>
        <time>2022-07-31T08:47:06.016Z</time>
      </trkpt>
      <trkpt lat="45.06773" lon="5.35737">
        <ele>325.91</ele>
        <time>2022-07-31T08:47:15.327Z</time>
      </trkpt>
      <trkpt lat="45.06765" lon="5.35733">
        <ele>322.27</ele>
        <time>2022-07-31T08:47:28.465Z</time>
      </trkpt>
      <trkpt lat="45.06755" lon="5.35728">
        <ele>318.01</ele>
        <time>2022-07-31T08:47:42.541Z</time>
      </trkpt>
      <trkpt lat="45.06746" lon="5.35731">
        <ele>316.66</ele>
        <time>2022-07-31T08:47:53.642Z</time>
      </trkpt>
      <trkpt lat="45.06738" lon="5.35726">
        <ele>312.57</ele>
        <time>2022-07-31T08:48:05.472Z</time>
      </trkpt>
      <trkpt lat="45.0673" lon="5.35719">
        <ele>308.5</ele>
        <time>2022-07-31T08:48:15.250Z</time>
      </trkpt>
      <trkpt lat="45.06723" lon="5.35709">
        <ele>304.66</ele>
        <time>2022-07-31T08:48:25.548Z</time>
      </trkpt>
      <trkpt lat="45.06715" lon="5.35705">
        <ele>303.13</ele>
        <time>2022-07-31T08:48:42.905Z</time>
      </trkpt>
      <trkpt lat="45.06705" lon="5.357">
        <ele>302.34</ele>
        <time>2022-07-31T08:48:52.538Z</time>
      </trkpt>
      <trkpt lat="45.06705" lon="5.35686">
        <ele>300.38</ele>
        <time>2022-07-31T08:49:02.905Z</time>
      </trkpt>
      <trkpt lat="45.06703" lon="5.35673">
        <ele>298.77</ele>
        <time>2022-07-31T08:49:19.123Z</time>
      </trkpt>
      <trkpt lat="45.06696" lon="5.35661">
        <ele>298.59</ele>
        <time>2022-07-31T08:49:28.600Z</time>
      </trkpt>
      <trkpt lat="45.06686" lon="5.35653">
        <ele>298.61</ele>
        <time>2022-07-31T08:49:37.711Z</time>
      </trkpt>
      <trkpt lat="45.06677" lon="5.3565">
        <ele>298.84</ele>
        <time>2022-07-31T08:49:48.348Z</time>
      </trkpt>
      <trkpt lat="45.06668" lon="5.35649">
        <ele>298.86</ele>
        <time>2022-07-31T08:49:57.466Z</time>
      </trkpt>
      <trkpt lat="45.06659" lon="5.35649">
        <ele>298.13</ele>
        <time>2022-07-31T08:50:08.541Z</time>
      </trkpt>
      <trkpt lat="45.06649" lon="5.35648">
        <ele>297.15</ele>
        <time>2022-07-31T08:50:18.145Z</time>
      </trkpt>
      <trkpt lat="45.0664" lon="5.35651">
        <ele>296.87</ele>
        <time>2022-07-31T08:50:32.464Z</time>
      </trkpt>
      <trkpt lat="45.06631" lon="5.35653">
        <ele>295.81</ele>
        <time>2022-07-31T08:50:43.347Z</time>
      </trkpt>
      <trkpt lat="45.0662" lon="5.35656">
        <ele>294.33</ele>
        <time>2022-07-31T08:50:53.272Z</time>
      </trkpt>
      <trkpt lat="45.06609" lon="5.3566">
        <ele>292.17</ele>
        <time>2022-07-31T08:51:03.529Z</time>
      </trkpt>
      <trkpt lat="45.06603" lon="5.3565">
        <ele>288.47</ele>
        <time>2022-07-31T08:51:12.675Z</time>
      </trkpt>
      <trkpt lat="45.06602" lon="5.35637">
        <ele>284.27</ele>
        <time>2022-07-31T08:51:25.593Z</time>
      </trkpt>
      <trkpt lat="45.06608" lon="5.35627">
        <ele>281.64</ele>
        <time>2022-07-31T08:51:38.269Z</time>
      </trkpt>
      <trkpt lat="45.06599" lon="5.35622">
        <ele>277.64</ele>
        <time>2022-07-31T08:51:54.123Z</time>
      </trkpt>
      <trkpt lat="45.0659" lon="5.35622">
        <ele>275.43</ele>
        <time>2022-07-31T08:52:05.062Z</time>
      </trkpt>
      <trkpt lat="45.06581" lon="5.35623">
        <ele>273.08</ele>
        <time>2022-07-31T08:52:14.380Z</time>
      </trkpt>
      <trkpt lat="45.06573" lon="5.35615">
        <ele>267.26</ele>
        <time>2022-07-31T08:52:34.981Z</time>
      </trkpt>
      <trkpt lat="45.06572" lon="5.35603">
        <ele>262.61</ele>
        <time>2022-07-31T08:52:49.191Z</time>
      </trkpt>
      <trkpt lat="45.06574" lon="5.3559">
        <ele>260.05</ele>
        <time>2022-07-31T08:53:18.007Z</time>
      </trkpt>
      <trkpt lat="45.06565" lon="5.35589">
        <ele>256.21</ele>
        <time>2022-07-31T08:53:28.245Z</time>
      </trkpt>
      <trkpt lat="45.06555" lon="5.35591">
        <ele>252.27</ele>
        <time>2022-07-31T08:53:43.004Z</time>
      </trkpt>
      <trkpt lat="45.06547" lon="5.35598">
        <ele>249.5</ele>
        <time>2022-07-31T08:53:54.583Z</time>
      </trkpt>
      <trkpt lat="45.0654" lon="5.35606">
        <ele>247.61</ele>
        <time>2022-07-31T08:54:08.990Z</time>
      </trkpt>
      <trkpt lat="45.06531" lon="5.35613">
        <ele>244.4</ele>
        <time>2022-07-31T08:54:43.645Z</time>
      </trkpt>
      <trkpt lat="45.06524" lon="5.35605">
        <ele>239.59</ele>
        <time>2022-07-31T08:54:59.705Z</time>
      </trkpt>
      <trkpt lat="45.06519" lon="5.35594">
        <ele>236</ele>
        <time>2022-07-31T08:56:03.000Z</time>
      </trkpt>
      <trkpt lat="45.06518" lon="5.35581">
        <ele>234.54</ele>
        <time>2022-07-31T08:56:12.246Z</time>
      </trkpt>
      <trkpt lat="45.06519" lon="5.35565">
        <ele>233.71</ele>
        <time>2022-07-31T08:56:21.325Z</time>
      </trkpt>
      <trkpt lat="45.06521" lon="5.35551">
        <ele>233.49</ele>
        <time>2022-07-31T08:56:31.563Z</time>
      </trkpt>
      <trkpt lat="45.06522" lon="5.35536">
        <ele>233.05</ele>
        <time>2022-07-31T08:56:41.344Z</time>
      </trkpt>
      <trkpt lat="45.06527" lon="5.35522">
        <ele>234.54</ele>
        <time>2022-07-31T08:56:50.709Z</time>
      </trkpt>
      <trkpt lat="45.06532" lon="5.35509">
        <ele>236.55</ele>
        <time>2022-07-31T08:56:59.922Z</time>
      </trkpt>
      <trkpt lat="45.06535" lon="5.35492">
        <ele>237.79</ele>
        <time>2022-07-31T08:57:09.352Z</time>
      </trkpt>
      <trkpt lat="45.06535" lon="5.35478">
        <ele>238.42</ele>
        <time>2022-07-31T08:57:18.691Z</time>
      </trkpt>
      <trkpt lat="45.06536" lon="5.35464">
        <ele>238.97</ele>
        <time>2022-07-31T08:57:28.070Z</time>
      </trkpt>
      <trkpt lat="45.06537" lon="5.35447">
        <ele>240.45</ele>
        <time>2022-07-31T08:57:37.410Z</time>
      </trkpt>
      <trkpt lat="45.06535" lon="5.35429">
        <ele>239.29</ele>
        <time>2022-07-31T08:57:46.967Z</time>
      </trkpt>
      <trkpt lat="45.0653" lon="5.35417">
        <ele>236.8</ele>
        <time>2022-07-31T08:57:58.535Z</time>
      </trkpt>
      <trkpt lat="45.06519" lon="5.35412">
        <ele>230.21</ele>
        <time>2022-07-31T08:58:07.646Z</time>
      </trkpt>
      <trkpt lat="45.06508" lon="5.3541">
        <ele>225.89</ele>
        <time>2022-07-31T08:58:16.985Z</time>
      </trkpt>
      <trkpt lat="45.06501" lon="5.35401">
        <ele>224.39</ele>
        <time>2022-07-31T08:58:26.105Z</time>
      </trkpt>
      <trkpt lat="45.06493" lon="5.35394">
        <ele>224.18</ele>
        <time>2022-07-31T08:58:35.189Z</time>
      </trkpt>
      <trkpt lat="45.06484" lon="5.35401">
        <ele>226.29</ele>
        <time>2022-07-31T08:58:45.145Z</time>
      </trkpt>
      <trkpt lat="45.06484" lon="5.35417">
        <ele>227.26</ele>
        <time>2022-07-31T08:58:54.581Z</time>
      </trkpt>
      <trkpt lat="45.0648" lon="5.35431">
        <ele>228.95</ele>
        <time>2022-07-31T08:59:03.999Z</time>
      </trkpt>
      <trkpt lat="45.06475" lon="5.35446">
        <ele>231.29</ele>
        <time>2022-07-31T08:59:13.611Z</time>
      </trkpt>
      <trkpt lat="45.06473" lon="5.35462">
        <ele>231.85</ele>
        <time>2022-07-31T08:59:23.149Z</time>
      </trkpt>
      <trkpt lat="45.06471" lon="5.35476">
        <ele>232.52</ele>
        <time>2022-07-31T08:59:35.369Z</time>
      </trkpt>
      <trkpt lat="45.06467" lon="5.35489">
        <ele>234.12</ele>
        <time>2022-07-31T08:59:44.545Z</time>
      </trkpt>
      <trkpt lat="45.06463" lon="5.35501">
        <ele>235.58</ele>
        <time>2022-07-31T08:59:53.685Z</time>
      </trkpt>
      <trkpt lat="45.06462" lon="5.35518">
        <ele>235.86</ele>
        <time>2022-07-31T09:00:02.843Z</time>
      </trkpt>
      <trkpt lat="45.06458" lon="5.35529">
        <ele>237.33</ele>
        <time>2022-07-31T09:00:12.060Z</time>
      </trkpt>
      <trkpt lat="45.06453" lon="5.35541">
        <ele>238.76</ele>
        <time>2022-07-31T09:00:21.295Z</time>
      </trkpt>
      <trkpt lat="45.06447" lon="5.35555">
        <ele>240.15</ele>
        <time>2022-07-31T09:00:30.641Z</time>
      </trkpt>
      <trkpt lat="45.06442" lon="5.3557">
        <ele>241.49</ele>
        <time>2022-07-31T09:00:40.243Z</time>
      </trkpt>
      <trkpt lat="45.06438" lon="5.35583">
        <ele>242.15</ele>
        <time>2022-07-31T09:00:49.670Z</time>
      </trkpt>
      <trkpt lat="45.06437" lon="5.35598">
        <ele>241.67</ele>
        <time>2022-07-31T09:00:58.769Z</time>
      </trkpt>
      <trkpt lat="45.06436" lon="5.35614">
        <ele>241.02</ele>
        <time>2022-07-31T09:01:07.949Z</time>
      </trkpt>
      <trkpt lat="45.06434" lon="5.35636">
        <ele>240.76</ele>
        <time>2022-07-31T09:01:17.113Z</time>
      </trkpt>
      <trkpt lat="45.06432" lon="5.35653">
        <ele>240.83</ele>
        <time>2022-07-31T09:01:26.245Z</time>
      </trkpt>
      <trkpt lat="45.0643" lon="5.35669">
        <ele>241.29</ele>
        <time>2022-07-31T09:01:35.465Z</time>
      </trkpt>
      <trkpt lat="45.06432" lon="5.35687">
        <ele>240.7</ele>
        <time>2022-07-31T09:01:44.801Z</time>
      </trkpt>
      <trkpt lat="45.06431" lon="5.357">
        <ele>241.46</ele>
        <time>2022-07-31T09:01:55.742Z</time>
      </trkpt>
      <trkpt lat="45.06432" lon="5.35706">
        <ele>240.4</ele>
        <extensions>
          <visugpx:TrkExtension xmlns:visugpx="https://www.visugpx.com/editgpx/">
            <visugpx:node>3</visugpx:node>
            </visugpx:TrkExtension>
        </extensions>
      </trkpt>
      <trkpt lat="45.06435" lon="5.35719">
        <ele>240.81</ele>
        <time>2022-07-31T09:02:04.889Z</time>
      </trkpt>
      <trkpt lat="45.06433" lon="5.35732">
        <ele>241.81</ele>
        <time>2022-07-31T09:02:17.108Z</time>
      </trkpt>
      <trkpt lat="45.06439" lon="5.35743">
        <ele>240.59</ele>
        <time>2022-07-31T09:02:26.326Z</time>
      </trkpt>
      <trkpt lat="45.06444" lon="5.35755">
        <ele>239.43</ele>
        <time>2022-07-31T09:02:35.541Z</time>
      </trkpt>
      <trkpt lat="45.06449" lon="5.3577">
        <ele>238.8</ele>
        <time>2022-07-31T09:02:44.543Z</time>
      </trkpt>
      <trkpt lat="45.06455" lon="5.35785">
        <ele>237.68</ele>
        <time>2022-07-31T09:02:53.703Z</time>
      </trkpt>
      <trkpt lat="45.06458" lon="5.35801">
        <ele>237.73</ele>
        <time>2022-07-31T09:03:03.022Z</time>
      </trkpt>
      <trkpt lat="45.06457" lon="5.35815">
        <ele>239.24</ele>
        <time>2022-07-31T09:03:12.422Z</time>
      </trkpt>
      <trkpt lat="45.06459" lon="5.35828">
        <ele>239.85</ele>
        <time>2022-07-31T09:03:21.431Z</time>
      </trkpt>
      <trkpt lat="45.06462" lon="5.35844">
        <ele>240.92</ele>
        <time>2022-07-31T09:03:31.031Z</time>
      </trkpt>
      <trkpt lat="45.06462" lon="5.35857">
        <ele>242.98</ele>
        <time>2022-07-31T09:03:41.248Z</time>
      </trkpt>
      <trkpt lat="45.06467" lon="5.35869">
        <ele>243.65</ele>
        <time>2022-07-31T09:03:50.540Z</time>
      </trkpt>
      <trkpt lat="45.06469" lon="5.35884">
        <ele>245.98</ele>
        <time>2022-07-31T09:03:59.607Z</time>
      </trkpt>
      <trkpt lat="45.06474" lon="5.35899">
        <ele>248.22</ele>
        <time>2022-07-31T09:04:09.118Z</time>
      </trkpt>
      <trkpt lat="45.06482" lon="5.3591">
        <ele>249.06</ele>
        <time>2022-07-31T09:04:18.168Z</time>
      </trkpt>
      <trkpt lat="45.06492" lon="5.35918">
        <ele>248.84</ele>
        <time>2022-07-31T09:04:27.726Z</time>
      </trkpt>
      <trkpt lat="45.065" lon="5.35925">
        <ele>248.55</ele>
        <time>2022-07-31T09:04:37.246Z</time>
      </trkpt>
      <trkpt lat="45.06508" lon="5.35931">
        <ele>247.89</ele>
        <time>2022-07-31T09:04:48.164Z</time>
      </trkpt>
      <trkpt lat="45.06517" lon="5.35937">
        <ele>246.5</ele>
        <time>2022-07-31T09:04:57.384Z</time>
      </trkpt>
      <trkpt lat="45.06525" lon="5.35947">
        <ele>245.83</ele>
        <time>2022-07-31T09:05:06.761Z</time>
      </trkpt>
      <trkpt lat="45.06526" lon="5.35961">
        <ele>247.87</ele>
        <time>2022-07-31T09:05:16.223Z</time>
      </trkpt>
      <trkpt lat="45.06524" lon="5.35978">
        <ele>251.55</ele>
        <time>2022-07-31T09:05:25.363Z</time>
      </trkpt>
      <trkpt lat="45.06523" lon="5.35991">
        <ele>254.2</ele>
        <time>2022-07-31T09:05:34.442Z</time>
      </trkpt>
      <trkpt lat="45.06526" lon="5.36004">
        <ele>254.61</ele>
        <time>2022-07-31T09:05:44.082Z</time>
      </trkpt>
      <trkpt lat="45.06533" lon="5.36014">
        <ele>253.02</ele>
        <time>2022-07-31T09:05:53.469Z</time>
      </trkpt>
      <trkpt lat="45.06538" lon="5.3603">
        <ele>252.5</ele>
        <time>2022-07-31T09:06:03.369Z</time>
      </trkpt>
      <trkpt lat="45.06543" lon="5.36045">
        <ele>251.75</ele>
        <time>2022-07-31T09:06:13.567Z</time>
      </trkpt>
      <trkpt lat="45.06546" lon="5.36059">
        <ele>251.55</ele>
        <time>2022-07-31T09:06:23.585Z</time>
      </trkpt>
      <trkpt lat="45.06547" lon="5.36071">
        <ele>251.57</ele>
        <time>2022-07-31T09:06:33.288Z</time>
      </trkpt>
      <trkpt lat="45.06548" lon="5.36085">
        <ele>251.28</ele>
        <time>2022-07-31T09:06:43.605Z</time>
      </trkpt>
      <trkpt lat="45.06554" lon="5.36097">
        <ele>247.69</ele>
        <time>2022-07-31T09:06:53.126Z</time>
      </trkpt>
      <trkpt lat="45.0655" lon="5.36112">
        <ele>248.99</ele>
        <time>2022-07-31T09:07:02.505Z</time>
      </trkpt>
      <trkpt lat="45.06545" lon="5.36125">
        <ele>251.12</ele>
        <time>2022-07-31T09:07:11.662Z</time>
      </trkpt>
      <trkpt lat="45.06537" lon="5.36136">
        <ele>254.61</ele>
        <time>2022-07-31T09:07:21.464Z</time>
      </trkpt>
      <trkpt lat="45.06531" lon="5.36147">
        <ele>257.52</ele>
        <time>2022-07-31T09:07:41.869Z</time>
      </trkpt>
      <trkpt lat="45.06522" lon="5.36161">
        <ele>262.08</ele>
        <time>2022-07-31T09:07:51.010Z</time>
      </trkpt>
      <trkpt lat="45.06515" lon="5.36176">
        <ele>265</ele>
        <time>2022-07-31T09:08:00.075Z</time>
      </trkpt>
      <trkpt lat="45.06512" lon="5.36188">
        <ele>265.95</ele>
        <time>2022-07-31T09:08:09.208Z</time>
      </trkpt>
      <trkpt lat="45.06511" lon="5.36201">
        <ele>265.48</ele>
        <time>2022-07-31T09:08:19.426Z</time>
      </trkpt>
      <trkpt lat="45.06516" lon="5.36219">
        <ele>261.13</ele>
        <time>2022-07-31T09:08:28.824Z</time>
      </trkpt>
      <trkpt lat="45.06515" lon="5.36232">
        <ele>260.35</ele>
        <time>2022-07-31T09:08:38.587Z</time>
      </trkpt>
      <trkpt lat="45.06511" lon="5.36246">
        <ele>260.39</ele>
        <time>2022-07-31T09:08:55.940Z</time>
      </trkpt>
      <trkpt lat="45.06508" lon="5.36273">
        <ele>255.77</ele>
        <time>2022-07-31T09:09:05.072Z</time>
      </trkpt>
      <trkpt lat="45.06505" lon="5.3629">
        <ele>252.41</ele>
        <time>2022-07-31T09:09:14.190Z</time>
      </trkpt>
      <trkpt lat="45.06502" lon="5.36303">
        <ele>250.27</ele>
        <time>2022-07-31T09:09:24.930Z</time>
      </trkpt>
      <trkpt lat="45.06497" lon="5.36315">
        <ele>248.74</ele>
        <time>2022-07-31T09:09:33.967Z</time>
      </trkpt>
      <trkpt lat="45.06495" lon="5.36331">
        <ele>246.09</ele>
        <time>2022-07-31T09:09:43.029Z</time>
      </trkpt>
      <trkpt lat="45.06491" lon="5.36343">
        <ele>245.66</ele>
        <time>2022-07-31T09:09:52.590Z</time>
      </trkpt>
      <trkpt lat="45.06486" lon="5.36355">
        <ele>245.38</ele>
        <time>2022-07-31T09:10:02.025Z</time>
      </trkpt>
      <trkpt lat="45.0648" lon="5.36366">
        <ele>245.99</ele>
        <time>2022-07-31T09:10:11.423Z</time>
      </trkpt>
      <trkpt lat="45.06474" lon="5.36376">
        <ele>246.18</ele>
        <time>2022-07-31T09:10:20.702Z</time>
      </trkpt>
      <trkpt lat="45.06464" lon="5.3639">
        <ele>246.64</ele>
        <time>2022-07-31T09:10:30.004Z</time>
      </trkpt>
      <trkpt lat="45.06456" lon="5.36397">
        <ele>248.45</ele>
        <time>2022-07-31T09:10:39.282Z</time>
      </trkpt>
      <trkpt lat="45.06447" lon="5.364">
        <ele>251.67</ele>
        <time>2022-07-31T09:10:48.641Z</time>
      </trkpt>
      <trkpt lat="45.06435" lon="5.36409">
        <ele>253.61</ele>
        <time>2022-07-31T09:10:58.538Z</time>
      </trkpt>
      <trkpt lat="45.0643" lon="5.36425">
        <ele>251.05</ele>
        <time>2022-07-31T09:11:07.808Z</time>
      </trkpt>
      <trkpt lat="45.06427" lon="5.36439">
        <ele>250.15</ele>
        <time>2022-07-31T09:11:17.193Z</time>
      </trkpt>
      <trkpt lat="45.06427" lon="5.36461">
        <ele>248.68</ele>
        <time>2022-07-31T09:11:26.590Z</time>
      </trkpt>
      <trkpt lat="45.06433" lon="5.36475">
        <ele>246.59</ele>
        <time>2022-07-31T09:11:36.093Z</time>
      </trkpt>
      <trkpt lat="45.06438" lon="5.3649">
        <ele>245.33</ele>
        <time>2022-07-31T09:11:46.185Z</time>
      </trkpt>
      <trkpt lat="45.06442" lon="5.36503">
        <ele>244.32</ele>
        <time>2022-07-31T09:11:55.705Z</time>
      </trkpt>
      <trkpt lat="45.06445" lon="5.36519">
        <ele>243.84</ele>
        <time>2022-07-31T09:12:05.244Z</time>
      </trkpt>
      <trkpt lat="45.0645" lon="5.36535">
        <ele>243.61</ele>
        <time>2022-07-31T09:12:14.663Z</time>
      </trkpt>
      <trkpt lat="45.06452" lon="5.36548">
        <ele>244.12</ele>
        <time>2022-07-31T09:12:24.701Z</time>
      </trkpt>
      <trkpt lat="45.06454" lon="5.36565">
        <ele>245.04</ele>
        <time>2022-07-31T09:12:34.192Z</time>
      </trkpt>
      <trkpt lat="45.06459" lon="5.36582">
        <ele>245.13</ele>
        <time>2022-07-31T09:12:43.649Z</time>
      </trkpt>
      <trkpt lat="45.06464" lon="5.36597">
        <ele>244.93</ele>
        <time>2022-07-31T09:12:53.169Z</time>
      </trkpt>
      <trkpt lat="45.06467" lon="5.3661">
        <ele>244.87</ele>
        <time>2022-07-31T09:13:02.629Z</time>
      </trkpt>
      <trkpt lat="45.0647" lon="5.36625">
        <ele>244.77</ele>
        <time>2022-07-31T09:13:12.068Z</time>
      </trkpt>
      <trkpt lat="45.06473" lon="5.36639">
        <ele>244.7</ele>
        <time>2022-07-31T09:13:22.086Z</time>
      </trkpt>
      <trkpt lat="45.06475" lon="5.36656">
        <ele>244.48</ele>
        <time>2022-07-31T09:13:31.550Z</time>
      </trkpt>
      <trkpt lat="45.06479" lon="5.36668">
        <ele>243.62</ele>
        <time>2022-07-31T09:13:51.968Z</time>
      </trkpt>
      <trkpt lat="45.06481" lon="5.36684">
        <ele>243.11</ele>
        <time>2022-07-31T09:14:01.126Z</time>
      </trkpt>
      <trkpt lat="45.06482" lon="5.36705">
        <ele>242.44</ele>
        <time>2022-07-31T09:14:10.386Z</time>
      </trkpt>
      <trkpt lat="45.06478" lon="5.36724">
        <ele>242.6</ele>
        <time>2022-07-31T09:14:19.461Z</time>
      </trkpt>
      <trkpt lat="45.0647" lon="5.36738">
        <ele>243.75</ele>
        <time>2022-07-31T09:14:29.020Z</time>
      </trkpt>
      <trkpt lat="45.06462" lon="5.36748">
        <ele>245.24</ele>
        <time>2022-07-31T09:14:38.091Z</time>
      </trkpt>
      <trkpt lat="45.06451" lon="5.36752">
        <ele>247.69</ele>
        <time>2022-07-31T09:14:47.537Z</time>
      </trkpt>
      <trkpt lat="45.0644" lon="5.36752">
        <ele>250.32</ele>
        <time>2022-07-31T09:14:57.227Z</time>
      </trkpt>
      <trkpt lat="45.06432" lon="5.36759">
        <ele>251.74</ele>
        <time>2022-07-31T09:15:06.725Z</time>
      </trkpt>
      <trkpt lat="45.06432" lon="5.36776">
        <ele>250.69</ele>
        <time>2022-07-31T09:15:16.089Z</time>
      </trkpt>
      <trkpt lat="45.06433" lon="5.36796">
        <ele>248.72</ele>
        <time>2022-07-31T09:15:26.288Z</time>
      </trkpt>
      <trkpt lat="45.0643" lon="5.3681">
        <ele>248.24</ele>
        <time>2022-07-31T09:15:35.382Z</time>
      </trkpt>
      <trkpt lat="45.0642" lon="5.36824">
        <ele>249.21</ele>
        <time>2022-07-31T09:15:44.590Z</time>
      </trkpt>
      <trkpt lat="45.06413" lon="5.36835">
        <ele>249.74</ele>
        <time>2022-07-31T09:15:53.710Z</time>
      </trkpt>
      <trkpt lat="45.06407" lon="5.36847">
        <ele>249.97</ele>
        <time>2022-07-31T09:16:05.691Z</time>
      </trkpt>
      <trkpt lat="45.06404" lon="5.36859">
        <ele>249.61</ele>
        <time>2022-07-31T09:16:20.168Z</time>
      </trkpt>
      <trkpt lat="45.06403" lon="5.36873">
        <ele>248.37</ele>
        <time>2022-07-31T09:16:29.488Z</time>
      </trkpt>
      <trkpt lat="45.06402" lon="5.36886">
        <ele>247.16</ele>
        <time>2022-07-31T09:16:38.567Z</time>
      </trkpt>
      <trkpt lat="45.06401" lon="5.36899">
        <ele>246.22</ele>
        <time>2022-07-31T09:16:47.926Z</time>
      </trkpt>
      <trkpt lat="45.064" lon="5.36912">
        <ele>245.44</ele>
        <time>2022-07-31T09:16:57.145Z</time>
      </trkpt>
      <trkpt lat="45.06399" lon="5.36926">
        <ele>244.47</ele>
        <time>2022-07-31T09:17:06.541Z</time>
      </trkpt>
      <trkpt lat="45.06397" lon="5.36942">
        <ele>243.68</ele>
        <time>2022-07-31T09:17:16.063Z</time>
      </trkpt>
      <trkpt lat="45.06395" lon="5.36957">
        <ele>243</ele>
        <time>2022-07-31T09:17:25.680Z</time>
      </trkpt>
      <trkpt lat="45.06395" lon="5.36972">
        <ele>241.85</ele>
        <time>2022-07-31T09:17:35.190Z</time>
      </trkpt>
      <trkpt lat="45.06394" lon="5.3699">
        <ele>240.57</ele>
        <time>2022-07-31T09:17:44.711Z</time>
      </trkpt>
      <trkpt lat="45.06395" lon="5.37004">
        <ele>239.09</ele>
        <time>2022-07-31T09:17:54.388Z</time>
      </trkpt>
      <trkpt lat="45.06393" lon="5.37017">
        <ele>239.4</ele>
        <time>2022-07-31T09:18:03.907Z</time>
      </trkpt>
      <trkpt lat="45.0639" lon="5.3703">
        <ele>240.34</ele>
        <time>2022-07-31T09:18:13.645Z</time>
      </trkpt>
      <trkpt lat="45.06386" lon="5.37041">
        <ele>241.89</ele>
        <time>2022-07-31T09:18:23.185Z</time>
      </trkpt>
      <trkpt lat="45.06383" lon="5.37057">
        <ele>242.55</ele>
        <time>2022-07-31T09:18:32.565Z</time>
      </trkpt>
      <trkpt lat="45.06377" lon="5.37069">
        <ele>244.51</ele>
        <time>2022-07-31T09:18:41.905Z</time>
      </trkpt>
      <trkpt lat="45.0637" lon="5.37079">
        <ele>247.12</ele>
        <time>2022-07-31T09:18:51.291Z</time>
      </trkpt>
      <trkpt lat="45.06365" lon="5.37094">
        <ele>248.58</ele>
        <time>2022-07-31T09:19:01.460Z</time>
      </trkpt>
      <trkpt lat="45.06365" lon="5.37111">
        <ele>247.64</ele>
        <time>2022-07-31T09:19:11.670Z</time>
      </trkpt>
      <trkpt lat="45.06369" lon="5.37124">
        <ele>245.73</ele>
        <time>2022-07-31T09:19:20.730Z</time>
      </trkpt>
      <trkpt lat="45.06369" lon="5.37137">
        <ele>245.82</ele>
        <time>2022-07-31T09:19:30.089Z</time>
      </trkpt>
      <trkpt lat="45.06367" lon="5.37149">
        <ele>246.12</ele>
        <time>2022-07-31T09:19:42.627Z</time>
      </trkpt>
      <trkpt lat="45.06363" lon="5.37161">
        <ele>247.48</ele>
        <time>2022-07-31T09:19:51.804Z</time>
      </trkpt>
      <trkpt lat="45.06355" lon="5.37171">
        <ele>250.38</ele>
        <time>2022-07-31T09:20:01.391Z</time>
      </trkpt>
      <trkpt lat="45.0635" lon="5.37182">
        <ele>251.73</ele>
        <time>2022-07-31T09:20:18.003Z</time>
      </trkpt>
      <trkpt lat="45.06348" lon="5.372">
        <ele>250.83</ele>
        <time>2022-07-31T09:20:27.143Z</time>
      </trkpt>
      <trkpt lat="45.06347" lon="5.37213">
        <ele>250.26</ele>
        <time>2022-07-31T09:20:36.283Z</time>
      </trkpt>
      <trkpt lat="45.06353" lon="5.37227">
        <ele>247.35</ele>
        <time>2022-07-31T09:20:45.682Z</time>
      </trkpt>
      <trkpt lat="45.06359" lon="5.3724">
        <ele>244.97</ele>
        <time>2022-07-31T09:20:55.109Z</time>
      </trkpt>
      <trkpt lat="45.0636" lon="5.37256">
        <ele>244.8</ele>
        <time>2022-07-31T09:21:04.308Z</time>
      </trkpt>
      <trkpt lat="45.06358" lon="5.37271">
        <ele>246.24</ele>
        <time>2022-07-31T09:21:13.349Z</time>
      </trkpt>
      <trkpt lat="45.06357" lon="5.37287">
        <ele>247.78</ele>
        <time>2022-07-31T09:21:22.551Z</time>
      </trkpt>
      <trkpt lat="45.06362" lon="5.37302">
        <ele>247.75</ele>
        <time>2022-07-31T09:21:31.705Z</time>
      </trkpt>
      <trkpt lat="45.06367" lon="5.37316">
        <ele>247.74</ele>
        <time>2022-07-31T09:21:40.964Z</time>
      </trkpt>
      <trkpt lat="45.06367" lon="5.37331">
        <ele>249.26</ele>
        <time>2022-07-31T09:21:50.264Z</time>
      </trkpt>
      <trkpt lat="45.06365" lon="5.37344">
        <ele>251.8</ele>
        <time>2022-07-31T09:22:00.291Z</time>
      </trkpt>
      <trkpt lat="45.06368" lon="5.37361">
        <ele>253.33</ele>
        <time>2022-07-31T09:22:09.629Z</time>
      </trkpt>
      <trkpt lat="45.06375" lon="5.37372">
        <ele>252.21</ele>
        <time>2022-07-31T09:22:18.690Z</time>
      </trkpt>
      <trkpt lat="45.06383" lon="5.37379">
        <ele>250.19</ele>
        <time>2022-07-31T09:22:28.065Z</time>
      </trkpt>
      <trkpt lat="45.06392" lon="5.37384">
        <ele>247.94</ele>
        <time>2022-07-31T09:22:37.306Z</time>
      </trkpt>
      <trkpt lat="45.06399" lon="5.37394">
        <ele>247.24</ele>
        <time>2022-07-31T09:22:46.367Z</time>
      </trkpt>
      <trkpt lat="45.06407" lon="5.37406">
        <ele>247.15</ele>
        <time>2022-07-31T09:22:55.663Z</time>
      </trkpt>
      <trkpt lat="45.06413" lon="5.37417">
        <ele>248.02</ele>
        <time>2022-07-31T09:23:04.944Z</time>
      </trkpt>
      <trkpt lat="45.06418" lon="5.37427">
        <ele>249.63</ele>
        <time>2022-07-31T09:23:18.903Z</time>
      </trkpt>
      <trkpt lat="45.06428" lon="5.37438">
        <ele>250.8</ele>
        <time>2022-07-31T09:23:28.362Z</time>
      </trkpt>
      <trkpt lat="45.06437" lon="5.37443">
        <ele>250.37</ele>
        <time>2022-07-31T09:23:37.432Z</time>
      </trkpt>
      <trkpt lat="45.06446" lon="5.3745">
        <ele>250.48</ele>
        <time>2022-07-31T09:23:46.827Z</time>
      </trkpt>
      <trkpt lat="45.06455" lon="5.3746">
        <ele>250.97</ele>
        <time>2022-07-31T09:23:56.312Z</time>
      </trkpt>
      <trkpt lat="45.06464" lon="5.37469">
        <ele>250.39</ele>
        <time>2022-07-31T09:24:05.446Z</time>
      </trkpt>
      <trkpt lat="45.06475" lon="5.37479">
        <ele>248.67</ele>
        <time>2022-07-31T09:24:14.804Z</time>
      </trkpt>
      <trkpt lat="45.06482" lon="5.37491">
        <ele>248.12</ele>
        <time>2022-07-31T09:24:24.104Z</time>
      </trkpt>
      <trkpt lat="45.06486" lon="5.37504">
        <ele>248.78</ele>
        <time>2022-07-31T09:24:33.445Z</time>
      </trkpt>
      <trkpt lat="45.06492" lon="5.37518">
        <ele>249.28</ele>
        <time>2022-07-31T09:24:42.910Z</time>
      </trkpt>
      <trkpt lat="45.06498" lon="5.3753">
        <ele>249.27</ele>
        <time>2022-07-31T09:24:52.150Z</time>
      </trkpt>
      <trkpt lat="45.06504" lon="5.37539">
        <ele>249.04</ele>
        <time>2022-07-31T09:25:02.287Z</time>
      </trkpt>
      <trkpt lat="45.06509" lon="5.37551">
        <ele>250.35</ele>
        <time>2022-07-31T09:25:13.847Z</time>
      </trkpt>
      <trkpt lat="45.06514" lon="5.37564">
        <ele>251.91</ele>
        <time>2022-07-31T09:25:23.587Z</time>
      </trkpt>
      <trkpt lat="45.06519" lon="5.37577">
        <ele>253.95</ele>
        <time>2022-07-31T09:25:32.724Z</time>
      </trkpt>
      <trkpt lat="45.06528" lon="5.37588">
        <ele>254.95</ele>
        <time>2022-07-31T09:25:42.225Z</time>
      </trkpt>
      <trkpt lat="45.06538" lon="5.37598">
        <ele>255.29</ele>
        <time>2022-07-31T09:25:51.525Z</time>
      </trkpt>
      <trkpt lat="45.06546" lon="5.3761">
        <ele>256.28</ele>
        <time>2022-07-31T09:26:00.966Z</time>
      </trkpt>
      <trkpt lat="45.06552" lon="5.37621">
        <ele>257.4</ele>
        <time>2022-07-31T09:26:10.141Z</time>
      </trkpt>
      <trkpt lat="45.0656" lon="5.37631">
        <ele>257.45</ele>
        <time>2022-07-31T09:26:19.232Z</time>
      </trkpt>
      <trkpt lat="45.06567" lon="5.37641">
        <ele>257.39</ele>
        <time>2022-07-31T09:26:28.538Z</time>
      </trkpt>
      <trkpt lat="45.06575" lon="5.37649">
        <ele>256.44</ele>
        <time>2022-07-31T09:26:37.986Z</time>
      </trkpt>
      <trkpt lat="45.06581" lon="5.3766">
        <ele>256.58</ele>
        <time>2022-07-31T09:26:47.105Z</time>
      </trkpt>
      <trkpt lat="45.0659" lon="5.37671">
        <ele>255.61</ele>
        <time>2022-07-31T09:26:56.365Z</time>
      </trkpt>
      <trkpt lat="45.06598" lon="5.37681">
        <ele>254.9</ele>
        <time>2022-07-31T09:27:05.885Z</time>
      </trkpt>
      <trkpt lat="45.06602" lon="5.37692">
        <ele>255.28</ele>
        <time>2022-07-31T09:27:15.524Z</time>
      </trkpt>
      <trkpt lat="45.06613" lon="5.37706">
        <ele>253.77</ele>
        <time>2022-07-31T09:27:25.264Z</time>
      </trkpt>
      <trkpt lat="45.0662" lon="5.37721">
        <ele>252.87</ele>
        <time>2022-07-31T09:27:34.464Z</time>
      </trkpt>
      <trkpt lat="45.06626" lon="5.37733">
        <ele>252.22</ele>
        <time>2022-07-31T09:27:44.242Z</time>
      </trkpt>
      <trkpt lat="45.06631" lon="5.37747">
        <ele>251.37</ele>
        <time>2022-07-31T09:27:53.382Z</time>
      </trkpt>
      <trkpt lat="45.06633" lon="5.37765">
        <ele>252.48</ele>
        <time>2022-07-31T09:28:03.552Z</time>
      </trkpt>
      <trkpt lat="45.06635" lon="5.37779">
        <ele>252.59</ele>
        <time>2022-07-31T09:28:12.610Z</time>
      </trkpt>
      <trkpt lat="45.06638" lon="5.37795">
        <ele>252.15</ele>
        <time>2022-07-31T09:28:22.170Z</time>
      </trkpt>
      <trkpt lat="45.06644" lon="5.37809">
        <ele>249.89</ele>
        <time>2022-07-31T09:28:31.468Z</time>
      </trkpt>
      <trkpt lat="45.06646" lon="5.37825">
        <ele>249.73</ele>
        <time>2022-07-31T09:28:40.554Z</time>
      </trkpt>
      <trkpt lat="45.0664" lon="5.37842">
        <ele>254.66</ele>
        <time>2022-07-31T09:28:49.727Z</time>
      </trkpt>
      <trkpt lat="45.06645" lon="5.37858">
        <ele>251.64</ele>
        <time>2022-07-31T09:28:59.145Z</time>
      </trkpt>
      <trkpt lat="45.06647" lon="5.37874">
        <ele>251.11</ele>
        <time>2022-07-31T09:29:08.589Z</time>
      </trkpt>
      <trkpt lat="45.06648" lon="5.37889">
        <ele>250.48</ele>
        <time>2022-07-31T09:29:17.684Z</time>
      </trkpt>
      <trkpt lat="45.0665" lon="5.37903">
        <ele>248.71</ele>
        <time>2022-07-31T09:29:27.222Z</time>
      </trkpt>
      <trkpt lat="45.06653" lon="5.37915">
        <ele>246.72</ele>
        <time>2022-07-31T09:30:41.466Z</time>
      </trkpt>
      <trkpt lat="45.06652" lon="5.37927">
        <ele>247.46</ele>
        <time>2022-07-31T09:32:46.622Z</time>
      </trkpt>
      <trkpt lat="45.06658" lon="5.37941">
        <ele>243.47</ele>
        <time>2022-07-31T09:32:56.021Z</time>
      </trkpt>
      <trkpt lat="45.06661" lon="5.37954">
        <ele>241.84</ele>
        <time>2022-07-31T09:33:07.296Z</time>
      </trkpt>
      <trkpt lat="45.06665" lon="5.37967">
        <ele>240.4</ele>
        <time>2022-07-31T09:33:16.785Z</time>
      </trkpt>
      <trkpt lat="45.06665" lon="5.3798">
        <ele>240.62</ele>
        <time>2022-07-31T09:33:26.465Z</time>
      </trkpt>
      <trkpt lat="45.06657" lon="5.37985">
        <ele>243.19</ele>
        <time>2022-07-31T09:33:36.247Z</time>
      </trkpt>
      <trkpt lat="45.06646" lon="5.37989">
        <ele>248.14</ele>
        <time>2022-07-31T09:33:46.543Z</time>
      </trkpt>
      <trkpt lat="45.06646" lon="5.38002">
        <ele>248.56</ele>
        <time>2022-07-31T09:34:01.999Z</time>
      </trkpt>
      <trkpt lat="45.06654" lon="5.38008">
        <ele>245.22</ele>
        <time>2022-07-31T09:34:45.999Z</time>
      </trkpt>
      <trkpt lat="45.06651" lon="5.38022">
        <ele>247.79</ele>
        <time>2022-07-31T09:35:06.623Z</time>
      </trkpt>
      <trkpt lat="45.06657" lon="5.38032">
        <ele>246.23</ele>
        <time>2022-07-31T09:35:19.142Z</time>
      </trkpt>
      <trkpt lat="45.06661" lon="5.38043">
        <ele>245.94</ele>
        <time>2022-07-31T09:35:40.661Z</time>
      </trkpt>
      <trkpt lat="45.06661" lon="5.38056">
        <ele>247.36</ele>
        <time>2022-07-31T09:35:50.331Z</time>
      </trkpt>
      <trkpt lat="45.06662" lon="5.3807">
        <ele>248.55</ele>
        <time>2022-07-31T09:36:00.689Z</time>
      </trkpt>
      <trkpt lat="45.06663" lon="5.38084">
        <ele>249.44</ele>
        <time>2022-07-31T09:36:12.209Z</time>
      </trkpt>
      <trkpt lat="45.06664" lon="5.38097">
        <ele>250.27</ele>
        <time>2022-07-31T09:36:24.185Z</time>
      </trkpt>
      <trkpt lat="45.06665" lon="5.3811">
        <ele>250.93</ele>
        <time>2022-07-31T09:36:36.304Z</time>
      </trkpt>
      <trkpt lat="45.06669" lon="5.38123">
        <ele>250.14</ele>
        <time>2022-07-31T09:36:45.421Z</time>
      </trkpt>
      <trkpt lat="45.06672" lon="5.38137">
        <ele>250.18</ele>
        <time>2022-07-31T09:36:54.947Z</time>
      </trkpt>
      <trkpt lat="45.06674" lon="5.3815">
        <ele>250.3</ele>
        <time>2022-07-31T09:37:04.413Z</time>
      </trkpt>
      <trkpt lat="45.06674" lon="5.38163">
        <ele>250.84</ele>
        <time>2022-07-31T09:37:15.649Z</time>
      </trkpt>
      <trkpt lat="45.06674" lon="5.38181">
        <ele>251.68</ele>
        <time>2022-07-31T09:37:25.475Z</time>
      </trkpt>
      <trkpt lat="45.06673" lon="5.38195">
        <ele>252.11</ele>
        <time>2022-07-31T09:37:34.928Z</time>
      </trkpt>
      <trkpt lat="45.06673" lon="5.38213">
        <ele>252.81</ele>
        <time>2022-07-31T09:37:44.387Z</time>
      </trkpt>
      <trkpt lat="45.06672" lon="5.38231">
        <ele>253.49</ele>
        <time>2022-07-31T09:37:53.907Z</time>
      </trkpt>
      <trkpt lat="45.06672" lon="5.38246">
        <ele>254.27</ele>
        <time>2022-07-31T09:38:03.268Z</time>
      </trkpt>
      <trkpt lat="45.06672" lon="5.38259">
        <ele>255.38</ele>
        <time>2022-07-31T09:38:12.843Z</time>
      </trkpt>
      <trkpt lat="45.06673" lon="5.38274">
        <ele>255.8</ele>
        <time>2022-07-31T09:38:22.183Z</time>
      </trkpt>
      <trkpt lat="45.06675" lon="5.38288">
        <ele>256.47</ele>
        <time>2022-07-31T09:38:31.681Z</time>
      </trkpt>
      <trkpt lat="45.06679" lon="5.38305">
        <ele>255.97</ele>
        <time>2022-07-31T09:38:40.710Z</time>
      </trkpt>
      <trkpt lat="45.06682" lon="5.38323">
        <ele>256.81</ele>
        <time>2022-07-31T09:38:49.828Z</time>
      </trkpt>
      <trkpt lat="45.06684" lon="5.38337">
        <ele>257.06</ele>
        <time>2022-07-31T09:38:59.349Z</time>
      </trkpt>
      <trkpt lat="45.0669" lon="5.38353">
        <ele>256.44</ele>
        <time>2022-07-31T09:39:08.887Z</time>
      </trkpt>
      <trkpt lat="45.06696" lon="5.38367">
        <ele>255.61</ele>
        <time>2022-07-31T09:39:18.047Z</time>
      </trkpt>
      <trkpt lat="45.06699" lon="5.38383">
        <ele>255.88</ele>
        <time>2022-07-31T09:39:27.446Z</time>
      </trkpt>
      <trkpt lat="45.06705" lon="5.38393">
        <ele>254</ele>
        <time>2022-07-31T09:39:36.531Z</time>
      </trkpt>
      <trkpt lat="45.06709" lon="5.38406">
        <ele>252.81</ele>
        <time>2022-07-31T09:39:45.661Z</time>
      </trkpt>
      <trkpt lat="45.06713" lon="5.3842">
        <ele>251.5</ele>
        <time>2022-07-31T09:39:55.082Z</time>
      </trkpt>
      <trkpt lat="45.06713" lon="5.38436">
        <ele>252.1</ele>
        <time>2022-07-31T09:40:04.272Z</time>
      </trkpt>
      <trkpt lat="45.06713" lon="5.38453">
        <ele>253.05</ele>
        <time>2022-07-31T09:40:13.470Z</time>
      </trkpt>
      <trkpt lat="45.06713" lon="5.38467">
        <ele>253.67</ele>
        <time>2022-07-31T09:40:22.696Z</time>
      </trkpt>
      <trkpt lat="45.06709" lon="5.38482">
        <ele>256</ele>
        <time>2022-07-31T09:40:32.248Z</time>
      </trkpt>
      <trkpt lat="45.06704" lon="5.38494">
        <ele>258.96</ele>
        <time>2022-07-31T09:40:41.466Z</time>
      </trkpt>
      <trkpt lat="45.067" lon="5.38506">
        <ele>260.62</ele>
        <time>2022-07-31T09:40:56.439Z</time>
      </trkpt>
      <trkpt lat="45.06695" lon="5.38524">
        <ele>261.82</ele>
        <time>2022-07-31T09:41:05.663Z</time>
      </trkpt>
      <trkpt lat="45.06689" lon="5.3854">
        <ele>263.09</ele>
        <time>2022-07-31T09:41:15.122Z</time>
      </trkpt>
      <trkpt lat="45.06685" lon="5.38557">
        <ele>262.23</ele>
        <time>2022-07-31T09:41:24.662Z</time>
      </trkpt>
      <trkpt lat="45.06681" lon="5.38569">
        <ele>262.09</ele>
        <time>2022-07-31T09:41:34.182Z</time>
      </trkpt>
      <trkpt lat="45.06677" lon="5.38582">
        <ele>261.88</ele>
        <time>2022-07-31T09:41:43.569Z</time>
      </trkpt>
      <trkpt lat="45.06673" lon="5.38599">
        <ele>261.28</ele>
        <time>2022-07-31T09:41:52.650Z</time>
      </trkpt>
      <trkpt lat="45.06671" lon="5.38614">
        <ele>259.95</ele>
        <time>2022-07-31T09:42:02.546Z</time>
      </trkpt>
      <trkpt lat="45.06668" lon="5.38628">
        <ele>258.79</ele>
        <time>2022-07-31T09:42:11.625Z</time>
      </trkpt>
      <trkpt lat="45.06669" lon="5.38642">
        <ele>255.85</ele>
        <time>2022-07-31T09:42:27.043Z</time>
      </trkpt>
      <trkpt lat="45.06666" lon="5.38659">
        <ele>254.18</ele>
        <time>2022-07-31T09:42:36.144Z</time>
      </trkpt>
      <trkpt lat="45.06662" lon="5.38675">
        <ele>254.17</ele>
        <time>2022-07-31T09:42:45.386Z</time>
      </trkpt>
      <trkpt lat="45.06661" lon="5.38689">
        <ele>253.43</ele>
        <time>2022-07-31T09:42:56.942Z</time>
      </trkpt>
      <trkpt lat="45.06658" lon="5.3871">
        <ele>253.38</ele>
        <time>2022-07-31T09:43:06.031Z</time>
      </trkpt>
      <trkpt lat="45.06653" lon="5.38729">
        <ele>255.01</ele>
        <time>2022-07-31T09:43:15.371Z</time>
      </trkpt>
      <trkpt lat="45.06647" lon="5.38744">
        <ele>258.18</ele>
        <time>2022-07-31T09:43:25.072Z</time>
      </trkpt>
      <trkpt lat="45.0664" lon="5.38757">
        <ele>260.84</ele>
        <time>2022-07-31T09:43:34.367Z</time>
      </trkpt>
      <trkpt lat="45.06635" lon="5.38772">
        <ele>261.71</ele>
        <time>2022-07-31T09:43:43.431Z</time>
      </trkpt>
      <trkpt lat="45.0663" lon="5.3879">
        <ele>259.54</ele>
        <time>2022-07-31T09:43:52.524Z</time>
      </trkpt>
      <trkpt lat="45.06623" lon="5.388">
        <ele>259.43</ele>
        <time>2022-07-31T09:44:01.725Z</time>
      </trkpt>
      <trkpt lat="45.06616" lon="5.38808">
        <ele>259.5</ele>
        <time>2022-07-31T09:44:10.864Z</time>
      </trkpt>
      <trkpt lat="45.0661" lon="5.38817">
        <ele>258.39</ele>
        <time>2022-07-31T09:44:20.404Z</time>
      </trkpt>
      <trkpt lat="45.06603" lon="5.38826">
        <ele>257.42</ele>
        <time>2022-07-31T09:44:29.923Z</time>
      </trkpt>
      <trkpt lat="45.06595" lon="5.38834">
        <ele>257.97</ele>
        <time>2022-07-31T09:44:39.042Z</time>
      </trkpt>
      <trkpt lat="45.06586" lon="5.38849">
        <ele>257.71</ele>
        <time>2022-07-31T09:44:48.322Z</time>
      </trkpt>
      <trkpt lat="45.06578" lon="5.38859">
        <ele>259.11</ele>
        <time>2022-07-31T09:44:57.668Z</time>
      </trkpt>
      <trkpt lat="45.06569" lon="5.38867">
        <ele>261.64</ele>
        <time>2022-07-31T09:45:07.049Z</time>
      </trkpt>
      <trkpt lat="45.0656" lon="5.38876">
        <ele>264.43</ele>
        <time>2022-07-31T09:45:16.286Z</time>
      </trkpt>
      <trkpt lat="45.06555" lon="5.3889">
        <ele>263.29</ele>
        <time>2022-07-31T09:45:25.744Z</time>
      </trkpt>
      <trkpt lat="45.06552" lon="5.38904">
        <ele>260.9</ele>
        <time>2022-07-31T09:45:35.126Z</time>
      </trkpt>
      <trkpt lat="45.0655" lon="5.38921">
        <ele>257.99</ele>
        <time>2022-07-31T09:45:45.262Z</time>
      </trkpt>
      <trkpt lat="45.06545" lon="5.38936">
        <ele>257.4</ele>
        <time>2022-07-31T09:45:54.301Z</time>
      </trkpt>
      <trkpt lat="45.06541" lon="5.38953">
        <ele>257.26</ele>
        <time>2022-07-31T09:46:03.661Z</time>
      </trkpt>
      <trkpt lat="45.06536" lon="5.38967">
        <ele>258.31</ele>
        <time>2022-07-31T09:46:13.241Z</time>
      </trkpt>
      <trkpt lat="45.0653" lon="5.38979">
        <ele>260.23</ele>
        <time>2022-07-31T09:46:22.551Z</time>
      </trkpt>
      <trkpt lat="45.06525" lon="5.38992">
        <ele>261.85</ele>
        <time>2022-07-31T09:46:31.989Z</time>
      </trkpt>
      <trkpt lat="45.06523" lon="5.39008">
        <ele>262.18</ele>
        <time>2022-07-31T09:46:41.109Z</time>
      </trkpt>
      <trkpt lat="45.06526" lon="5.39022">
        <ele>261.38</ele>
        <time>2022-07-31T09:46:50.326Z</time>
      </trkpt>
      <trkpt lat="45.06528" lon="5.39038">
        <ele>260.72</ele>
        <time>2022-07-31T09:46:59.866Z</time>
      </trkpt>
      <trkpt lat="45.06528" lon="5.39054">
        <ele>261.41</ele>
        <time>2022-07-31T09:47:09.363Z</time>
      </trkpt>
      <trkpt lat="45.06528" lon="5.39071">
        <ele>261.82</ele>
        <time>2022-07-31T09:47:18.364Z</time>
      </trkpt>
      <trkpt lat="45.0653" lon="5.39087">
        <ele>261.06</ele>
        <time>2022-07-31T09:47:27.384Z</time>
      </trkpt>
      <trkpt lat="45.0653" lon="5.39102">
        <ele>260.34</ele>
        <time>2022-07-31T09:47:36.548Z</time>
      </trkpt>
      <trkpt lat="45.06531" lon="5.39118">
        <ele>259.23</ele>
        <time>2022-07-31T09:47:46.180Z</time>
      </trkpt>
      <trkpt lat="45.06533" lon="5.3913">
        <ele>258</ele>
        <time>2022-07-31T09:48:07.999Z</time>
      </trkpt>
      <trkpt lat="45.06531" lon="5.39143">
        <ele>257.62</ele>
        <time>2022-07-31T09:48:36.108Z</time>
      </trkpt>
      <trkpt lat="45.06529" lon="5.39156">
        <ele>257.18</ele>
        <time>2022-07-31T09:48:47.246Z</time>
      </trkpt>
      <trkpt lat="45.06526" lon="5.3917">
        <ele>257.19</ele>
        <time>2022-07-31T09:48:56.424Z</time>
      </trkpt>
      <trkpt lat="45.06522" lon="5.39182">
        <ele>257.37</ele>
        <time>2022-07-31T09:49:06.302Z</time>
      </trkpt>
      <trkpt lat="45.06515" lon="5.39192">
        <ele>258.08</ele>
        <time>2022-07-31T09:49:16.242Z</time>
      </trkpt>
      <trkpt lat="45.06511" lon="5.39206">
        <ele>258.15</ele>
        <time>2022-07-31T09:49:25.263Z</time>
      </trkpt>
      <trkpt lat="45.06508" lon="5.39218">
        <ele>258.23</ele>
        <time>2022-07-31T09:49:34.494Z</time>
      </trkpt>
      <trkpt lat="45.06512" lon="5.3923">
        <ele>257.25</ele>
        <time>2022-07-31T09:49:51.629Z</time>
      </trkpt>
      <trkpt lat="45.0652" lon="5.39235">
        <ele>256.21</ele>
        <time>2022-07-31T09:50:29.125Z</time>
      </trkpt>
      <trkpt lat="45.06528" lon="5.39244">
        <ele>255.91</ele>
        <time>2022-07-31T09:50:39.666Z</time>
      </trkpt>
      <trkpt lat="45.06539" lon="5.3925">
        <ele>256.22</ele>
        <time>2022-07-31T09:50:48.705Z</time>
      </trkpt>
      <trkpt lat="45.06546" lon="5.3926">
        <ele>257.02</ele>
        <time>2022-07-31T09:50:57.926Z</time>
      </trkpt>
      <trkpt lat="45.06546" lon="5.39276">
        <ele>257.84</ele>
        <time>2022-07-31T09:51:07.388Z</time>
      </trkpt>
      <trkpt lat="45.06541" lon="5.39295">
        <ele>258.68</ele>
        <time>2022-07-31T09:51:16.406Z</time>
      </trkpt>
      <trkpt lat="45.06537" lon="5.39283">
        <ele>257.63</ele>
        <time>2022-07-31T09:51:25.885Z</time>
      </trkpt>
      <trkpt lat="45.06529" lon="5.39289">
        <ele>257.66</ele>
        <time>2022-07-31T09:51:38.106Z</time>
      </trkpt>
      <trkpt lat="45.06524" lon="5.39302">
        <ele>258.39</ele>
        <time>2022-07-31T09:51:47.263Z</time>
      </trkpt>
      <trkpt lat="45.06518" lon="5.39313">
        <ele>259.07</ele>
        <time>2022-07-31T09:51:56.567Z</time>
      </trkpt>
      <trkpt lat="45.06508" lon="5.39323">
        <ele>259.99</ele>
        <time>2022-07-31T09:52:06.081Z</time>
      </trkpt>
      <trkpt lat="45.06504" lon="5.39335">
        <ele>260.83</ele>
        <time>2022-07-31T09:52:57.986Z</time>
      </trkpt>
      <trkpt lat="45.06505" lon="5.39357">
        <ele>262.09</ele>
        <time>2022-07-31T09:53:07.405Z</time>
      </trkpt>
      <trkpt lat="45.06506" lon="5.39379">
        <ele>263.73</ele>
        <time>2022-07-31T09:53:16.922Z</time>
      </trkpt>
      <trkpt lat="45.06503" lon="5.39397">
        <ele>264.88</ele>
        <time>2022-07-31T09:53:26.401Z</time>
      </trkpt>
      <trkpt lat="45.0649" lon="5.39396">
        <ele>264.53</ele>
        <time>2022-07-31T09:54:40.000Z</time>
      </trkpt>
      <trkpt lat="45.06493" lon="5.39389">
        <ele>264.13</ele>
        <time>2022-07-31T10:07:33.999Z</time>
      </trkpt>
      <trkpt lat="45.06533" lon="5.39275">
        <ele>257.04</ele>
        <time>2022-07-31T10:52:56.283Z</time>
      </trkpt>
      <trkpt lat="45.06543" lon="5.39277">
        <ele>257.71</ele>
        <time>2022-07-31T10:53:05.999Z</time>
      </trkpt>
      <trkpt lat="45.06549" lon="5.39267">
        <ele>257.63</ele>
        <time>2022-07-31T10:53:24.301Z</time>
      </trkpt>
      <trkpt lat="45.06546" lon="5.39252">
        <ele>256.62</ele>
        <time>2022-07-31T10:53:33.659Z</time>
      </trkpt>
      <trkpt lat="45.06537" lon="5.39244">
        <ele>255.93</ele>
        <time>2022-07-31T10:53:43.050Z</time>
      </trkpt>
      <trkpt lat="45.06525" lon="5.39232">
        <ele>255.89</ele>
        <time>2022-07-31T10:53:52.470Z</time>
      </trkpt>
      <trkpt lat="45.06517" lon="5.39224">
        <ele>256.67</ele>
        <time>2022-07-31T10:54:02.228Z</time>
      </trkpt>
      <trkpt lat="45.06508" lon="5.39224">
        <ele>258.11</ele>
        <time>2022-07-31T10:54:13.566Z</time>
      </trkpt>
      <trkpt lat="45.06503" lon="5.39236">
        <ele>258.72</ele>
        <time>2022-07-31T10:54:23.125Z</time>
      </trkpt>
      <trkpt lat="45.06496" lon="5.39245">
        <ele>260.1</ele>
        <time>2022-07-31T10:54:34.487Z</time>
      </trkpt>
      <trkpt lat="45.06489" lon="5.3926">
        <ele>261.92</ele>
        <time>2022-07-31T10:54:44.585Z</time>
      </trkpt>
      <trkpt lat="45.06481" lon="5.39272">
        <ele>264.07</ele>
        <time>2022-07-31T10:54:53.743Z</time>
      </trkpt>
      <trkpt lat="45.06473" lon="5.39288">
        <ele>266.56</ele>
        <time>2022-07-31T10:55:03.320Z</time>
      </trkpt>
      <trkpt lat="45.06466" lon="5.39297">
        <ele>268.42</ele>
        <time>2022-07-31T10:55:13.321Z</time>
      </trkpt>
      <trkpt lat="45.0646" lon="5.39307">
        <ele>270.17</ele>
        <time>2022-07-31T10:55:23.372Z</time>
      </trkpt>
      <trkpt lat="45.06454" lon="5.39318">
        <ele>271.52</ele>
        <time>2022-07-31T10:55:42.409Z</time>
      </trkpt>
      <trkpt lat="45.0645" lon="5.39334">
        <ele>271.7</ele>
        <time>2022-07-31T10:55:51.542Z</time>
      </trkpt>
      <trkpt lat="45.06444" lon="5.39349">
        <ele>272.66</ele>
        <time>2022-07-31T10:56:00.693Z</time>
      </trkpt>
      <trkpt lat="45.06439" lon="5.3936">
        <ele>273.44</ele>
        <time>2022-07-31T10:56:10.366Z</time>
      </trkpt>
      <trkpt lat="45.06435" lon="5.39372">
        <ele>274.07</ele>
        <time>2022-07-31T10:56:22.566Z</time>
      </trkpt>
      <trkpt lat="45.06429" lon="5.39383">
        <ele>275.19</ele>
        <time>2022-07-31T10:56:34.264Z</time>
      </trkpt>
      <trkpt lat="45.06424" lon="5.394">
        <ele>275.97</ele>
        <time>2022-07-31T10:56:43.651Z</time>
      </trkpt>
      <trkpt lat="45.06419" lon="5.39418">
        <ele>276.31</ele>
        <time>2022-07-31T10:56:52.939Z</time>
      </trkpt>
      <trkpt lat="45.06414" lon="5.39434">
        <ele>276.81</ele>
        <time>2022-07-31T10:57:02.450Z</time>
      </trkpt>
      <trkpt lat="45.06407" lon="5.39443">
        <ele>278.16</ele>
        <time>2022-07-31T10:57:11.829Z</time>
      </trkpt>
      <trkpt lat="45.06402" lon="5.39454">
        <ele>278.84</ele>
        <time>2022-07-31T10:57:21.546Z</time>
      </trkpt>
      <trkpt lat="45.06403" lon="5.3947">
        <ele>277.78</ele>
        <time>2022-07-31T10:57:31.426Z</time>
      </trkpt>
      <trkpt lat="45.06401" lon="5.39482">
        <ele>277.74</ele>
        <time>2022-07-31T10:57:45.547Z</time>
      </trkpt>
      <trkpt lat="45.06396" lon="5.39502">
        <ele>277.83</ele>
        <time>2022-07-31T10:57:55.549Z</time>
      </trkpt>
      <trkpt lat="45.06391" lon="5.39516">
        <ele>278.08</ele>
        <time>2022-07-31T10:58:05.304Z</time>
      </trkpt>
      <trkpt lat="45.06384" lon="5.39526">
        <ele>278.8</ele>
        <time>2022-07-31T10:58:14.940Z</time>
      </trkpt>
      <trkpt lat="45.06375" lon="5.39531">
        <ele>280.59</ele>
        <time>2022-07-31T10:58:24.529Z</time>
      </trkpt>
      <trkpt lat="45.06365" lon="5.39539">
        <ele>282.12</ele>
        <time>2022-07-31T10:58:34.689Z</time>
      </trkpt>
      <trkpt lat="45.06357" lon="5.39545">
        <ele>283.67</ele>
        <time>2022-07-31T10:58:44.447Z</time>
      </trkpt>
      <trkpt lat="45.06347" lon="5.39552">
        <ele>285.34</ele>
        <time>2022-07-31T10:58:54.533Z</time>
      </trkpt>
      <trkpt lat="45.06339" lon="5.39557">
        <ele>287.22</ele>
        <time>2022-07-31T10:59:06.186Z</time>
      </trkpt>
      <trkpt lat="45.06336" lon="5.39571">
        <ele>285.96</ele>
        <time>2022-07-31T10:59:15.244Z</time>
      </trkpt>
      <trkpt lat="45.06333" lon="5.39585">
        <ele>284.79</ele>
        <time>2022-07-31T10:59:24.324Z</time>
      </trkpt>
      <trkpt lat="45.06327" lon="5.39595">
        <ele>285.45</ele>
        <time>2022-07-31T10:59:33.404Z</time>
      </trkpt>
      <trkpt lat="45.0632" lon="5.39604">
        <ele>286.24</ele>
        <time>2022-07-31T10:59:46.142Z</time>
      </trkpt>
      <trkpt lat="45.06314" lon="5.39613">
        <ele>287.01</ele>
        <time>2022-07-31T10:59:55.561Z</time>
      </trkpt>
      <trkpt lat="45.06306" lon="5.39625">
        <ele>288.13</ele>
        <time>2022-07-31T11:00:05.013Z</time>
      </trkpt>
      <trkpt lat="45.06297" lon="5.39631">
        <ele>290.45</ele>
        <time>2022-07-31T11:00:17.591Z</time>
      </trkpt>
      <trkpt lat="45.06291" lon="5.3964">
        <ele>291.45</ele>
        <time>2022-07-31T11:00:27.409Z</time>
      </trkpt>
      <trkpt lat="45.06282" lon="5.39649">
        <ele>292.85</ele>
        <time>2022-07-31T11:00:37.050Z</time>
      </trkpt>
      <trkpt lat="45.06272" lon="5.39657">
        <ele>294.81</ele>
        <time>2022-07-31T11:00:46.147Z</time>
      </trkpt>
      <trkpt lat="45.06263" lon="5.39663">
        <ele>296.54</ele>
        <time>2022-07-31T11:00:56.585Z</time>
      </trkpt>
      <trkpt lat="45.06251" lon="5.39668">
        <ele>299.2</ele>
        <time>2022-07-31T11:01:06.608Z</time>
      </trkpt>
      <trkpt lat="45.06242" lon="5.3967">
        <ele>301.32</ele>
        <time>2022-07-31T11:01:16.541Z</time>
      </trkpt>
      <trkpt lat="45.06234" lon="5.39676">
        <ele>301.8</ele>
        <time>2022-07-31T11:01:32.471Z</time>
      </trkpt>
      <trkpt lat="45.06225" lon="5.3968">
        <ele>302.96</ele>
        <time>2022-07-31T11:01:41.539Z</time>
      </trkpt>
      <trkpt lat="45.06215" lon="5.39686">
        <ele>303.48</ele>
        <time>2022-07-31T11:01:51.368Z</time>
      </trkpt>
      <trkpt lat="45.06207" lon="5.39693">
        <ele>303.64</ele>
        <time>2022-07-31T11:02:00.448Z</time>
      </trkpt>
      <trkpt lat="45.06197" lon="5.39703">
        <ele>303.07</ele>
        <time>2022-07-31T11:02:09.546Z</time>
      </trkpt>
      <trkpt lat="45.06187" lon="5.3971">
        <ele>304.62</ele>
        <time>2022-07-31T11:02:18.584Z</time>
      </trkpt>
      <trkpt lat="45.06177" lon="5.39712">
        <ele>307.82</ele>
        <time>2022-07-31T11:02:28.550Z</time>
      </trkpt>
      <trkpt lat="45.06169" lon="5.39718">
        <ele>308.9</ele>
        <time>2022-07-31T11:02:37.664Z</time>
      </trkpt>
      <trkpt lat="45.0616" lon="5.39727">
        <ele>309.55</ele>
        <time>2022-07-31T11:02:46.984Z</time>
      </trkpt>
      <trkpt lat="45.06149" lon="5.39731">
        <ele>312.11</ele>
        <time>2022-07-31T11:02:58.592Z</time>
      </trkpt>
      <trkpt lat="45.0614" lon="5.39737">
        <ele>313.98</ele>
        <time>2022-07-31T11:03:08.144Z</time>
      </trkpt>
      <trkpt lat="45.0613" lon="5.39743">
        <ele>315.73</ele>
        <time>2022-07-31T11:03:18.440Z</time>
      </trkpt>
      <trkpt lat="45.06124" lon="5.39754">
        <ele>314.7</ele>
        <time>2022-07-31T11:03:27.651Z</time>
      </trkpt>
      <trkpt lat="45.06118" lon="5.39764">
        <ele>314.12</ele>
        <time>2022-07-31T11:03:37.632Z</time>
      </trkpt>
      <trkpt lat="45.0611" lon="5.3977">
        <ele>315.36</ele>
        <time>2022-07-31T11:03:49.567Z</time>
      </trkpt>
      <trkpt lat="45.06101" lon="5.39784">
        <ele>314.66</ele>
        <time>2022-07-31T11:03:59.387Z</time>
      </trkpt>
      <trkpt lat="45.06094" lon="5.39793">
        <ele>315.08</ele>
        <time>2022-07-31T11:04:09.542Z</time>
      </trkpt>
      <trkpt lat="45.06086" lon="5.39798">
        <ele>316.77</ele>
        <time>2022-07-31T11:04:21.999Z</time>
      </trkpt>
      <trkpt lat="45.06079" lon="5.39809">
        <ele>316.31</ele>
        <time>2022-07-31T11:04:33.240Z</time>
      </trkpt>
      <trkpt lat="45.0607" lon="5.39819">
        <ele>316.51</ele>
        <time>2022-07-31T11:04:42.242Z</time>
      </trkpt>
      <trkpt lat="45.06061" lon="5.39823">
        <ele>317.94</ele>
        <time>2022-07-31T11:04:53.621Z</time>
      </trkpt>
      <trkpt lat="45.06054" lon="5.39832">
        <ele>317.65</ele>
        <time>2022-07-31T11:05:02.829Z</time>
      </trkpt>
      <trkpt lat="45.06044" lon="5.39836">
        <ele>319.2</ele>
        <time>2022-07-31T11:05:12.526Z</time>
      </trkpt>
      <trkpt lat="45.06034" lon="5.39837">
        <ele>321.17</ele>
        <time>2022-07-31T11:05:22.106Z</time>
      </trkpt>
      <trkpt lat="45.06025" lon="5.39839">
        <ele>322.87</ele>
        <time>2022-07-31T11:05:32.406Z</time>
      </trkpt>
      <trkpt lat="45.06015" lon="5.3985">
        <ele>322.78</ele>
        <time>2022-07-31T11:05:42.584Z</time>
      </trkpt>
      <trkpt lat="45.06009" lon="5.39859">
        <ele>322.71</ele>
        <time>2022-07-31T11:05:54.703Z</time>
      </trkpt>
      <trkpt lat="45.05999" lon="5.39867">
        <ele>323.71</ele>
        <time>2022-07-31T11:06:04.298Z</time>
      </trkpt>
      <trkpt lat="45.05988" lon="5.39877">
        <ele>324.43</ele>
        <time>2022-07-31T11:06:14.510Z</time>
      </trkpt>
      <trkpt lat="45.0598" lon="5.39882">
        <ele>325.26</ele>
        <time>2022-07-31T11:06:25.422Z</time>
      </trkpt>
      <trkpt lat="45.05969" lon="5.39888">
        <ele>326.12</ele>
        <time>2022-07-31T11:06:35.651Z</time>
      </trkpt>
      <trkpt lat="45.05958" lon="5.3989">
        <ele>327.61</ele>
        <time>2022-07-31T11:06:45.329Z</time>
      </trkpt>
      <trkpt lat="45.05947" lon="5.39889">
        <ele>329.56</ele>
        <time>2022-07-31T11:06:54.571Z</time>
      </trkpt>
      <trkpt lat="45.05937" lon="5.39891">
        <ele>330.92</ele>
        <time>2022-07-31T11:07:03.908Z</time>
      </trkpt>
      <trkpt lat="45.05927" lon="5.3989">
        <ele>333.05</ele>
        <time>2022-07-31T11:07:16.578Z</time>
      </trkpt>
      <trkpt lat="45.05918" lon="5.3989">
        <ele>335.05</ele>
        <time>2022-07-31T11:07:25.905Z</time>
      </trkpt>
      <trkpt lat="45.05909" lon="5.39892">
        <ele>336.85</ele>
        <time>2022-07-31T11:08:03.330Z</time>
      </trkpt>
      <trkpt lat="45.05903" lon="5.39903">
        <ele>336.11</ele>
        <time>2022-07-31T11:08:12.408Z</time>
      </trkpt>
      <trkpt lat="45.05899" lon="5.39915">
        <ele>335.24</ele>
        <time>2022-07-31T11:08:22.388Z</time>
      </trkpt>
      <trkpt lat="45.05895" lon="5.39929">
        <ele>335.18</ele>
        <time>2022-07-31T11:08:31.625Z</time>
      </trkpt>
      <trkpt lat="45.0589" lon="5.39942">
        <ele>336.26</ele>
        <time>2022-07-31T11:08:41.607Z</time>
      </trkpt>
      <trkpt lat="45.05882" lon="5.39953">
        <ele>338.2</ele>
        <time>2022-07-31T11:08:51.530Z</time>
      </trkpt>
      <trkpt lat="45.05877" lon="5.39964">
        <ele>339.02</ele>
        <time>2022-07-31T11:09:02.123Z</time>
      </trkpt>
      <trkpt lat="45.0587" lon="5.39973">
        <ele>340.18</ele>
        <time>2022-07-31T11:09:11.222Z</time>
      </trkpt>
      <trkpt lat="45.05862" lon="5.39983">
        <ele>341.16</ele>
        <time>2022-07-31T11:09:20.492Z</time>
      </trkpt>
      <trkpt lat="45.05854" lon="5.39989">
        <ele>342.1</ele>
        <time>2022-07-31T11:09:29.571Z</time>
      </trkpt>
      <trkpt lat="45.05846" lon="5.39997">
        <ele>342.69</ele>
        <time>2022-07-31T11:09:41.088Z</time>
      </trkpt>
      <trkpt lat="45.05836" lon="5.40006">
        <ele>343.81</ele>
        <time>2022-07-31T11:09:50.572Z</time>
      </trkpt>
      <trkpt lat="45.05827" lon="5.40011">
        <ele>345.28</ele>
        <time>2022-07-31T11:09:59.588Z</time>
      </trkpt>
      <trkpt lat="45.05817" lon="5.40014">
        <ele>347.32</ele>
        <time>2022-07-31T11:10:09.125Z</time>
      </trkpt>
      <trkpt lat="45.05808" lon="5.4002">
        <ele>348.89</ele>
        <time>2022-07-31T11:10:18.665Z</time>
      </trkpt>
      <trkpt lat="45.058" lon="5.40028">
        <ele>350.03</ele>
        <time>2022-07-31T11:10:39.964Z</time>
      </trkpt>
      <trkpt lat="45.05789" lon="5.40037">
        <ele>352.32</ele>
        <time>2022-07-31T11:10:49.351Z</time>
      </trkpt>
      <trkpt lat="45.05781" lon="5.40046">
        <ele>354.06</ele>
        <time>2022-07-31T11:10:59.692Z</time>
      </trkpt>
      <trkpt lat="45.05773" lon="5.40054">
        <ele>355.73</ele>
        <time>2022-07-31T11:11:09.030Z</time>
      </trkpt>
      <trkpt lat="45.05773" lon="5.40071">
        <ele>355.36</ele>
        <time>2022-07-31T11:11:18.328Z</time>
      </trkpt>
      <trkpt lat="45.05775" lon="5.40084">
        <ele>354.83</ele>
        <time>2022-07-31T11:11:28.986Z</time>
      </trkpt>
      <trkpt lat="45.05779" lon="5.40098">
        <ele>354.21</ele>
        <time>2022-07-31T11:11:38.105Z</time>
      </trkpt>
      <trkpt lat="45.05779" lon="5.40111">
        <ele>354.76</ele>
        <time>2022-07-31T11:11:47.285Z</time>
      </trkpt>
      <trkpt lat="45.0577" lon="5.40115">
        <ele>357.04</ele>
        <time>2022-07-31T11:11:59.000Z</time>
      </trkpt>
      <trkpt lat="45.05764" lon="5.401">
        <ele>357.74</ele>
        <time>2022-07-31T11:12:08.620Z</time>
      </trkpt>
      <trkpt lat="45.05762" lon="5.40086">
        <ele>358.17</ele>
        <time>2022-07-31T11:12:18.261Z</time>
      </trkpt>
      <trkpt lat="45.05757" lon="5.40073">
        <ele>359.38</ele>
        <time>2022-07-31T11:12:28.649Z</time>
      </trkpt>
      <trkpt lat="45.05753" lon="5.4006">
        <ele>360.63</ele>
        <time>2022-07-31T11:12:38.132Z</time>
      </trkpt>
      <trkpt lat="45.05752" lon="5.40046">
        <ele>361.3</ele>
        <time>2022-07-31T11:12:47.678Z</time>
      </trkpt>
      <trkpt lat="45.05751" lon="5.40031">
        <ele>362.3</ele>
        <time>2022-07-31T11:12:57.648Z</time>
      </trkpt>
      <trkpt lat="45.0575" lon="5.40016">
        <ele>363.46</ele>
        <time>2022-07-31T11:13:07.000Z</time>
      </trkpt>
      <trkpt lat="45.05757" lon="5.40006">
        <ele>362.62</ele>
        <time>2022-07-31T11:13:18.585Z</time>
      </trkpt>
      <trkpt lat="45.05761" lon="5.39995">
        <ele>362.77</ele>
        <time>2022-07-31T11:13:29.545Z</time>
      </trkpt>
      <trkpt lat="45.05765" lon="5.39983">
        <ele>363.7</ele>
        <time>2022-07-31T11:13:42.867Z</time>
      </trkpt>
      <trkpt lat="45.05765" lon="5.39967">
        <ele>366.52</ele>
        <time>2022-07-31T11:13:52.348Z</time>
      </trkpt>
      <trkpt lat="45.05766" lon="5.39952">
        <ele>369.49</ele>
        <time>2022-07-31T11:14:01.606Z</time>
      </trkpt>
      <trkpt lat="45.05771" lon="5.39941">
        <ele>370.39</ele>
        <time>2022-07-31T11:14:12.624Z</time>
      </trkpt>
      <trkpt lat="45.05774" lon="5.39929">
        <ele>371.72</ele>
        <time>2022-07-31T11:14:23.264Z</time>
      </trkpt>
      <trkpt lat="45.05779" lon="5.39915">
        <ele>372.3</ele>
        <time>2022-07-31T11:14:32.546Z</time>
      </trkpt>
      <trkpt lat="45.0578" lon="5.39902">
        <ele>373.17</ele>
        <time>2022-07-31T11:14:43.142Z</time>
      </trkpt>
      <trkpt lat="45.05783" lon="5.39889">
        <ele>373.17</ele>
        <time>2022-07-31T11:15:07.667Z</time>
      </trkpt>
      <trkpt lat="45.05786" lon="5.39875">
        <ele>372.94</ele>
        <time>2022-07-31T11:15:17.647Z</time>
      </trkpt>
      <trkpt lat="45.05785" lon="5.39862">
        <ele>373.83</ele>
        <time>2022-07-31T11:15:28.244Z</time>
      </trkpt>
      <trkpt lat="45.05781" lon="5.39849">
        <ele>375.42</ele>
        <time>2022-07-31T11:15:38.423Z</time>
      </trkpt>
      <trkpt lat="45.0578" lon="5.39836">
        <ele>376.85</ele>
        <time>2022-07-31T11:15:48.361Z</time>
      </trkpt>
      <trkpt lat="45.05778" lon="5.39823">
        <ele>378.63</ele>
        <time>2022-07-31T11:15:59.225Z</time>
      </trkpt>
      <trkpt lat="45.05774" lon="5.39812">
        <ele>381.05</ele>
        <time>2022-07-31T11:16:09.401Z</time>
      </trkpt>
      <trkpt lat="45.05777" lon="5.39797">
        <ele>382.11</ele>
        <time>2022-07-31T11:16:28.310Z</time>
      </trkpt>
      <trkpt lat="45.05781" lon="5.39783">
        <ele>382.92</ele>
        <time>2022-07-31T11:16:37.470Z</time>
      </trkpt>
      <trkpt lat="45.05787" lon="5.39767">
        <ele>383.82</ele>
        <time>2022-07-31T11:16:46.829Z</time>
      </trkpt>
      <trkpt lat="45.05791" lon="5.39755">
        <ele>384.95</ele>
        <time>2022-07-31T11:16:58.469Z</time>
      </trkpt>
      <trkpt lat="45.05795" lon="5.39742">
        <ele>386.52</ele>
        <time>2022-07-31T11:17:07.946Z</time>
      </trkpt>
      <trkpt lat="45.05806" lon="5.39736">
        <ele>385.23</ele>
        <time>2022-07-31T11:17:17.126Z</time>
      </trkpt>
      <trkpt lat="45.05817" lon="5.39732">
        <ele>384.08</ele>
        <time>2022-07-31T11:17:27.000Z</time>
      </trkpt>
      <trkpt lat="45.05824" lon="5.39722">
        <ele>385.29</ele>
        <time>2022-07-31T11:17:44.184Z</time>
      </trkpt>
      <trkpt lat="45.0583" lon="5.39707">
        <ele>388.5</ele>
        <time>2022-07-31T11:17:53.538Z</time>
      </trkpt>
      <trkpt lat="45.05821" lon="5.3971">
        <ele>389.4</ele>
        <time>2022-07-31T11:18:06.970Z</time>
      </trkpt>
      <trkpt lat="45.05812" lon="5.39718">
        <ele>388.79</ele>
        <time>2022-07-31T11:18:16.030Z</time>
      </trkpt>
      <trkpt lat="45.05802" lon="5.39727">
        <ele>388.59</ele>
        <time>2022-07-31T11:18:25.309Z</time>
      </trkpt>
      <trkpt lat="45.05792" lon="5.39731">
        <ele>389.61</ele>
        <time>2022-07-31T11:18:34.347Z</time>
      </trkpt>
      <trkpt lat="45.05783" lon="5.3973">
        <ele>391.93</ele>
        <time>2022-07-31T11:18:47.644Z</time>
      </trkpt>
      <trkpt lat="45.05773" lon="5.3973">
        <ele>394.17</ele>
        <time>2022-07-31T11:18:58.605Z</time>
      </trkpt>
      <trkpt lat="45.05765" lon="5.39737">
        <ele>394.73</ele>
        <time>2022-07-31T11:19:08.965Z</time>
      </trkpt>
      <trkpt lat="45.05755" lon="5.39744">
        <ele>395.78</ele>
        <time>2022-07-31T11:19:18.605Z</time>
      </trkpt>
      <trkpt lat="45.05744" lon="5.39747">
        <ele>397.95</ele>
        <time>2022-07-31T11:19:28.142Z</time>
      </trkpt>
      <trkpt lat="45.05735" lon="5.39746">
        <ele>400.42</ele>
        <time>2022-07-31T11:19:37.462Z</time>
      </trkpt>
      <trkpt lat="45.05723" lon="5.39744">
        <ele>403.63</ele>
        <time>2022-07-31T11:21:24.999Z</time>
      </trkpt>
      <trkpt lat="45.05714" lon="5.39746">
        <ele>405.59</ele>
        <time>2022-07-31T11:22:08.166Z</time>
      </trkpt>
      <trkpt lat="45.05705" lon="5.39749">
        <ele>407.51</ele>
        <time>2022-07-31T11:22:18.528Z</time>
      </trkpt>
      <trkpt lat="45.05696" lon="5.39751">
        <ele>409.43</ele>
        <time>2022-07-31T11:22:32.470Z</time>
      </trkpt>
      <trkpt lat="45.05688" lon="5.39759">
        <ele>410.54</ele>
        <time>2022-07-31T11:22:45.327Z</time>
      </trkpt>
      <trkpt lat="45.05679" lon="5.39761">
        <ele>412.66</ele>
        <time>2022-07-31T11:22:57.708Z</time>
      </trkpt>
      <trkpt lat="45.05669" lon="5.39763">
        <ele>414.98</ele>
        <time>2022-07-31T11:23:10.548Z</time>
      </trkpt>
      <trkpt lat="45.0566" lon="5.39763">
        <ele>417.49</ele>
        <time>2022-07-31T11:23:25.589Z</time>
      </trkpt>
      <trkpt lat="45.05651" lon="5.39769">
        <ele>419.14</ele>
        <time>2022-07-31T11:23:35.585Z</time>
      </trkpt>
      <trkpt lat="45.05642" lon="5.39778">
        <ele>420.92</ele>
        <time>2022-07-31T11:23:45.264Z</time>
      </trkpt>
      <trkpt lat="45.05633" lon="5.3978">
        <ele>423.17</ele>
        <time>2022-07-31T11:23:58.421Z</time>
      </trkpt>
      <trkpt lat="45.05624" lon="5.3978">
        <ele>425.44</ele>
        <time>2022-07-31T11:24:11.531Z</time>
      </trkpt>
      <trkpt lat="45.05615" lon="5.39783">
        <ele>427.47</ele>
        <time>2022-07-31T11:24:27.999Z</time>
      </trkpt>
      <trkpt lat="45.05606" lon="5.39788">
        <ele>429.16</ele>
        <time>2022-07-31T11:24:38.318Z</time>
      </trkpt>
      <trkpt lat="45.05597" lon="5.39791">
        <ele>431.02</ele>
        <time>2022-07-31T11:24:48.353Z</time>
      </trkpt>
      <trkpt lat="45.05588" lon="5.39789">
        <ele>433.43</ele>
        <time>2022-07-31T11:24:59.186Z</time>
      </trkpt>
      <trkpt lat="45.05578" lon="5.39786">
        <ele>436.01</ele>
        <time>2022-07-31T11:25:13.384Z</time>
      </trkpt>
      <trkpt lat="45.05569" lon="5.39787">
        <ele>438.11</ele>
        <time>2022-07-31T11:25:23.524Z</time>
      </trkpt>
      <trkpt lat="45.0556" lon="5.3979">
        <ele>439.98</ele>
        <time>2022-07-31T11:25:35.004Z</time>
      </trkpt>
      <trkpt lat="45.0555" lon="5.39793">
        <ele>441.98</ele>
        <time>2022-07-31T11:26:03.999Z</time>
      </trkpt>
      <trkpt lat="45.05539" lon="5.39798">
        <ele>443.65</ele>
        <time>2022-07-31T11:26:13.209Z</time>
      </trkpt>
      <trkpt lat="45.05527" lon="5.39804">
        <ele>445.32</ele>
        <time>2022-07-31T11:26:22.408Z</time>
      </trkpt>
      <trkpt lat="45.05516" lon="5.39808">
        <ele>447.07</ele>
        <time>2022-07-31T11:26:31.705Z</time>
      </trkpt>
      <trkpt lat="45.05507" lon="5.3981">
        <ele>448.78</ele>
        <time>2022-07-31T11:26:42.026Z</time>
      </trkpt>
      <trkpt lat="45.05497" lon="5.39811">
        <ele>450.95</ele>
        <time>2022-07-31T11:26:51.044Z</time>
      </trkpt>
      <trkpt lat="45.05488" lon="5.39814">
        <ele>452.46</ele>
        <time>2022-07-31T11:27:01.680Z</time>
      </trkpt>
      <trkpt lat="45.05479" lon="5.39818">
        <ele>453.8</ele>
        <time>2022-07-31T11:27:12.161Z</time>
      </trkpt>
      <trkpt lat="45.05469" lon="5.3982">
        <ele>455.91</ele>
        <time>2022-07-31T11:27:42.000Z</time>
      </trkpt>
      <trkpt lat="45.05463" lon="5.39836">
        <ele>454.78</ele>
        <time>2022-07-31T11:27:52.524Z</time>
      </trkpt>
      <trkpt lat="45.05456" lon="5.39844">
        <ele>455.75</ele>
        <time>2022-07-31T11:28:05.168Z</time>
      </trkpt>
      <trkpt lat="45.05447" lon="5.39851">
        <ele>457.15</ele>
        <time>2022-07-31T11:28:14.489Z</time>
      </trkpt>
      <trkpt lat="45.05441" lon="5.3986">
        <ele>457.96</ele>
        <time>2022-07-31T11:28:28.708Z</time>
      </trkpt>
      <trkpt lat="45.05432" lon="5.39858">
        <ele>461.06</ele>
        <time>2022-07-31T11:28:49.000Z</time>
      </trkpt>
      <trkpt lat="45.05422" lon="5.39861">
        <ele>463.56</ele>
        <time>2022-07-31T11:30:52.084Z</time>
      </trkpt>
      <trkpt lat="45.05412" lon="5.3987">
        <ele>465.5</ele>
        <time>2022-07-31T11:31:01.263Z</time>
      </trkpt>
      <trkpt lat="45.05404" lon="5.39881">
        <ele>466.8</ele>
        <time>2022-07-31T11:31:10.700Z</time>
      </trkpt>
      <trkpt lat="45.05395" lon="5.39886">
        <ele>468.66</ele>
        <time>2022-07-31T11:31:19.746Z</time>
      </trkpt>
      <trkpt lat="45.05387" lon="5.3989">
        <ele>470.32</ele>
        <time>2022-07-31T11:31:29.289Z</time>
      </trkpt>
      <trkpt lat="45.05378" lon="5.39895">
        <ele>471.86</ele>
        <time>2022-07-31T11:31:38.307Z</time>
      </trkpt>
      <trkpt lat="45.05372" lon="5.39906">
        <ele>472.25</ele>
        <time>2022-07-31T11:31:47.325Z</time>
      </trkpt>
      <trkpt lat="45.05365" lon="5.39915">
        <ele>473.35</ele>
        <time>2022-07-31T11:31:57.000Z</time>
      </trkpt>
      <trkpt lat="45.05358" lon="5.39925">
        <ele>474.46</ele>
        <time>2022-07-31T11:32:11.535Z</time>
      </trkpt>
      <trkpt lat="45.05351" lon="5.39934">
        <ele>476.1</ele>
        <time>2022-07-31T11:32:22.345Z</time>
      </trkpt>
      <trkpt lat="45.05343" lon="5.39942">
        <ele>478.05</ele>
        <time>2022-07-31T11:32:33.805Z</time>
      </trkpt>
      <trkpt lat="45.05338" lon="5.39953">
        <ele>480.12</ele>
        <time>2022-07-31T11:32:45.442Z</time>
      </trkpt>
      <trkpt lat="45.05331" lon="5.39963">
        <ele>482.45</ele>
        <time>2022-07-31T11:33:00.322Z</time>
      </trkpt>
      <trkpt lat="45.05329" lon="5.39975">
        <ele>483.99</ele>
        <time>2022-07-31T11:33:10.601Z</time>
      </trkpt>
      <trkpt lat="45.05324" lon="5.3999">
        <ele>486.44</ele>
        <time>2022-07-31T11:33:20.610Z</time>
      </trkpt>
      <trkpt lat="45.05321" lon="5.40003">
        <ele>487.78</ele>
        <time>2022-07-31T11:33:30.109Z</time>
      </trkpt>
      <trkpt lat="45.05322" lon="5.40016">
        <ele>488.19</ele>
        <time>2022-07-31T11:33:41.188Z</time>
      </trkpt>
      <trkpt lat="45.05317" lon="5.40027">
        <ele>490.37</ele>
        <time>2022-07-31T11:33:50.586Z</time>
      </trkpt>
      <trkpt lat="45.05314" lon="5.4004">
        <ele>492</ele>
        <time>2022-07-31T11:34:02.205Z</time>
      </trkpt>
      <trkpt lat="45.05309" lon="5.40051">
        <ele>494.14</ele>
        <time>2022-07-31T11:34:13.163Z</time>
      </trkpt>
      <trkpt lat="45.05304" lon="5.40063">
        <ele>496.08</ele>
        <time>2022-07-31T11:34:22.384Z</time>
      </trkpt>
      <trkpt lat="45.05299" lon="5.40074">
        <ele>497.73</ele>
        <time>2022-07-31T11:34:31.681Z</time>
      </trkpt>
      <trkpt lat="45.05292" lon="5.40082">
        <ele>499.9</ele>
        <time>2022-07-31T11:34:41.189Z</time>
      </trkpt>
      <trkpt lat="45.05284" lon="5.40092">
        <ele>501.96</ele>
        <time>2022-07-31T11:34:53.707Z</time>
      </trkpt>
      <trkpt lat="45.05281" lon="5.40103">
        <ele>502.85</ele>
        <time>2022-07-31T11:35:08.627Z</time>
      </trkpt>
      <trkpt lat="45.05275" lon="5.40115">
        <ele>504.18</ele>
        <time>2022-07-31T11:35:18.606Z</time>
      </trkpt>
      <trkpt lat="45.05271" lon="5.40128">
        <ele>504.86</ele>
        <time>2022-07-31T11:36:13.999Z</time>
      </trkpt>
      <trkpt lat="45.05264" lon="5.40138">
        <ele>506.68</ele>
        <time>2022-07-31T11:36:24.999Z</time>
      </trkpt>
      <trkpt lat="45.05258" lon="5.40148">
        <ele>508.3</ele>
        <time>2022-07-31T11:36:38.485Z</time>
      </trkpt>
      <trkpt lat="45.05254" lon="5.4016">
        <ele>509.51</ele>
        <time>2022-07-31T11:36:47.564Z</time>
      </trkpt>
      <trkpt lat="45.05249" lon="5.40172">
        <ele>511.63</ele>
        <time>2022-07-31T11:36:56.643Z</time>
      </trkpt>
      <trkpt lat="45.05246" lon="5.40185">
        <ele>513.2</ele>
        <time>2022-07-31T11:37:07.245Z</time>
      </trkpt>
      <trkpt lat="45.05249" lon="5.40198">
        <ele>512.99</ele>
        <time>2022-07-31T11:37:16.583Z</time>
      </trkpt>
      <trkpt lat="45.05255" lon="5.40207">
        <ele>511.24</ele>
        <time>2022-07-31T11:37:27.422Z</time>
      </trkpt>
      <trkpt lat="45.05261" lon="5.4022">
        <ele>509.29</ele>
        <time>2022-07-31T11:37:36.472Z</time>
      </trkpt>
      <trkpt lat="45.05265" lon="5.40233">
        <ele>507.85</ele>
        <time>2022-07-31T11:37:45.688Z</time>
      </trkpt>
      <trkpt lat="45.05268" lon="5.40246">
        <ele>506.71</ele>
        <time>2022-07-31T11:38:01.189Z</time>
      </trkpt>
      <trkpt lat="45.05272" lon="5.40258">
        <ele>505.83</ele>
        <time>2022-07-31T11:38:11.427Z</time>
      </trkpt>
      <trkpt lat="45.05273" lon="5.40275">
        <ele>507.95</ele>
        <time>2022-07-31T11:38:20.626Z</time>
      </trkpt>
      <trkpt lat="45.05275" lon="5.40289">
        <ele>510.11</ele>
        <time>2022-07-31T11:38:30.045Z</time>
      </trkpt>
      <trkpt lat="45.05277" lon="5.40303">
        <ele>512.15</ele>
        <time>2022-07-31T11:38:39.704Z</time>
      </trkpt>
      <trkpt lat="45.05281" lon="5.40315">
        <ele>512.28</ele>
        <time>2022-07-31T11:38:48.762Z</time>
      </trkpt>
      <trkpt lat="45.05286" lon="5.40328">
        <ele>510.89</ele>
        <time>2022-07-31T11:38:58.462Z</time>
      </trkpt>
      <trkpt lat="45.05282" lon="5.40343">
        <ele>510.82</ele>
        <time>2022-07-31T11:39:08.122Z</time>
      </trkpt>
      <trkpt lat="45.05275" lon="5.40352">
        <ele>510.64</ele>
        <time>2022-07-31T11:39:18.519Z</time>
      </trkpt>
      <trkpt lat="45.05266" lon="5.40361">
        <ele>510.5</ele>
        <time>2022-07-31T11:39:28.129Z</time>
      </trkpt>
      <trkpt lat="45.05257" lon="5.40369">
        <ele>510.47</ele>
        <time>2022-07-31T11:39:37.629Z</time>
      </trkpt>
      <trkpt lat="45.05247" lon="5.40379">
        <ele>509.6</ele>
        <time>2022-07-31T11:39:47.030Z</time>
      </trkpt>
      <trkpt lat="45.05238" lon="5.40383">
        <ele>511.33</ele>
        <time>2022-07-31T11:39:57.150Z</time>
      </trkpt>
      <trkpt lat="45.05229" lon="5.40384">
        <ele>514.16</ele>
        <time>2022-07-31T11:40:06.467Z</time>
      </trkpt>
      <trkpt lat="45.05223" lon="5.40395">
        <ele>512.34</ele>
        <time>2022-07-31T11:40:16.186Z</time>
      </trkpt>
      <trkpt lat="45.0522" lon="5.40407">
        <ele>509.35</ele>
        <time>2022-07-31T11:40:25.226Z</time>
      </trkpt>
      <trkpt lat="45.05212" lon="5.40416">
        <ele>509.68</ele>
        <time>2022-07-31T11:40:34.584Z</time>
      </trkpt>
      <trkpt lat="45.05202" lon="5.40433">
        <ele>509.89</ele>
        <time>2022-07-31T11:40:44.584Z</time>
      </trkpt>
      <trkpt lat="45.05192" lon="5.40437">
        <ele>512.91</ele>
        <time>2022-07-31T11:40:54.124Z</time>
      </trkpt>
      <trkpt lat="45.05185" lon="5.40447">
        <ele>513.53</ele>
        <time>2022-07-31T11:41:05.442Z</time>
      </trkpt>
      <trkpt lat="45.0518" lon="5.40459">
        <ele>513.12</ele>
        <time>2022-07-31T11:41:17.728Z</time>
      </trkpt>
      <trkpt lat="45.05176" lon="5.40471">
        <ele>512.25</ele>
        <time>2022-07-31T11:41:27.721Z</time>
      </trkpt>
      <trkpt lat="45.0517" lon="5.40479">
        <ele>513.45</ele>
        <time>2022-07-31T11:41:44.010Z</time>
      </trkpt>
      <trkpt lat="45.05163" lon="5.4049">
        <ele>514.85</ele>
        <time>2022-07-31T11:41:55.250Z</time>
      </trkpt>
      <trkpt lat="45.05157" lon="5.405">
        <ele>516.62</ele>
        <time>2022-07-31T11:42:06.189Z</time>
      </trkpt>
      <trkpt lat="45.05156" lon="5.40519">
        <ele>516.09</ele>
        <time>2022-07-31T11:42:16.568Z</time>
      </trkpt>
      <trkpt lat="45.05153" lon="5.40532">
        <ele>516.83</ele>
        <time>2022-07-31T11:42:25.626Z</time>
      </trkpt>
      <trkpt lat="45.05151" lon="5.4055">
        <ele>517.97</ele>
        <time>2022-07-31T11:42:35.689Z</time>
      </trkpt>
      <trkpt lat="45.05153" lon="5.40562">
        <ele>517.96</ele>
        <time>2022-07-31T11:42:51.404Z</time>
      </trkpt>
      <trkpt lat="45.05151" lon="5.40575">
        <ele>519.49</ele>
        <time>2022-07-31T11:43:01.571Z</time>
      </trkpt>
      <trkpt lat="45.05152" lon="5.40589">
        <ele>520.24</ele>
        <time>2022-07-31T11:43:14.664Z</time>
      </trkpt>
      <trkpt lat="45.05154" lon="5.40602">
        <ele>521.31</ele>
        <time>2022-07-31T11:43:24.163Z</time>
      </trkpt>
      <trkpt lat="45.05156" lon="5.40616">
        <ele>523.32</ele>
        <time>2022-07-31T11:43:34.516Z</time>
      </trkpt>
      <trkpt lat="45.05155" lon="5.40629">
        <ele>526.48</ele>
        <time>2022-07-31T11:43:45.462Z</time>
      </trkpt>
      <trkpt lat="45.05156" lon="5.40643">
        <ele>528.82</ele>
        <time>2022-07-31T11:43:57.321Z</time>
      </trkpt>
      <trkpt lat="45.05161" lon="5.40655">
        <ele>529.13</ele>
        <time>2022-07-31T11:44:07.222Z</time>
      </trkpt>
      <trkpt lat="45.05167" lon="5.40666">
        <ele>527.96</ele>
        <time>2022-07-31T11:44:16.349Z</time>
      </trkpt>
      <trkpt lat="45.05171" lon="5.40678">
        <ele>527.59</ele>
        <time>2022-07-31T11:44:26.030Z</time>
      </trkpt>
      <trkpt lat="45.05172" lon="5.40691">
        <ele>528.57</ele>
        <time>2022-07-31T11:44:37.588Z</time>
      </trkpt>
      <trkpt lat="45.05169" lon="5.40704">
        <ele>530.97</ele>
        <time>2022-07-31T11:46:07.571Z</time>
      </trkpt>
      <trkpt lat="45.05165" lon="5.4072">
        <ele>533.76</ele>
        <time>2022-07-31T11:46:17.326Z</time>
      </trkpt>
      <trkpt lat="45.05157" lon="5.40731">
        <ele>537.14</ele>
        <time>2022-07-31T11:46:26.988Z</time>
      </trkpt>
      <trkpt lat="45.05154" lon="5.40743">
        <ele>538.37</ele>
        <time>2022-07-31T11:46:36.146Z</time>
      </trkpt>
      <trkpt lat="45.05148" lon="5.40753">
        <ele>540.19</ele>
        <time>2022-07-31T11:46:47.209Z</time>
      </trkpt>
      <trkpt lat="45.05143" lon="5.40764">
        <ele>541.54</ele>
        <time>2022-07-31T11:46:56.264Z</time>
      </trkpt>
      <trkpt lat="45.05135" lon="5.40776">
        <ele>543.53</ele>
        <time>2022-07-31T11:47:06.402Z</time>
      </trkpt>
      <trkpt lat="45.05129" lon="5.40788">
        <ele>544.93</ele>
        <time>2022-07-31T11:47:16.031Z</time>
      </trkpt>
      <trkpt lat="45.05122" lon="5.40797">
        <ele>546.5</ele>
        <time>2022-07-31T11:47:25.070Z</time>
      </trkpt>
      <trkpt lat="45.05118" lon="5.40809">
        <ele>547.31</ele>
        <time>2022-07-31T11:47:34.267Z</time>
      </trkpt>
      <trkpt lat="45.05114" lon="5.40821">
        <ele>548.1</ele>
        <time>2022-07-31T11:47:43.588Z</time>
      </trkpt>
      <trkpt lat="45.05111" lon="5.40834">
        <ele>548.37</ele>
        <time>2022-07-31T11:47:58.706Z</time>
      </trkpt>
      <trkpt lat="45.05106" lon="5.40846">
        <ele>549.4</ele>
        <time>2022-07-31T11:48:08.466Z</time>
      </trkpt>
      <trkpt lat="45.05102" lon="5.40858">
        <ele>550.3</ele>
        <time>2022-07-31T11:48:21.365Z</time>
      </trkpt>
      <trkpt lat="45.051" lon="5.40871">
        <ele>550.04</ele>
        <time>2022-07-31T11:48:30.640Z</time>
      </trkpt>
      <trkpt lat="45.05098" lon="5.40883">
        <ele>550.28</ele>
        <time>2022-07-31T11:48:40.564Z</time>
      </trkpt>
      <trkpt lat="45.05095" lon="5.40896">
        <ele>550.82</ele>
        <time>2022-07-31T11:48:51.308Z</time>
      </trkpt>
      <trkpt lat="45.05092" lon="5.40908">
        <ele>551.66</ele>
        <time>2022-07-31T11:49:02.538Z</time>
      </trkpt>
      <trkpt lat="45.05089" lon="5.40922">
        <ele>552.74</ele>
        <time>2022-07-31T11:49:13.469Z</time>
      </trkpt>
      <trkpt lat="45.05086" lon="5.40935">
        <ele>553.89</ele>
        <time>2022-07-31T11:49:23.529Z</time>
      </trkpt>
      <trkpt lat="45.05083" lon="5.40948">
        <ele>555.52</ele>
        <time>2022-07-31T11:49:32.533Z</time>
      </trkpt>
      <trkpt lat="45.0508" lon="5.40961">
        <ele>557.13</ele>
        <time>2022-07-31T11:49:41.545Z</time>
      </trkpt>
      <trkpt lat="45.05079" lon="5.40975">
        <ele>557.96</ele>
        <time>2022-07-31T11:49:50.642Z</time>
      </trkpt>
      <trkpt lat="45.05083" lon="5.40988">
        <ele>556.99</ele>
        <time>2022-07-31T11:50:00.161Z</time>
      </trkpt>
      <trkpt lat="45.05089" lon="5.41">
        <ele>555.69</ele>
        <time>2022-07-31T11:50:10.380Z</time>
      </trkpt>
      <trkpt lat="45.05092" lon="5.41012">
        <ele>555.76</ele>
        <time>2022-07-31T11:50:19.900Z</time>
      </trkpt>
      <trkpt lat="45.051" lon="5.41024">
        <ele>554.77</ele>
        <time>2022-07-31T11:50:29.472Z</time>
      </trkpt>
      <trkpt lat="45.05097" lon="5.41037">
        <ele>558.19</ele>
        <time>2022-07-31T11:50:40.149Z</time>
      </trkpt>
      <trkpt lat="45.05087" lon="5.41039">
        <ele>562.3</ele>
        <time>2022-07-31T11:50:49.645Z</time>
      </trkpt>
      <trkpt lat="45.05082" lon="5.41028">
        <ele>562.74</ele>
        <time>2022-07-31T11:51:01.999Z</time>
      </trkpt>
      <trkpt lat="45.05079" lon="5.41015">
        <ele>561.72</ele>
        <time>2022-07-31T11:53:39.460Z</time>
      </trkpt>
      <trkpt lat="45.05074" lon="5.41001">
        <ele>562.51</ele>
        <time>2022-07-31T11:53:49.443Z</time>
      </trkpt>
      <trkpt lat="45.05066" lon="5.40993">
        <ele>565.59</ele>
        <time>2022-07-31T11:53:58.682Z</time>
      </trkpt>
      <trkpt lat="45.05059" lon="5.40983">
        <ele>568.58</ele>
        <time>2022-07-31T11:54:08.224Z</time>
      </trkpt>
      <trkpt lat="45.05052" lon="5.40971">
        <ele>571.28</ele>
        <time>2022-07-31T11:54:18.302Z</time>
      </trkpt>
      <trkpt lat="45.05048" lon="5.40959">
        <ele>572.9</ele>
        <time>2022-07-31T11:54:29.422Z</time>
      </trkpt>
      <trkpt lat="45.05045" lon="5.40946">
        <ele>573.58</ele>
        <time>2022-07-31T11:54:38.471Z</time>
      </trkpt>
      <trkpt lat="45.05042" lon="5.40934">
        <ele>574.87</ele>
        <time>2022-07-31T11:54:47.931Z</time>
      </trkpt>
      <trkpt lat="45.05041" lon="5.4092">
        <ele>574.71</ele>
        <time>2022-07-31T11:54:57.668Z</time>
      </trkpt>
      <trkpt lat="45.05037" lon="5.40905">
        <ele>576.62</ele>
        <time>2022-07-31T11:55:07.656Z</time>
      </trkpt>
      <trkpt lat="45.05035" lon="5.40889">
        <ele>577.5</ele>
        <time>2022-07-31T11:55:16.999Z</time>
      </trkpt>
      <trkpt lat="45.05034" lon="5.40876">
        <ele>578.51</ele>
        <time>2022-07-31T11:55:26.584Z</time>
      </trkpt>
      <trkpt lat="45.05031" lon="5.40862">
        <ele>580.61</ele>
        <time>2022-07-31T11:55:36.323Z</time>
      </trkpt>
      <trkpt lat="45.05028" lon="5.40847">
        <ele>582.5</ele>
        <time>2022-07-31T11:55:45.520Z</time>
      </trkpt>
      <trkpt lat="45.05026" lon="5.40834">
        <ele>583.92</ele>
        <time>2022-07-31T11:55:55.543Z</time>
      </trkpt>
      <trkpt lat="45.05024" lon="5.40821">
        <ele>585.91</ele>
        <time>2022-07-31T11:56:06.640Z</time>
      </trkpt>
      <trkpt lat="45.05019" lon="5.40809">
        <ele>588.92</ele>
        <time>2022-07-31T11:56:20.999Z</time>
      </trkpt>
      <trkpt lat="45.05024" lon="5.40798">
        <ele>587.38</ele>
        <time>2022-07-31T11:56:36.190Z</time>
      </trkpt>
      <trkpt lat="45.05024" lon="5.40783">
        <ele>588.51</ele>
        <time>2022-07-31T11:56:45.538Z</time>
      </trkpt>
      <trkpt lat="45.05022" lon="5.40769">
        <ele>590.31</ele>
        <time>2022-07-31T11:57:00.564Z</time>
      </trkpt>
      <trkpt lat="45.05022" lon="5.40757">
        <ele>591.42</ele>
        <time>2022-07-31T11:57:11.533Z</time>
      </trkpt>
      <trkpt lat="45.0502" lon="5.40735">
        <ele>593.04</ele>
        <time>2022-07-31T11:57:21.530Z</time>
      </trkpt>
      <trkpt lat="45.05019" lon="5.40719">
        <ele>594.14</ele>
        <time>2022-07-31T11:57:30.622Z</time>
      </trkpt>
      <trkpt lat="45.05016" lon="5.40704">
        <ele>595.63</ele>
        <time>2022-07-31T11:57:39.999Z</time>
      </trkpt>
      <trkpt lat="45.05014" lon="5.40691">
        <ele>596.35</ele>
        <time>2022-07-31T11:57:49.049Z</time>
      </trkpt>
      <trkpt lat="45.05012" lon="5.40677">
        <ele>597.04</ele>
        <time>2022-07-31T11:57:58.570Z</time>
      </trkpt>
      <trkpt lat="45.05011" lon="5.40662">
        <ele>597.75</ele>
        <time>2022-07-31T11:58:08.309Z</time>
      </trkpt>
      <trkpt lat="45.05007" lon="5.4065">
        <ele>600</ele>
        <time>2022-07-31T11:58:18.713Z</time>
      </trkpt>
      <trkpt lat="45.05004" lon="5.40638">
        <ele>601.88</ele>
        <time>2022-07-31T11:58:29.285Z</time>
      </trkpt>
      <trkpt lat="45.05004" lon="5.40622">
        <ele>602.54</ele>
        <time>2022-07-31T11:58:38.304Z</time>
      </trkpt>
      <trkpt lat="45.05003" lon="5.40607">
        <ele>603.68</ele>
        <time>2022-07-31T11:58:47.445Z</time>
      </trkpt>
      <trkpt lat="45.05002" lon="5.40593">
        <ele>604.89</ele>
        <time>2022-07-31T11:58:57.000Z</time>
      </trkpt>
      <trkpt lat="45.04999" lon="5.40579">
        <ele>606.51</ele>
        <time>2022-07-31T11:59:07.542Z</time>
      </trkpt>
      <trkpt lat="45.04996" lon="5.40563">
        <ele>608.52</ele>
        <time>2022-07-31T11:59:17.561Z</time>
      </trkpt>
      <trkpt lat="45.04993" lon="5.40551">
        <ele>609.44</ele>
        <time>2022-07-31T11:59:26.671Z</time>
      </trkpt>
      <trkpt lat="45.04991" lon="5.40537">
        <ele>610.46</ele>
        <time>2022-07-31T11:59:37.409Z</time>
      </trkpt>
      <trkpt lat="45.04991" lon="5.40522">
        <ele>610.23</ele>
        <time>2022-07-31T11:59:46.625Z</time>
      </trkpt>
      <trkpt lat="45.04988" lon="5.40509">
        <ele>612.31</ele>
        <time>2022-07-31T11:59:58.366Z</time>
      </trkpt>
      <trkpt lat="45.04986" lon="5.40496">
        <ele>615.17</ele>
        <time>2022-07-31T12:00:09.384Z</time>
      </trkpt>
      <trkpt lat="45.04984" lon="5.40483">
        <ele>617.98</ele>
        <time>2022-07-31T12:00:25.644Z</time>
      </trkpt>
      <trkpt lat="45.04987" lon="5.40467">
        <ele>619.48</ele>
        <time>2022-07-31T12:00:35.083Z</time>
      </trkpt>
      <trkpt lat="45.04987" lon="5.40454">
        <ele>622.07</ele>
        <time>2022-07-31T12:00:44.593Z</time>
      </trkpt>
      <trkpt lat="45.04989" lon="5.40441">
        <ele>624.32</ele>
        <time>2022-07-31T12:00:54.210Z</time>
      </trkpt>
      <trkpt lat="45.04991" lon="5.40428">
        <ele>625.98</ele>
        <time>2022-07-31T12:01:03.588Z</time>
      </trkpt>
      <trkpt lat="45.04996" lon="5.40415">
        <ele>626.64</ele>
        <time>2022-07-31T12:01:14.428Z</time>
      </trkpt>
      <trkpt lat="45.05" lon="5.40404">
        <ele>627.17</ele>
        <time>2022-07-31T12:01:24.524Z</time>
      </trkpt>
      <trkpt lat="45.05006" lon="5.40394">
        <ele>626.74</ele>
        <time>2022-07-31T12:01:34.000Z</time>
      </trkpt>
      <trkpt lat="45.05017" lon="5.40391">
        <ele>621.6</ele>
        <time>2022-07-31T12:01:43.184Z</time>
      </trkpt>
      <trkpt lat="45.05021" lon="5.40378">
        <ele>623.65</ele>
        <time>2022-07-31T12:01:58.364Z</time>
      </trkpt>
      <trkpt lat="45.05023" lon="5.40365">
        <ele>626.34</ele>
        <time>2022-07-31T12:02:09.122Z</time>
      </trkpt>
      <trkpt lat="45.05027" lon="5.40353">
        <ele>627.3</ele>
        <time>2022-07-31T12:02:18.543Z</time>
      </trkpt>
      <trkpt lat="45.05031" lon="5.4034">
        <ele>626.96</ele>
        <time>2022-07-31T12:02:29.642Z</time>
      </trkpt>
      <trkpt lat="45.05036" lon="5.40328">
        <ele>625</ele>
        <time>2022-07-31T12:07:22.602Z</time>
      </trkpt>
      <trkpt lat="45.05032" lon="5.40316">
        <ele>625.38</ele>
        <time>2022-07-31T12:07:41.999Z</time>
      </trkpt>
      <trkpt lat="45.05024" lon="5.40309">
        <ele>627.5</ele>
        <time>2022-07-31T12:07:54.631Z</time>
      </trkpt>
      <trkpt lat="45.05014" lon="5.40306">
        <ele>631.2</ele>
        <time>2022-07-31T12:08:04.289Z</time>
      </trkpt>
      <trkpt lat="45.05004" lon="5.40305">
        <ele>635.4</ele>
        <time>2022-07-31T12:08:13.447Z</time>
      </trkpt>
      <trkpt lat="45.04991" lon="5.40305">
        <ele>641.02</ele>
        <time>2022-07-31T12:08:22.967Z</time>
      </trkpt>
      <trkpt lat="45.04981" lon="5.403">
        <ele>643.66</ele>
        <time>2022-07-31T12:08:35.546Z</time>
      </trkpt>
      <trkpt lat="45.04969" lon="5.4029">
        <ele>645.19</ele>
        <time>2022-07-31T12:08:44.823Z</time>
      </trkpt>
      <trkpt lat="45.04962" lon="5.4028">
        <ele>644.3</ele>
        <time>2022-07-31T12:08:54.305Z</time>
      </trkpt>
      <trkpt lat="45.04958" lon="5.40266">
        <ele>641.35</ele>
        <time>2022-07-31T12:09:04.283Z</time>
      </trkpt>
      <trkpt lat="45.04951" lon="5.40255">
        <ele>640.87</ele>
        <time>2022-07-31T12:09:14.446Z</time>
      </trkpt>
      <trkpt lat="45.04946" lon="5.40241">
        <ele>640.19</ele>
        <time>2022-07-31T12:09:24.535Z</time>
      </trkpt>
      <trkpt lat="45.04941" lon="5.40228">
        <ele>640.44</ele>
        <time>2022-07-31T12:09:34.538Z</time>
      </trkpt>
      <trkpt lat="45.04935" lon="5.40217">
        <ele>642.21</ele>
        <time>2022-07-31T12:09:45.591Z</time>
      </trkpt>
      <trkpt lat="45.04931" lon="5.40205">
        <ele>643.34</ele>
        <time>2022-07-31T12:09:57.128Z</time>
      </trkpt>
      <trkpt lat="45.04927" lon="5.40193">
        <ele>645.22</ele>
        <time>2022-07-31T12:10:06.684Z</time>
      </trkpt>
      <trkpt lat="45.04922" lon="5.4018">
        <ele>647.24</ele>
        <time>2022-07-31T12:10:16.725Z</time>
      </trkpt>
      <trkpt lat="45.04919" lon="5.40167">
        <ele>648.85</ele>
        <time>2022-07-31T12:10:27.425Z</time>
      </trkpt>
      <trkpt lat="45.04915" lon="5.40153">
        <ele>650.53</ele>
        <time>2022-07-31T12:10:37.443Z</time>
      </trkpt>
      <trkpt lat="45.04911" lon="5.4014">
        <ele>652.05</ele>
        <time>2022-07-31T12:10:46.680Z</time>
      </trkpt>
      <trkpt lat="45.04908" lon="5.40126">
        <ele>653.42</ele>
        <time>2022-07-31T12:10:56.322Z</time>
      </trkpt>
      <trkpt lat="45.04905" lon="5.40114">
        <ele>654.96</ele>
        <time>2022-07-31T12:11:07.330Z</time>
      </trkpt>
      <trkpt lat="45.04902" lon="5.40099">
        <ele>655.92</ele>
        <time>2022-07-31T12:11:16.991Z</time>
      </trkpt>
      <trkpt lat="45.049" lon="5.40085">
        <ele>657.01</ele>
        <time>2022-07-31T12:11:26.490Z</time>
      </trkpt>
      <trkpt lat="45.04901" lon="5.40072">
        <ele>656.85</ele>
        <time>2022-07-31T12:11:35.707Z</time>
      </trkpt>
      <trkpt lat="45.04904" lon="5.4006">
        <ele>655.74</ele>
        <time>2022-07-31T12:11:44.926Z</time>
      </trkpt>
      <trkpt lat="45.04906" lon="5.40045">
        <ele>655.3</ele>
        <time>2022-07-31T12:11:54.286Z</time>
      </trkpt>
      <trkpt lat="45.04906" lon="5.40028">
        <ele>656.17</ele>
        <time>2022-07-31T12:12:03.425Z</time>
      </trkpt>
      <trkpt lat="45.04905" lon="5.40015">
        <ele>657.77</ele>
        <time>2022-07-31T12:12:12.464Z</time>
      </trkpt>
      <trkpt lat="45.04908" lon="5.40002">
        <ele>657.44</ele>
        <time>2022-07-31T12:12:21.943Z</time>
      </trkpt>
      <trkpt lat="45.04908" lon="5.39989">
        <ele>658.41</ele>
        <time>2022-07-31T12:12:31.901Z</time>
      </trkpt>
      <trkpt lat="45.04911" lon="5.39976">
        <ele>658.86</ele>
        <time>2022-07-31T12:12:41.681Z</time>
      </trkpt>
      <trkpt lat="45.04913" lon="5.39964">
        <ele>659.46</ele>
        <time>2022-07-31T12:12:58.429Z</time>
      </trkpt>
      <trkpt lat="45.04916" lon="5.39951">
        <ele>659.79</ele>
        <time>2022-07-31T12:13:07.469Z</time>
      </trkpt>
      <trkpt lat="45.04921" lon="5.39937">
        <ele>658.92</ele>
        <time>2022-07-31T12:13:16.999Z</time>
      </trkpt>
      <trkpt lat="45.04927" lon="5.39927">
        <ele>657.32</ele>
        <time>2022-07-31T12:13:29.534Z</time>
      </trkpt>
      <trkpt lat="45.04928" lon="5.39911">
        <ele>658.32</ele>
        <time>2022-07-31T12:13:38.722Z</time>
      </trkpt>
      <trkpt lat="45.04931" lon="5.39892">
        <ele>658.49</ele>
        <time>2022-07-31T12:13:48.121Z</time>
      </trkpt>
      <trkpt lat="45.04935" lon="5.39877">
        <ele>657.42</ele>
        <time>2022-07-31T12:13:57.535Z</time>
      </trkpt>
      <trkpt lat="45.04938" lon="5.39865">
        <ele>656.75</ele>
        <time>2022-07-31T12:14:10.230Z</time>
      </trkpt>
      <trkpt lat="45.04946" lon="5.39844">
        <ele>654.77</ele>
        <time>2022-07-31T12:14:20.668Z</time>
      </trkpt>
      <trkpt lat="45.04951" lon="5.39824">
        <ele>655.74</ele>
        <time>2022-07-31T12:14:30.000Z</time>
      </trkpt>
      <trkpt lat="45.04956" lon="5.3981">
        <ele>657.17</ele>
        <time>2022-07-31T12:14:39.165Z</time>
      </trkpt>
      <trkpt lat="45.04958" lon="5.39796">
        <ele>660.61</ele>
        <time>2022-07-31T12:14:48.626Z</time>
      </trkpt>
      <trkpt lat="45.04962" lon="5.39784">
        <ele>662.01</ele>
        <time>2022-07-31T12:14:59.604Z</time>
      </trkpt>
      <trkpt lat="45.04969" lon="5.39775">
        <ele>661.39</ele>
        <time>2022-07-31T12:15:08.904Z</time>
      </trkpt>
      <trkpt lat="45.04975" lon="5.39763">
        <ele>660.78</ele>
        <time>2022-07-31T12:15:18.264Z</time>
      </trkpt>
      <trkpt lat="45.04982" lon="5.39753">
        <ele>658.96</ele>
        <time>2022-07-31T12:15:27.540Z</time>
      </trkpt>
      <trkpt lat="45.04988" lon="5.3974">
        <ele>657.41</ele>
        <time>2022-07-31T12:15:36.749Z</time>
      </trkpt>
      <trkpt lat="45.0499" lon="5.39725">
        <ele>656.97</ele>
        <time>2022-07-31T12:15:46.127Z</time>
      </trkpt>
      <trkpt lat="45.04997" lon="5.39712">
        <ele>652.71</ele>
        <time>2022-07-31T12:15:55.667Z</time>
      </trkpt>
      <trkpt lat="45.05006" lon="5.39699">
        <ele>646.99</ele>
        <time>2022-07-31T12:16:05.006Z</time>
      </trkpt>
      <trkpt lat="45.05012" lon="5.39689">
        <ele>643.25</ele>
        <time>2022-07-31T12:16:14.467Z</time>
      </trkpt>
      <trkpt lat="45.05017" lon="5.39676">
        <ele>640.94</ele>
        <time>2022-07-31T12:16:23.544Z</time>
      </trkpt>
      <trkpt lat="45.05021" lon="5.39657">
        <ele>641.53</ele>
        <time>2022-07-31T12:16:33.532Z</time>
      </trkpt>
      <trkpt lat="45.05024" lon="5.39642">
        <ele>643.09</ele>
        <time>2022-07-31T12:16:42.743Z</time>
      </trkpt>
      <trkpt lat="45.05028" lon="5.39627">
        <ele>644.78</ele>
        <time>2022-07-31T12:16:52.143Z</time>
      </trkpt>
      <trkpt lat="45.05033" lon="5.39615">
        <ele>645.17</ele>
        <time>2022-07-31T12:17:01.362Z</time>
      </trkpt>
      <trkpt lat="45.05039" lon="5.396">
        <ele>645.96</ele>
        <time>2022-07-31T12:17:10.690Z</time>
      </trkpt>
      <trkpt lat="45.05044" lon="5.39586">
        <ele>646.72</ele>
        <time>2022-07-31T12:17:20.171Z</time>
      </trkpt>
      <trkpt lat="45.0505" lon="5.39571">
        <ele>647.26</ele>
        <time>2022-07-31T12:17:29.346Z</time>
      </trkpt>
      <trkpt lat="45.05058" lon="5.39561">
        <ele>645.83</ele>
        <time>2022-07-31T12:17:38.647Z</time>
      </trkpt>
      <trkpt lat="45.05068" lon="5.39549">
        <ele>644.16</ele>
        <time>2022-07-31T12:17:47.967Z</time>
      </trkpt>
      <trkpt lat="45.05075" lon="5.39536">
        <ele>644.48</ele>
        <time>2022-07-31T12:17:57.284Z</time>
      </trkpt>
      <trkpt lat="45.05082" lon="5.39521">
        <ele>646.19</ele>
        <time>2022-07-31T12:18:06.744Z</time>
      </trkpt>
      <trkpt lat="45.05085" lon="5.39506">
        <ele>649.37</ele>
        <time>2022-07-31T12:18:16.104Z</time>
      </trkpt>
      <trkpt lat="45.05089" lon="5.39491">
        <ele>652.05</ele>
        <time>2022-07-31T12:18:25.370Z</time>
      </trkpt>
      <trkpt lat="45.05096" lon="5.39477">
        <ele>653.48</ele>
        <time>2022-07-31T12:18:34.629Z</time>
      </trkpt>
      <trkpt lat="45.05106" lon="5.39468">
        <ele>651.72</ele>
        <time>2022-07-31T12:18:43.950Z</time>
      </trkpt>
      <trkpt lat="45.05114" lon="5.39462">
        <ele>650.04</ele>
        <time>2022-07-31T12:18:54.631Z</time>
      </trkpt>
      <trkpt lat="45.05122" lon="5.39453">
        <ele>649.52</ele>
        <time>2022-07-31T12:19:03.870Z</time>
      </trkpt>
      <trkpt lat="45.0513" lon="5.39447">
        <ele>648.43</ele>
        <time>2022-07-31T12:19:13.187Z</time>
      </trkpt>
      <trkpt lat="45.05141" lon="5.39436">
        <ele>648.33</ele>
        <time>2022-07-31T12:19:22.335Z</time>
      </trkpt>
      <trkpt lat="45.0515" lon="5.39421">
        <ele>650.67</ele>
        <time>2022-07-31T12:19:32.000Z</time>
      </trkpt>
      <trkpt lat="45.05159" lon="5.39418">
        <ele>648.43</ele>
        <time>2022-07-31T12:19:41.123Z</time>
      </trkpt>
      <trkpt lat="45.05172" lon="5.39412">
        <ele>646.04</ele>
        <time>2022-07-31T12:19:50.249Z</time>
      </trkpt>
      <trkpt lat="45.05183" lon="5.39407">
        <ele>643.18</ele>
        <time>2022-07-31T12:19:59.351Z</time>
      </trkpt>
      <trkpt lat="45.05194" lon="5.39403">
        <ele>640.5</ele>
        <time>2022-07-31T12:20:08.470Z</time>
      </trkpt>
      <trkpt lat="45.05204" lon="5.39394">
        <ele>640.14</ele>
        <time>2022-07-31T12:20:18.527Z</time>
      </trkpt>
      <trkpt lat="45.05214" lon="5.39383">
        <ele>640.59</ele>
        <time>2022-07-31T12:20:27.531Z</time>
      </trkpt>
      <trkpt lat="45.05224" lon="5.39372">
        <ele>641.2</ele>
        <time>2022-07-31T12:20:36.607Z</time>
      </trkpt>
      <trkpt lat="45.05233" lon="5.3936">
        <ele>642.14</ele>
        <time>2022-07-31T12:20:46.288Z</time>
      </trkpt>
      <trkpt lat="45.05246" lon="5.39352">
        <ele>640.2</ele>
        <time>2022-07-31T12:20:55.384Z</time>
      </trkpt>
      <trkpt lat="45.05258" lon="5.39345">
        <ele>638.62</ele>
        <time>2022-07-31T12:21:05.465Z</time>
      </trkpt>
      <trkpt lat="45.05266" lon="5.39338">
        <ele>638.19</ele>
        <time>2022-07-31T12:21:14.529Z</time>
      </trkpt>
      <trkpt lat="45.05276" lon="5.3933">
        <ele>637.06</ele>
        <time>2022-07-31T12:21:23.650Z</time>
      </trkpt>
      <trkpt lat="45.05285" lon="5.39326">
        <ele>635.23</ele>
        <time>2022-07-31T12:21:34.930Z</time>
      </trkpt>
      <trkpt lat="45.05296" lon="5.39323">
        <ele>632.09</ele>
        <time>2022-07-31T12:21:44.346Z</time>
      </trkpt>
      <trkpt lat="45.05308" lon="5.39317">
        <ele>629.87</ele>
        <time>2022-07-31T12:21:53.766Z</time>
      </trkpt>
      <trkpt lat="45.05321" lon="5.39309">
        <ele>629.04</ele>
        <time>2022-07-31T12:22:02.925Z</time>
      </trkpt>
      <trkpt lat="45.05334" lon="5.393">
        <ele>629</ele>
        <time>2022-07-31T12:22:12.185Z</time>
      </trkpt>
      <trkpt lat="45.05349" lon="5.39295">
        <ele>627.44</ele>
        <time>2022-07-31T12:22:22.204Z</time>
      </trkpt>
      <trkpt lat="45.05362" lon="5.39292">
        <ele>624.94</ele>
        <time>2022-07-31T12:22:31.681Z</time>
      </trkpt>
      <trkpt lat="45.05375" lon="5.39287">
        <ele>623.87</ele>
        <time>2022-07-31T12:22:41.640Z</time>
      </trkpt>
      <trkpt lat="45.05387" lon="5.39281">
        <ele>623.22</ele>
        <time>2022-07-31T12:22:51.210Z</time>
      </trkpt>
      <trkpt lat="45.05397" lon="5.39279">
        <ele>621.82</ele>
        <time>2022-07-31T12:23:00.617Z</time>
      </trkpt>
      <trkpt lat="45.05411" lon="5.39274">
        <ele>620.83</ele>
        <time>2022-07-31T12:23:10.029Z</time>
      </trkpt>
      <trkpt lat="45.05425" lon="5.3927">
        <ele>620.4</ele>
        <time>2022-07-31T12:23:19.544Z</time>
      </trkpt>
      <trkpt lat="45.05441" lon="5.39267">
        <ele>621.52</ele>
        <time>2022-07-31T12:23:28.965Z</time>
      </trkpt>
      <trkpt lat="45.05458" lon="5.39264">
        <ele>622.95</ele>
        <time>2022-07-31T12:23:38.546Z</time>
      </trkpt>
      <trkpt lat="45.05473" lon="5.39265">
        <ele>623.11</ele>
        <time>2022-07-31T12:23:48.403Z</time>
      </trkpt>
      <trkpt lat="45.05488" lon="5.39261">
        <ele>624</ele>
        <time>2022-07-31T12:23:58.382Z</time>
      </trkpt>
      <trkpt lat="45.055" lon="5.39254">
        <ele>625.34</ele>
        <time>2022-07-31T12:24:08.370Z</time>
      </trkpt>
      <trkpt lat="45.05509" lon="5.39246">
        <ele>626.17</ele>
        <time>2022-07-31T12:24:17.472Z</time>
      </trkpt>
      <trkpt lat="45.05519" lon="5.39237">
        <ele>626.43</ele>
        <time>2022-07-31T12:24:27.388Z</time>
      </trkpt>
      <trkpt lat="45.05532" lon="5.39231">
        <ele>623.42</ele>
        <time>2022-07-31T12:24:37.448Z</time>
      </trkpt>
      <trkpt lat="45.05544" lon="5.39221">
        <ele>621.66</ele>
        <time>2022-07-31T12:24:47.349Z</time>
      </trkpt>
      <trkpt lat="45.05555" lon="5.39211">
        <ele>620.29</ele>
        <time>2022-07-31T12:24:57.287Z</time>
      </trkpt>
      <trkpt lat="45.05566" lon="5.39203">
        <ele>619.02</ele>
        <time>2022-07-31T12:25:07.368Z</time>
      </trkpt>
      <trkpt lat="45.05575" lon="5.39198">
        <ele>617.34</ele>
        <time>2022-07-31T12:25:17.386Z</time>
      </trkpt>
      <trkpt lat="45.05587" lon="5.39194">
        <ele>615.05</ele>
        <time>2022-07-31T12:25:27.425Z</time>
      </trkpt>
      <trkpt lat="45.05597" lon="5.39188">
        <ele>614.77</ele>
        <time>2022-07-31T12:25:36.584Z</time>
      </trkpt>
      <trkpt lat="45.05605" lon="5.39179">
        <ele>616.75</ele>
        <time>2022-07-31T12:25:45.721Z</time>
      </trkpt>
      <trkpt lat="45.05614" lon="5.39175">
        <ele>616.27</ele>
        <time>2022-07-31T12:25:55.788Z</time>
      </trkpt>
      <trkpt lat="45.05628" lon="5.39171">
        <ele>614.37</ele>
        <time>2022-07-31T12:26:04.852Z</time>
      </trkpt>
      <trkpt lat="45.05642" lon="5.39166">
        <ele>613.9</ele>
        <time>2022-07-31T12:26:13.969Z</time>
      </trkpt>
      <trkpt lat="45.05655" lon="5.39163">
        <ele>612.31</ele>
        <time>2022-07-31T12:26:23.492Z</time>
      </trkpt>
      <trkpt lat="45.05667" lon="5.39159">
        <ele>611.59</ele>
        <time>2022-07-31T12:26:32.630Z</time>
      </trkpt>
      <trkpt lat="45.0568" lon="5.39157">
        <ele>609.76</ele>
        <time>2022-07-31T12:26:41.668Z</time>
      </trkpt>
      <trkpt lat="45.05693" lon="5.39157">
        <ele>607.52</ele>
        <time>2022-07-31T12:26:50.708Z</time>
      </trkpt>
      <trkpt lat="45.05706" lon="5.39156">
        <ele>605.46</ele>
        <time>2022-07-31T12:27:00.208Z</time>
      </trkpt>
      <trkpt lat="45.05718" lon="5.39154">
        <ele>604.3</ele>
        <time>2022-07-31T12:27:09.307Z</time>
      </trkpt>
      <trkpt lat="45.05729" lon="5.39152">
        <ele>603.45</ele>
        <time>2022-07-31T12:27:18.387Z</time>
      </trkpt>
      <trkpt lat="45.05742" lon="5.39149">
        <ele>602.93</ele>
        <time>2022-07-31T12:27:27.886Z</time>
      </trkpt>
      <trkpt lat="45.05754" lon="5.39147">
        <ele>602.42</ele>
        <time>2022-07-31T12:27:36.989Z</time>
      </trkpt>
      <trkpt lat="45.05764" lon="5.39147">
        <ele>601.06</ele>
        <time>2022-07-31T12:27:46.106Z</time>
      </trkpt>
      <trkpt lat="45.05773" lon="5.39144">
        <ele>601.36</ele>
        <time>2022-07-31T12:28:03.999Z</time>
      </trkpt>
      <trkpt lat="45.05783" lon="5.39146">
        <ele>600.09</ele>
        <time>2022-07-31T12:28:13.690Z</time>
      </trkpt>
      <trkpt lat="45.05794" lon="5.39146">
        <ele>598.97</ele>
        <time>2022-07-31T12:28:22.908Z</time>
      </trkpt>
      <trkpt lat="45.05804" lon="5.39144">
        <ele>598.31</ele>
        <time>2022-07-31T12:28:32.126Z</time>
      </trkpt>
      <trkpt lat="45.05815" lon="5.39139">
        <ele>598.39</ele>
        <time>2022-07-31T12:28:41.586Z</time>
      </trkpt>
      <trkpt lat="45.05825" lon="5.39138">
        <ele>596.29</ele>
        <time>2022-07-31T12:28:50.664Z</time>
      </trkpt>
      <trkpt lat="45.05838" lon="5.39138">
        <ele>592.16</ele>
        <time>2022-07-31T12:29:00.285Z</time>
      </trkpt>
      <trkpt lat="45.05851" lon="5.3913">
        <ele>588.5</ele>
        <time>2022-07-31T12:29:09.462Z</time>
      </trkpt>
      <trkpt lat="45.05858" lon="5.39116">
        <ele>588.02</ele>
        <time>2022-07-31T12:29:18.920Z</time>
      </trkpt>
      <trkpt lat="45.05862" lon="5.39098">
        <ele>589.71</ele>
        <time>2022-07-31T12:29:27.945Z</time>
      </trkpt>
      <trkpt lat="45.05867" lon="5.39082">
        <ele>592.07</ele>
        <time>2022-07-31T12:29:37.324Z</time>
      </trkpt>
      <trkpt lat="45.05872" lon="5.39066">
        <ele>594.75</ele>
        <time>2022-07-31T12:29:46.699Z</time>
      </trkpt>
      <trkpt lat="45.05879" lon="5.39052">
        <ele>595.78</ele>
        <time>2022-07-31T12:29:55.739Z</time>
      </trkpt>
      <trkpt lat="45.05886" lon="5.39041">
        <ele>594.91</ele>
        <time>2022-07-31T12:30:04.844Z</time>
      </trkpt>
      <trkpt lat="45.05893" lon="5.39028">
        <ele>594.1</ele>
        <time>2022-07-31T12:30:14.230Z</time>
      </trkpt>
      <trkpt lat="45.059" lon="5.39013">
        <ele>594.27</ele>
        <time>2022-07-31T12:30:23.287Z</time>
      </trkpt>
      <trkpt lat="45.05906" lon="5.38999">
        <ele>595.87</ele>
        <time>2022-07-31T12:30:32.367Z</time>
      </trkpt>
      <trkpt lat="45.05915" lon="5.38989">
        <ele>592.39</ele>
        <time>2022-07-31T12:30:41.565Z</time>
      </trkpt>
      <trkpt lat="45.05932" lon="5.3898">
        <ele>584.79</ele>
        <time>2022-07-31T12:30:51.000Z</time>
      </trkpt>
      <trkpt lat="45.0594" lon="5.38967">
        <ele>586.77</ele>
        <time>2022-07-31T12:31:00.704Z</time>
      </trkpt>
      <trkpt lat="45.05945" lon="5.38956">
        <ele>590.35</ele>
        <time>2022-07-31T12:31:11.626Z</time>
      </trkpt>
      <trkpt lat="45.05952" lon="5.38943">
        <ele>592.44</ele>
        <time>2022-07-31T12:31:20.862Z</time>
      </trkpt>
      <trkpt lat="45.0596" lon="5.3893">
        <ele>594.2</ele>
        <time>2022-07-31T12:31:30.322Z</time>
      </trkpt>
      <trkpt lat="45.05971" lon="5.3892">
        <ele>591.28</ele>
        <time>2022-07-31T12:31:40.539Z</time>
      </trkpt>
      <trkpt lat="45.05984" lon="5.38911">
        <ele>587.32</ele>
        <time>2022-07-31T12:31:49.993Z</time>
      </trkpt>
      <trkpt lat="45.05991" lon="5.38899">
        <ele>586.78</ele>
        <time>2022-07-31T12:31:59.427Z</time>
      </trkpt>
      <trkpt lat="45.05995" lon="5.38887">
        <ele>588.3</ele>
        <time>2022-07-31T12:32:08.846Z</time>
      </trkpt>
      <trkpt lat="45.06003" lon="5.38876">
        <ele>586.72</ele>
        <time>2022-07-31T12:32:18.225Z</time>
      </trkpt>
      <trkpt lat="45.06009" lon="5.38864">
        <ele>586.3</ele>
        <time>2022-07-31T12:32:27.308Z</time>
      </trkpt>
      <trkpt lat="45.06017" lon="5.38852">
        <ele>585.14</ele>
        <time>2022-07-31T12:32:36.445Z</time>
      </trkpt>
      <trkpt lat="45.06021" lon="5.38836">
        <ele>586.41</ele>
        <time>2022-07-31T12:32:45.533Z</time>
      </trkpt>
      <trkpt lat="45.06026" lon="5.38818">
        <ele>587.4</ele>
        <time>2022-07-31T12:32:55.123Z</time>
      </trkpt>
      <trkpt lat="45.0603" lon="5.38803">
        <ele>587.94</ele>
        <time>2022-07-31T12:33:04.553Z</time>
      </trkpt>
      <trkpt lat="45.06032" lon="5.3879">
        <ele>588.69</ele>
        <time>2022-07-31T12:33:19.408Z</time>
      </trkpt>
      <trkpt lat="45.06034" lon="5.38773">
        <ele>589.79</ele>
        <time>2022-07-31T12:33:28.467Z</time>
      </trkpt>
      <trkpt lat="45.06035" lon="5.38759">
        <ele>591.34</ele>
        <time>2022-07-31T12:33:38.425Z</time>
      </trkpt>
      <trkpt lat="45.06038" lon="5.38746">
        <ele>592.17</ele>
        <time>2022-07-31T12:33:49.287Z</time>
      </trkpt>
      <trkpt lat="45.06036" lon="5.38727">
        <ele>596.01</ele>
        <time>2022-07-31T12:33:58.587Z</time>
      </trkpt>
      <trkpt lat="45.06039" lon="5.38709">
        <ele>598.13</ele>
        <time>2022-07-31T12:34:08.415Z</time>
      </trkpt>
      <trkpt lat="45.06043" lon="5.38691">
        <ele>598.5</ele>
        <time>2022-07-31T12:34:18.422Z</time>
      </trkpt>
      <trkpt lat="45.06046" lon="5.38674">
        <ele>599.21</ele>
        <time>2022-07-31T12:34:27.683Z</time>
      </trkpt>
      <trkpt lat="45.06044" lon="5.38657">
        <ele>601.84</ele>
        <time>2022-07-31T12:34:36.736Z</time>
      </trkpt>
      <trkpt lat="45.06044" lon="5.38643">
        <ele>602.38</ele>
        <time>2022-07-31T12:34:45.768Z</time>
      </trkpt>
      <trkpt lat="45.06045" lon="5.38627">
        <ele>602.66</ele>
        <time>2022-07-31T12:34:55.266Z</time>
      </trkpt>
      <trkpt lat="45.0604" lon="5.3861">
        <ele>604.92</ele>
        <time>2022-07-31T12:35:04.586Z</time>
      </trkpt>
      <trkpt lat="45.06037" lon="5.38594">
        <ele>605.96</ele>
        <time>2022-07-31T12:35:14.535Z</time>
      </trkpt>
      <trkpt lat="45.0604" lon="5.38577">
        <ele>603.44</ele>
        <time>2022-07-31T12:35:24.006Z</time>
      </trkpt>
      <trkpt lat="45.06039" lon="5.38563">
        <ele>602.22</ele>
        <time>2022-07-31T12:35:33.383Z</time>
      </trkpt>
      <trkpt lat="45.06038" lon="5.38551">
        <ele>600.57</ele>
        <time>2022-07-31T12:35:42.443Z</time>
      </trkpt>
      <trkpt lat="45.06033" lon="5.38539">
        <ele>601.04</ele>
        <time>2022-07-31T12:35:51.761Z</time>
      </trkpt>
      <trkpt lat="45.06026" lon="5.38523">
        <ele>601.96</ele>
        <time>2022-07-31T12:36:00.972Z</time>
      </trkpt>
      <trkpt lat="45.06017" lon="5.38509">
        <ele>604.08</ele>
        <time>2022-07-31T12:36:10.391Z</time>
      </trkpt>
      <trkpt lat="45.06012" lon="5.38494">
        <ele>604.34</ele>
        <time>2022-07-31T12:36:19.556Z</time>
      </trkpt>
      <trkpt lat="45.06005" lon="5.3848">
        <ele>604.6</ele>
        <time>2022-07-31T12:36:28.908Z</time>
      </trkpt>
      <trkpt lat="45.06" lon="5.38467">
        <ele>603.99</ele>
        <time>2022-07-31T12:36:38.206Z</time>
      </trkpt>
      <trkpt lat="45.05995" lon="5.38451">
        <ele>602.34</ele>
        <time>2022-07-31T12:36:47.425Z</time>
      </trkpt>
      <trkpt lat="45.05993" lon="5.38436">
        <ele>599.29</ele>
        <time>2022-07-31T12:36:56.603Z</time>
      </trkpt>
      <trkpt lat="45.0599" lon="5.38422">
        <ele>597.5</ele>
        <time>2022-07-31T12:37:05.782Z</time>
      </trkpt>
      <trkpt lat="45.05987" lon="5.38408">
        <ele>596.79</ele>
        <time>2022-07-31T12:37:14.882Z</time>
      </trkpt>
      <trkpt lat="45.0598" lon="5.38393">
        <ele>597.79</ele>
        <time>2022-07-31T12:37:24.028Z</time>
      </trkpt>
      <trkpt lat="45.05976" lon="5.38379">
        <ele>597.79</ele>
        <time>2022-07-31T12:37:33.109Z</time>
      </trkpt>
      <trkpt lat="45.05972" lon="5.38362">
        <ele>597.71</ele>
        <time>2022-07-31T12:37:42.268Z</time>
      </trkpt>
      <trkpt lat="45.05967" lon="5.38343">
        <ele>597.07</ele>
        <time>2022-07-31T12:37:51.999Z</time>
      </trkpt>
      <trkpt lat="45.05963" lon="5.38331">
        <ele>597.2</ele>
        <time>2022-07-31T12:38:01.006Z</time>
      </trkpt>
      <trkpt lat="45.05958" lon="5.38315">
        <ele>596.96</ele>
        <time>2022-07-31T12:38:10.723Z</time>
      </trkpt>
      <trkpt lat="45.05951" lon="5.383">
        <ele>598.06</ele>
        <time>2022-07-31T12:38:19.862Z</time>
      </trkpt>
      <trkpt lat="45.05948" lon="5.38287">
        <ele>597.62</ele>
        <time>2022-07-31T12:38:29.042Z</time>
      </trkpt>
      <trkpt lat="45.05947" lon="5.38272">
        <ele>595.86</ele>
        <time>2022-07-31T12:38:38.202Z</time>
      </trkpt>
      <trkpt lat="45.05943" lon="5.38256">
        <ele>595.12</ele>
        <time>2022-07-31T12:38:48.361Z</time>
      </trkpt>
      <trkpt lat="45.05935" lon="5.38242">
        <ele>597.26</ele>
        <time>2022-07-31T12:38:57.611Z</time>
      </trkpt>
      <trkpt lat="45.05927" lon="5.3823">
        <ele>600.61</ele>
        <time>2022-07-31T12:39:07.311Z</time>
      </trkpt>
      <trkpt lat="45.05921" lon="5.38213">
        <ele>601.93</ele>
        <time>2022-07-31T12:39:16.999Z</time>
      </trkpt>
      <trkpt lat="45.05922" lon="5.38199">
        <ele>599.65</ele>
        <time>2022-07-31T12:39:27.269Z</time>
      </trkpt>
      <trkpt lat="45.05923" lon="5.38184">
        <ele>596.76</ele>
        <time>2022-07-31T12:39:36.405Z</time>
      </trkpt>
      <trkpt lat="45.05924" lon="5.38166">
        <ele>593.77</ele>
        <time>2022-07-31T12:39:45.524Z</time>
      </trkpt>
      <trkpt lat="45.05921" lon="5.38148">
        <ele>592.91</ele>
        <time>2022-07-31T12:39:54.642Z</time>
      </trkpt>
      <trkpt lat="45.05917" lon="5.38131">
        <ele>593.43</ele>
        <time>2022-07-31T12:40:04.222Z</time>
      </trkpt>
      <trkpt lat="45.05915" lon="5.38115">
        <ele>592.42</ele>
        <time>2022-07-31T12:40:13.252Z</time>
      </trkpt>
      <trkpt lat="45.05915" lon="5.38097">
        <ele>590.07</ele>
        <time>2022-07-31T12:40:22.539Z</time>
      </trkpt>
      <trkpt lat="45.05915" lon="5.38082">
        <ele>589.21</ele>
        <time>2022-07-31T12:40:31.606Z</time>
      </trkpt>
      <trkpt lat="45.05917" lon="5.38064">
        <ele>586.55</ele>
        <time>2022-07-31T12:40:41.048Z</time>
      </trkpt>
      <trkpt lat="45.05915" lon="5.38049">
        <ele>586.99</ele>
        <time>2022-07-31T12:40:50.207Z</time>
      </trkpt>
      <trkpt lat="45.05912" lon="5.38035">
        <ele>588.56</ele>
        <time>2022-07-31T12:40:59.665Z</time>
      </trkpt>
      <trkpt lat="45.05909" lon="5.38023">
        <ele>590.33</ele>
        <time>2022-07-31T12:41:10.764Z</time>
      </trkpt>
      <trkpt lat="45.05908" lon="5.38007">
        <ele>592.32</ele>
        <time>2022-07-31T12:41:20.263Z</time>
      </trkpt>
      <trkpt lat="45.05919" lon="5.37995">
        <ele>590.47</ele>
        <time>2022-07-31T12:41:30.281Z</time>
      </trkpt>
      <trkpt lat="45.05927" lon="5.37986">
        <ele>590.56</ele>
        <time>2022-07-31T12:41:39.700Z</time>
      </trkpt>
      <trkpt lat="45.05936" lon="5.3798">
        <ele>590.57</ele>
        <time>2022-07-31T12:41:49.240Z</time>
      </trkpt>
      <trkpt lat="45.05944" lon="5.37974">
        <ele>590.23</ele>
        <time>2022-07-31T12:41:59.420Z</time>
      </trkpt>
      <trkpt lat="45.05954" lon="5.37961">
        <ele>592.91</ele>
        <time>2022-07-31T12:42:09.242Z</time>
      </trkpt>
      <trkpt lat="45.0596" lon="5.37951">
        <ele>594.99</ele>
        <time>2022-07-31T12:42:19.471Z</time>
      </trkpt>
      <trkpt lat="45.05969" lon="5.37939">
        <ele>595.21</ele>
        <time>2022-07-31T12:42:29.109Z</time>
      </trkpt>
      <trkpt lat="45.0598" lon="5.37927">
        <ele>592.37</ele>
        <time>2022-07-31T12:42:38.647Z</time>
      </trkpt>
      <trkpt lat="45.05987" lon="5.37915">
        <ele>590.98</ele>
        <time>2022-07-31T12:42:48.448Z</time>
      </trkpt>
      <trkpt lat="45.05989" lon="5.37902">
        <ele>591.32</ele>
        <time>2022-07-31T12:42:59.064Z</time>
      </trkpt>
      <trkpt lat="45.05992" lon="5.37889">
        <ele>590.43</ele>
        <time>2022-07-31T12:43:28.664Z</time>
      </trkpt>
      <trkpt lat="45.06" lon="5.37882">
        <ele>585.69</ele>
        <time>2022-07-31T12:44:08.607Z</time>
      </trkpt>
      <trkpt lat="45.05997" lon="5.37868">
        <ele>587.77</ele>
        <time>2022-07-31T12:44:18.147Z</time>
      </trkpt>
      <trkpt lat="45.05997" lon="5.37855">
        <ele>587.49</ele>
        <time>2022-07-31T12:44:35.327Z</time>
      </trkpt>
      <trkpt lat="45.05999" lon="5.37833">
        <ele>586.9</ele>
        <time>2022-07-31T12:44:45.686Z</time>
      </trkpt>
      <trkpt lat="45.05999" lon="5.37816">
        <ele>587.94</ele>
        <time>2022-07-31T12:44:55.166Z</time>
      </trkpt>
      <trkpt lat="45.06006" lon="5.37798">
        <ele>585.27</ele>
        <time>2022-07-31T12:45:04.705Z</time>
      </trkpt>
      <trkpt lat="45.06007" lon="5.37782">
        <ele>585.8</ele>
        <time>2022-07-31T12:45:14.183Z</time>
      </trkpt>
      <trkpt lat="45.06011" lon="5.37771">
        <ele>584.18</ele>
        <time>2022-07-31T12:45:27.748Z</time>
      </trkpt>
      <trkpt lat="45.06014" lon="5.37759">
        <ele>582.37</ele>
        <time>2022-07-31T12:45:38.000Z</time>
      </trkpt>
      <trkpt lat="45.06018" lon="5.37746">
        <ele>579.8</ele>
        <time>2022-07-31T12:45:50.682Z</time>
      </trkpt>
      <trkpt lat="45.06019" lon="5.37727">
        <ele>577.36</ele>
        <time>2022-07-31T12:45:59.743Z</time>
      </trkpt>
      <trkpt lat="45.06024" lon="5.37709">
        <ele>572.47</ele>
        <time>2022-07-31T12:46:09.361Z</time>
      </trkpt>
      <trkpt lat="45.0603" lon="5.37691">
        <ele>566.6</ele>
        <time>2022-07-31T12:46:18.455Z</time>
      </trkpt>
      <trkpt lat="45.06031" lon="5.37674">
        <ele>562.75</ele>
        <time>2022-07-31T12:46:27.545Z</time>
      </trkpt>
      <trkpt lat="45.06026" lon="5.37664">
        <ele>561.51</ele>
        <time>2022-07-31T12:46:36.791Z</time>
      </trkpt>
      <trkpt lat="45.06018" lon="5.37655">
        <ele>561.19</ele>
        <time>2022-07-31T12:46:45.805Z</time>
      </trkpt>
      <trkpt lat="45.06007" lon="5.37648">
        <ele>562.07</ele>
        <time>2022-07-31T12:46:54.886Z</time>
      </trkpt>
      <trkpt lat="45.05996" lon="5.37645">
        <ele>564.68</ele>
        <time>2022-07-31T12:47:03.925Z</time>
      </trkpt>
      <trkpt lat="45.05985" lon="5.37638">
        <ele>565.4</ele>
        <time>2022-07-31T12:47:13.006Z</time>
      </trkpt>
      <trkpt lat="45.05975" lon="5.3763">
        <ele>565.41</ele>
        <time>2022-07-31T12:47:22.586Z</time>
      </trkpt>
      <trkpt lat="45.05966" lon="5.37617">
        <ele>563.1</ele>
        <time>2022-07-31T12:47:32.005Z</time>
      </trkpt>
      <trkpt lat="45.05958" lon="5.37604">
        <ele>560.7</ele>
        <time>2022-07-31T12:47:41.481Z</time>
      </trkpt>
      <trkpt lat="45.05951" lon="5.37591">
        <ele>558.34</ele>
        <time>2022-07-31T12:47:50.571Z</time>
      </trkpt>
      <trkpt lat="45.05943" lon="5.37578">
        <ele>556.36</ele>
        <time>2022-07-31T12:47:59.671Z</time>
      </trkpt>
      <trkpt lat="45.05934" lon="5.37565">
        <ele>554.64</ele>
        <time>2022-07-31T12:48:08.758Z</time>
      </trkpt>
      <trkpt lat="45.05927" lon="5.37555">
        <ele>553.68</ele>
        <time>2022-07-31T12:48:17.950Z</time>
      </trkpt>
      <trkpt lat="45.05917" lon="5.37546">
        <ele>553.39</ele>
        <time>2022-07-31T12:48:27.093Z</time>
      </trkpt>
      <trkpt lat="45.0591" lon="5.37535">
        <ele>552.35</ele>
        <time>2022-07-31T12:48:36.304Z</time>
      </trkpt>
      <trkpt lat="45.05903" lon="5.37521">
        <ele>549.89</ele>
        <time>2022-07-31T12:48:45.362Z</time>
      </trkpt>
      <trkpt lat="45.05894" lon="5.3751">
        <ele>550.25</ele>
        <time>2022-07-31T12:48:54.604Z</time>
      </trkpt>
      <trkpt lat="45.05885" lon="5.37499">
        <ele>551.37</ele>
        <time>2022-07-31T12:49:04.045Z</time>
      </trkpt>
      <trkpt lat="45.05877" lon="5.37487">
        <ele>551.87</ele>
        <time>2022-07-31T12:49:13.463Z</time>
      </trkpt>
      <trkpt lat="45.05871" lon="5.37476">
        <ele>551.64</ele>
        <time>2022-07-31T12:49:22.522Z</time>
      </trkpt>
      <trkpt lat="45.05862" lon="5.37465">
        <ele>551.58</ele>
        <time>2022-07-31T12:49:31.551Z</time>
      </trkpt>
      <trkpt lat="45.05856" lon="5.3745">
        <ele>548.58</ele>
        <time>2022-07-31T12:49:40.970Z</time>
      </trkpt>
      <trkpt lat="45.05849" lon="5.37436">
        <ele>545.94</ele>
        <time>2022-07-31T12:49:50.130Z</time>
      </trkpt>
      <trkpt lat="45.05841" lon="5.37423">
        <ele>543.53</ele>
        <time>2022-07-31T12:49:59.605Z</time>
      </trkpt>
      <trkpt lat="45.05832" lon="5.37414">
        <ele>542.45</ele>
        <time>2022-07-31T12:50:09.064Z</time>
      </trkpt>
      <trkpt lat="45.05822" lon="5.37409">
        <ele>541.53</ele>
        <time>2022-07-31T12:50:18.205Z</time>
      </trkpt>
      <trkpt lat="45.05809" lon="5.37406">
        <ele>540.71</ele>
        <time>2022-07-31T12:50:27.491Z</time>
      </trkpt>
      <trkpt lat="45.05796" lon="5.37405">
        <ele>539.57</ele>
        <time>2022-07-31T12:50:36.641Z</time>
      </trkpt>
      <trkpt lat="45.05785" lon="5.37405">
        <ele>538.26</ele>
        <time>2022-07-31T12:50:46.403Z</time>
      </trkpt>
      <trkpt lat="45.05773" lon="5.37412">
        <ele>538.58</ele>
        <time>2022-07-31T12:50:56.210Z</time>
      </trkpt>
      <trkpt lat="45.05764" lon="5.37415">
        <ele>538</ele>
        <time>2022-07-31T12:51:39.000Z</time>
      </trkpt>
      <trkpt lat="45.05754" lon="5.37429">
        <ele>549.9</ele>
        <time>2022-07-31T12:52:45.089Z</time>
      </trkpt>
      <trkpt lat="45.05738" lon="5.37441">
        <ele>547.9</ele>
        <time>2022-07-31T12:52:56.228Z</time>
      </trkpt>
      <trkpt lat="45.05725" lon="5.37442">
        <ele>544.3</ele>
        <time>2022-07-31T12:53:09.566Z</time>
      </trkpt>
      <trkpt lat="45.05716" lon="5.37438">
        <ele>542.5</ele>
        <time>2022-07-31T12:53:25.045Z</time>
      </trkpt>
      <trkpt lat="45.05709" lon="5.37432">
        <ele>540.8</ele>
      </trkpt>
      <trkpt lat="45.05702" lon="5.37435">
        <ele>533.87</ele>
        <time>2022-07-31T12:54:26.150Z</time>
      </trkpt>
      <trkpt lat="45.05693" lon="5.37427">
        <ele>530.51</ele>
        <time>2022-07-31T12:54:35.208Z</time>
      </trkpt>
      <trkpt lat="45.05685" lon="5.37415">
        <ele>526.32</ele>
        <time>2022-07-31T12:54:44.411Z</time>
      </trkpt>
      <trkpt lat="45.05683" lon="5.37403">
        <ele>522.66</ele>
        <time>2022-07-31T12:55:01.966Z</time>
      </trkpt>
      <trkpt lat="45.05677" lon="5.37395">
        <ele>520.27</ele>
        <time>2022-07-31T13:06:42.431Z</time>
        <extensions>
          <visugpx:TrkExtension xmlns:visugpx="https://www.visugpx.com/editgpx/">
            <visugpx:node>9</visugpx:node>
            </visugpx:TrkExtension>
        </extensions>
      </trkpt>
      <trkpt lat="45.05675" lon="5.37386">
        <ele>530.9</ele>
      </trkpt>
      <trkpt lat="45.05658" lon="5.37376">
        <ele>531.9</ele>
      </trkpt>
      <trkpt lat="45.05647" lon="5.37366">
        <ele>532.7</ele>
      </trkpt>
      <trkpt lat="45.0564" lon="5.37358">
        <ele>532.7</ele>
      </trkpt>
      <trkpt lat="45.05635" lon="5.37353">
        <ele>532.6</ele>
      </trkpt>
      <trkpt lat="45.05631" lon="5.3735">
        <ele>532.8</ele>
      </trkpt>
      <trkpt lat="45.05626" lon="5.37347">
        <ele>533.2</ele>
      </trkpt>
      <trkpt lat="45.05618" lon="5.37345">
        <ele>534.6</ele>
      </trkpt>
      <trkpt lat="45.0561" lon="5.37344">
        <ele>536.2</ele>
      </trkpt>
      <trkpt lat="45.05597" lon="5.37345">
        <ele>537.9</ele>
      </trkpt>
      <trkpt lat="45.05579" lon="5.37346">
        <ele>539.6</ele>
      </trkpt>
      <trkpt lat="45.05552" lon="5.37346">
        <ele>539</ele>
      </trkpt>
      <trkpt lat="45.05531" lon="5.37347">
        <ele>538.5</ele>
      </trkpt>
      <trkpt lat="45.05511" lon="5.37346">
        <ele>538.4</ele>
      </trkpt>
      <trkpt lat="45.055" lon="5.37343">
        <ele>537.8</ele>
      </trkpt>
      <trkpt lat="45.05482" lon="5.37341">
        <ele>539</ele>
      </trkpt>
      <trkpt lat="45.0547" lon="5.3734">
        <ele>540</ele>
      </trkpt>
      <trkpt lat="45.05462" lon="5.37337">
        <ele>540.3</ele>
      </trkpt>
      <trkpt lat="45.05458" lon="5.37335">
        <ele>540.4</ele>
      </trkpt>
      <trkpt lat="45.05455" lon="5.37331">
        <ele>540.1</ele>
      </trkpt>
      <trkpt lat="45.05454" lon="5.37328">
        <ele>539.8</ele>
      </trkpt>
      <trkpt lat="45.0545" lon="5.3732">
        <ele>539.5</ele>
      </trkpt>
      <trkpt lat="45.05445" lon="5.37303">
        <ele>538.7</ele>
      </trkpt>
      <trkpt lat="45.05442" lon="5.37291">
        <ele>538.6</ele>
      </trkpt>
      <trkpt lat="45.0544" lon="5.37282">
        <ele>538.6</ele>
      </trkpt>
      <trkpt lat="45.0544" lon="5.37275">
        <ele>538.3</ele>
      </trkpt>
      <trkpt lat="45.05441" lon="5.3727">
        <ele>538</ele>
      </trkpt>
      <trkpt lat="45.05442" lon="5.37265">
        <ele>537.7</ele>
      </trkpt>
      <trkpt lat="45.05441" lon="5.37237">
        <ele>538.5</ele>
      </trkpt>
      <trkpt lat="45.05438" lon="5.37211">
        <ele>540.7</ele>
      </trkpt>
      <trkpt lat="45.05428" lon="5.37191">
        <ele>544.9</ele>
      </trkpt>
      <trkpt lat="45.05412" lon="5.37177">
        <ele>550</ele>
      </trkpt>
      <trkpt lat="45.05396" lon="5.37174">
        <ele>554.7</ele>
      </trkpt>
      <trkpt lat="45.05393" lon="5.37172">
        <ele>555.6</ele>
      </trkpt>
      <trkpt lat="45.05395" lon="5.37166">
        <ele>555.3</ele>
      </trkpt>
      <trkpt lat="45.05401" lon="5.3716">
        <ele>553.8</ele>
      </trkpt>
      <trkpt lat="45.05403" lon="5.37141">
        <ele>553.9</ele>
      </trkpt>
      <trkpt lat="45.05407" lon="5.37105">
        <ele>552.5</ele>
      </trkpt>
      <trkpt lat="45.05408" lon="5.37086">
        <ele>551.3</ele>
      </trkpt>
      <trkpt lat="45.05406" lon="5.37072">
        <ele>550.5</ele>
      </trkpt>
      <trkpt lat="45.05399" lon="5.37057">
        <ele>550.6</ele>
      </trkpt>
      <trkpt lat="45.05389" lon="5.37042">
        <ele>551</ele>
      </trkpt>
      <trkpt lat="45.05376" lon="5.37021">
        <ele>550.7</ele>
      </trkpt>
      <trkpt lat="45.05357" lon="5.36991">
        <ele>550.2</ele>
      </trkpt>
      <trkpt lat="45.05344" lon="5.36969">
        <ele>549.2</ele>
      </trkpt>
      <trkpt lat="45.05333" lon="5.36948">
        <ele>548.6</ele>
      </trkpt>
      <trkpt lat="45.05322" lon="5.3693">
        <ele>547.7</ele>
      </trkpt>
      <trkpt lat="45.05314" lon="5.3692">
        <ele>547.3</ele>
      </trkpt>
      <trkpt lat="45.05305" lon="5.36916">
        <ele>547.9</ele>
      </trkpt>
      <trkpt lat="45.053" lon="5.36915">
        <ele>547.8</ele>
      </trkpt>
      <trkpt lat="45.05295" lon="5.36915">
        <ele>547.8</ele>
      </trkpt>
      <trkpt lat="45.05289" lon="5.36918">
        <ele>548.2</ele>
      </trkpt>
      <trkpt lat="45.05284" lon="5.3692">
        <ele>548.5</ele>
      </trkpt>
      <trkpt lat="45.05278" lon="5.36926">
        <ele>549.3</ele>
      </trkpt>
      <trkpt lat="45.05273" lon="5.36931">
        <ele>549.4</ele>
      </trkpt>
      <trkpt lat="45.0527" lon="5.36933">
        <ele>549.2</ele>
      </trkpt>
      <trkpt lat="45.05267" lon="5.36936">
        <ele>549.1</ele>
      </trkpt>
      <trkpt lat="45.05265" lon="5.3694">
        <ele>549.2</ele>
      </trkpt>
      <trkpt lat="45.05262" lon="5.36943">
        <ele>549</ele>
      </trkpt>
      <trkpt lat="45.05262" lon="5.36944">
        <ele>549.1</ele>
        <extensions>
          <visugpx:TrkExtension xmlns:visugpx="https://www.visugpx.com/editgpx/">
            <visugpx:node>10</visugpx:node>
            </visugpx:TrkExtension>
        </extensions>
      </trkpt>
      <trkpt lat="45.05262" lon="5.36943">
        <ele>549</ele>
      </trkpt>
      <trkpt lat="45.05265" lon="5.36921">
        <ele>547.1</ele>
      </trkpt>
      <trkpt lat="45.0527" lon="5.36906">
        <ele>545.7</ele>
      </trkpt>
      <trkpt lat="45.05277" lon="5.3689">
        <ele>544.1</ele>
      </trkpt>
      <trkpt lat="45.05288" lon="5.36871">
        <ele>541.4</ele>
      </trkpt>
      <trkpt lat="45.05296" lon="5.36858">
        <ele>539.7</ele>
      </trkpt>
      <trkpt lat="45.053" lon="5.36853">
        <ele>539.1</ele>
      </trkpt>
      <trkpt lat="45.05311" lon="5.3684">
        <ele>537.1</ele>
      </trkpt>
      <trkpt lat="45.05315" lon="5.36834">
        <ele>536.1</ele>
      </trkpt>
      <trkpt lat="45.05318" lon="5.36828">
        <ele>535</ele>
      </trkpt>
      <trkpt lat="45.05321" lon="5.36823">
        <ele>534.1</ele>
      </trkpt>
      <trkpt lat="45.05324" lon="5.36816">
        <ele>532.9</ele>
      </trkpt>
      <trkpt lat="45.05326" lon="5.36808">
        <ele>531.8</ele>
      </trkpt>
      <trkpt lat="45.05327" lon="5.368">
        <ele>531.2</ele>
      </trkpt>
      <trkpt lat="45.05327" lon="5.36785">
        <ele>530.4</ele>
      </trkpt>
      <trkpt lat="45.0533" lon="5.36776">
        <ele>530</ele>
      </trkpt>
      <trkpt lat="45.05332" lon="5.36763">
        <ele>529.9</ele>
      </trkpt>
      <trkpt lat="45.05334" lon="5.36747">
        <ele>530.1</ele>
      </trkpt>
      <trkpt lat="45.05336" lon="5.36735">
        <ele>530.5</ele>
      </trkpt>
      <trkpt lat="45.05339" lon="5.36724">
        <ele>530.9</ele>
      </trkpt>
      <trkpt lat="45.05339" lon="5.36725">
        <ele>530.9</ele>
        <extensions>
          <visugpx:TrkExtension xmlns:visugpx="https://www.visugpx.com/editgpx/">
            <visugpx:node>11</visugpx:node>
            </visugpx:TrkExtension>
        </extensions>
      </trkpt>
      <trkpt lat="45.05339" lon="5.36716">
        <ele>540.22</ele>
        <time>2022-07-31T13:17:04.379Z</time>
        <extensions>
          <visugpx:TrkExtension xmlns:visugpx="https://www.visugpx.com/editgpx/">
            <visugpx:node>9</visugpx:node>
            </visugpx:TrkExtension>
        </extensions>
      </trkpt>
      <trkpt lat="45.05337" lon="5.36702">
        <ele>541.24</ele>
        <time>2022-07-31T13:17:13.847Z</time>
      </trkpt>
      <trkpt lat="45.05338" lon="5.36687">
        <ele>542.55</ele>
        <time>2022-07-31T13:17:22.928Z</time>
      </trkpt>
      <trkpt lat="45.05332" lon="5.36673">
        <ele>542.28</ele>
        <time>2022-07-31T13:17:32.210Z</time>
      </trkpt>
      <trkpt lat="45.05327" lon="5.36662">
        <ele>541.56</ele>
        <time>2022-07-31T13:17:41.285Z</time>
      </trkpt>
      <trkpt lat="45.05323" lon="5.36648">
        <ele>540.98</ele>
        <time>2022-07-31T13:17:50.643Z</time>
      </trkpt>
      <trkpt lat="45.05315" lon="5.36636">
        <ele>538.26</ele>
        <time>2022-07-31T13:18:00.303Z</time>
      </trkpt>
      <trkpt lat="45.05306" lon="5.36628">
        <ele>534.36</ele>
        <time>2022-07-31T13:18:10.362Z</time>
      </trkpt>
      <trkpt lat="45.05304" lon="5.36614">
        <ele>533.15</ele>
        <time>2022-07-31T13:18:22.221Z</time>
      </trkpt>
      <trkpt lat="45.05308" lon="5.36592">
        <ele>534.6</ele>
        <time>2022-07-31T13:18:32.330Z</time>
      </trkpt>
      <trkpt lat="45.05312" lon="5.36575">
        <ele>534.49</ele>
        <time>2022-07-31T13:18:41.669Z</time>
      </trkpt>
      <trkpt lat="45.05318" lon="5.36563">
        <ele>535.47</ele>
        <time>2022-07-31T13:18:50.808Z</time>
      </trkpt>
      <trkpt lat="45.05324" lon="5.36547">
        <ele>534.42</ele>
        <time>2022-07-31T13:19:00.228Z</time>
      </trkpt>
      <trkpt lat="45.05333" lon="5.36538">
        <ele>536.09</ele>
        <time>2022-07-31T13:19:09.868Z</time>
      </trkpt>
      <trkpt lat="45.05338" lon="5.36526">
        <ele>534.99</ele>
        <time>2022-07-31T13:19:19.150Z</time>
      </trkpt>
      <trkpt lat="45.05344" lon="5.36513">
        <ele>533.72</ele>
        <time>2022-07-31T13:19:28.664Z</time>
      </trkpt>
      <trkpt lat="45.05351" lon="5.36502">
        <ele>533.86</ele>
        <time>2022-07-31T13:19:38.263Z</time>
      </trkpt>
      <trkpt lat="45.05357" lon="5.36493">
        <ele>533.96</ele>
        <time>2022-07-31T13:19:47.545Z</time>
      </trkpt>
      <trkpt lat="45.05366" lon="5.36489">
        <ele>537.1</ele>
        <time>2022-07-31T13:19:57.404Z</time>
      </trkpt>
      <trkpt lat="45.05374" lon="5.36477">
        <ele>536.56</ele>
        <time>2022-07-31T13:20:06.602Z</time>
      </trkpt>
      <trkpt lat="45.05386" lon="5.36471">
        <ele>538.45</ele>
        <time>2022-07-31T13:20:15.882Z</time>
      </trkpt>
      <trkpt lat="45.05397" lon="5.36463">
        <ele>538.13</ele>
        <time>2022-07-31T13:20:25.112Z</time>
      </trkpt>
      <trkpt lat="45.05406" lon="5.36462">
        <ele>539.71</ele>
        <time>2022-07-31T13:21:10.064Z</time>
      </trkpt>
      <trkpt lat="45.05419" lon="5.36446">
        <ele>534.3</ele>
        <time>2022-07-31T13:21:19.362Z</time>
      </trkpt>
      <trkpt lat="45.05431" lon="5.36431">
        <ele>529.44</ele>
        <time>2022-07-31T13:21:28.703Z</time>
      </trkpt>
      <trkpt lat="45.05441" lon="5.3642">
        <ele>526.88</ele>
        <time>2022-07-31T13:21:37.781Z</time>
      </trkpt>
      <trkpt lat="45.05453" lon="5.36413">
        <ele>525.74</ele>
        <time>2022-07-31T13:21:47.141Z</time>
      </trkpt>
      <trkpt lat="45.05462" lon="5.36415">
        <ele>524.34</ele>
        <time>2022-07-31T13:21:57.000Z</time>
      </trkpt>
      <trkpt lat="45.05471" lon="5.36416">
        <ele>522.75</ele>
        <time>2022-07-31T13:22:11.168Z</time>
      </trkpt>
      <trkpt lat="45.05485" lon="5.36413">
        <ele>521.05</ele>
        <time>2022-07-31T13:22:20.608Z</time>
      </trkpt>
      <trkpt lat="45.05495" lon="5.36409">
        <ele>520.69</ele>
        <time>2022-07-31T13:22:30.409Z</time>
      </trkpt>
      <trkpt lat="45.05505" lon="5.36407">
        <ele>519.77</ele>
        <time>2022-07-31T13:22:39.826Z</time>
      </trkpt>
      <trkpt lat="45.05513" lon="5.36403">
        <ele>519.75</ele>
        <time>2022-07-31T13:22:49.844Z</time>
      </trkpt>
      <trkpt lat="45.05525" lon="5.36401">
        <ele>518.07</ele>
        <time>2022-07-31T13:22:58.924Z</time>
      </trkpt>
      <trkpt lat="45.05533" lon="5.36399">
        <ele>517.07</ele>
        <time>2022-07-31T13:23:10.242Z</time>
      </trkpt>
      <trkpt lat="45.05545" lon="5.36398">
        <ele>514.08</ele>
        <time>2022-07-31T13:23:19.382Z</time>
      </trkpt>
      <trkpt lat="45.05554" lon="5.36401">
        <ele>509.79</ele>
        <time>2022-07-31T13:23:28.423Z</time>
      </trkpt>
      <trkpt lat="45.05563" lon="5.36403">
        <ele>506.08</ele>
        <time>2022-07-31T13:23:37.570Z</time>
      </trkpt>
      <trkpt lat="45.05572" lon="5.36409">
        <ele>501.31</ele>
        <time>2022-07-31T13:23:48.649Z</time>
      </trkpt>
      <trkpt lat="45.05582" lon="5.36407">
        <ele>499.6</ele>
        <time>2022-07-31T13:23:58.408Z</time>
      </trkpt>
      <trkpt lat="45.05593" lon="5.36398">
        <ele>500.86</ele>
        <time>2022-07-31T13:24:08.385Z</time>
      </trkpt>
      <trkpt lat="45.05602" lon="5.36392">
        <ele>501.81</ele>
        <time>2022-07-31T13:24:22.999Z</time>
      </trkpt>
      <trkpt lat="45.05611" lon="5.36388">
        <ele>501.93</ele>
        <time>2022-07-31T13:24:36.182Z</time>
      </trkpt>
      <trkpt lat="45.05621" lon="5.36387">
        <ele>500.47</ele>
        <time>2022-07-31T13:24:48.302Z</time>
      </trkpt>
      <trkpt lat="45.05636" lon="5.36389">
        <ele>496.24</ele>
        <time>2022-07-31T13:24:58.331Z</time>
      </trkpt>
      <trkpt lat="45.05647" lon="5.36391">
        <ele>492.64</ele>
        <time>2022-07-31T13:25:07.491Z</time>
      </trkpt>
      <trkpt lat="45.05657" lon="5.36393">
        <ele>489.71</ele>
        <time>2022-07-31T13:25:17.250Z</time>
      </trkpt>
      <trkpt lat="45.0567" lon="5.36392">
        <ele>487.4</ele>
        <time>2022-07-31T13:25:26.388Z</time>
      </trkpt>
      <trkpt lat="45.0568" lon="5.36393">
        <ele>485.15</ele>
        <time>2022-07-31T13:25:35.971Z</time>
      </trkpt>
      <trkpt lat="45.05691" lon="5.36395">
        <ele>482.53</ele>
        <time>2022-07-31T13:25:45.327Z</time>
      </trkpt>
      <trkpt lat="45.05702" lon="5.36404">
        <ele>476.95</ele>
        <time>2022-07-31T13:25:54.999Z</time>
      </trkpt>
      <trkpt lat="45.05711" lon="5.3641">
        <ele>473.8</ele>
        <time>2022-07-31T13:26:04.266Z</time>
      </trkpt>
      <trkpt lat="45.0572" lon="5.36414">
        <ele>471.49</ele>
        <time>2022-07-31T13:26:13.540Z</time>
      </trkpt>
      <trkpt lat="45.0573" lon="5.36411">
        <ele>471.41</ele>
        <time>2022-07-31T13:26:22.625Z</time>
      </trkpt>
      <trkpt lat="45.05741" lon="5.36407">
        <ele>470.44</ele>
        <time>2022-07-31T13:26:31.721Z</time>
      </trkpt>
      <trkpt lat="45.05751" lon="5.36405">
        <ele>468.45</ele>
        <time>2022-07-31T13:26:41.242Z</time>
      </trkpt>
      <trkpt lat="45.0576" lon="5.36404">
        <ele>465.9</ele>
        <time>2022-07-31T13:26:51.830Z</time>
      </trkpt>
      <trkpt lat="45.05771" lon="5.36407">
        <ele>461.9</ele>
        <time>2022-07-31T13:27:07.290Z</time>
      </trkpt>
      <trkpt lat="45.05787" lon="5.36409">
        <ele>455.56</ele>
        <time>2022-07-31T13:27:16.750Z</time>
      </trkpt>
      <trkpt lat="45.05798" lon="5.36399">
        <ele>452.39</ele>
        <time>2022-07-31T13:27:26.309Z</time>
      </trkpt>
      <trkpt lat="45.05807" lon="5.36384">
        <ele>450.23</ele>
        <time>2022-07-31T13:27:35.806Z</time>
      </trkpt>
      <trkpt lat="45.05814" lon="5.36368">
        <ele>448.49</ele>
        <time>2022-07-31T13:27:44.999Z</time>
      </trkpt>
      <trkpt lat="45.0582" lon="5.36354">
        <ele>447.72</ele>
        <time>2022-07-31T13:27:54.968Z</time>
      </trkpt>
      <trkpt lat="45.05825" lon="5.36339">
        <ele>447.39</ele>
        <time>2022-07-31T13:28:04.533Z</time>
      </trkpt>
      <trkpt lat="45.05833" lon="5.36324">
        <ele>446.46</ele>
        <time>2022-07-31T13:28:13.584Z</time>
      </trkpt>
      <trkpt lat="45.05839" lon="5.36311">
        <ele>446.27</ele>
        <time>2022-07-31T13:28:23.553Z</time>
      </trkpt>
      <trkpt lat="45.05845" lon="5.36298">
        <ele>446.12</ele>
        <time>2022-07-31T13:28:32.648Z</time>
      </trkpt>
      <trkpt lat="45.05853" lon="5.36291">
        <ele>444.6</ele>
        <time>2022-07-31T13:28:42.130Z</time>
      </trkpt>
      <trkpt lat="45.05863" lon="5.36293">
        <ele>441.04</ele>
        <time>2022-07-31T13:28:51.541Z</time>
      </trkpt>
      <trkpt lat="45.05875" lon="5.3629">
        <ele>437.86</ele>
        <time>2022-07-31T13:29:00.585Z</time>
      </trkpt>
      <trkpt lat="45.05886" lon="5.36288">
        <ele>435.09</ele>
        <time>2022-07-31T13:29:09.887Z</time>
      </trkpt>
      <trkpt lat="45.05892" lon="5.36274">
        <ele>435.59</ele>
        <time>2022-07-31T13:29:19.344Z</time>
      </trkpt>
      <trkpt lat="45.059" lon="5.36263">
        <ele>435.21</ele>
        <time>2022-07-31T13:29:28.644Z</time>
      </trkpt>
      <trkpt lat="45.05909" lon="5.36249">
        <ele>434.94</ele>
        <time>2022-07-31T13:29:37.664Z</time>
      </trkpt>
      <trkpt lat="45.05919" lon="5.36237">
        <ele>433.78</ele>
        <time>2022-07-31T13:29:47.643Z</time>
      </trkpt>
      <trkpt lat="45.05927" lon="5.3623">
        <ele>432.37</ele>
        <time>2022-07-31T13:29:57.602Z</time>
      </trkpt>
      <trkpt lat="45.05939" lon="5.3622">
        <ele>429.28</ele>
        <time>2022-07-31T13:30:07.030Z</time>
      </trkpt>
      <trkpt lat="45.0595" lon="5.36211">
        <ele>426.08</ele>
        <time>2022-07-31T13:30:16.109Z</time>
      </trkpt>
      <trkpt lat="45.05961" lon="5.36199">
        <ele>423.57</ele>
        <time>2022-07-31T13:30:25.650Z</time>
      </trkpt>
      <trkpt lat="45.05968" lon="5.36189">
        <ele>422.13</ele>
        <time>2022-07-31T13:30:34.725Z</time>
      </trkpt>
      <trkpt lat="45.05976" lon="5.36176">
        <ele>421.11</ele>
        <time>2022-07-31T13:30:43.805Z</time>
      </trkpt>
      <trkpt lat="45.05982" lon="5.36166">
        <ele>420.28</ele>
        <time>2022-07-31T13:30:52.944Z</time>
      </trkpt>
      <trkpt lat="45.0599" lon="5.36156">
        <ele>419</ele>
        <time>2022-07-31T13:31:02.144Z</time>
      </trkpt>
      <trkpt lat="45.05998" lon="5.36145">
        <ele>417.91</ele>
        <time>2022-07-31T13:31:11.306Z</time>
      </trkpt>
      <trkpt lat="45.06006" lon="5.36134">
        <ele>416.99</ele>
        <time>2022-07-31T13:31:20.537Z</time>
      </trkpt>
      <trkpt lat="45.06018" lon="5.36127">
        <ele>412.92</ele>
        <time>2022-07-31T13:31:29.901Z</time>
      </trkpt>
      <trkpt lat="45.06025" lon="5.36115">
        <ele>412.87</ele>
        <time>2022-07-31T13:31:39.138Z</time>
      </trkpt>
      <trkpt lat="45.06031" lon="5.36105">
        <ele>412.2</ele>
        <time>2022-07-31T13:31:48.196Z</time>
      </trkpt>
      <trkpt lat="45.06041" lon="5.36106">
        <ele>407.56</ele>
        <time>2022-07-31T13:32:11.427Z</time>
      </trkpt>
      <trkpt lat="45.06046" lon="5.36095">
        <ele>407.52</ele>
        <time>2022-07-31T13:32:20.466Z</time>
      </trkpt>
      <trkpt lat="45.06053" lon="5.36085">
        <ele>406.33</ele>
        <time>2022-07-31T13:32:29.847Z</time>
      </trkpt>
      <trkpt lat="45.06061" lon="5.36076">
        <ele>404.88</ele>
        <time>2022-07-31T13:32:38.986Z</time>
      </trkpt>
      <trkpt lat="45.06069" lon="5.36068">
        <ele>402.78</ele>
        <time>2022-07-31T13:32:48.364Z</time>
      </trkpt>
      <trkpt lat="45.06077" lon="5.36062">
        <ele>400.54</ele>
        <time>2022-07-31T13:33:00.143Z</time>
      </trkpt>
      <trkpt lat="45.06086" lon="5.36056">
        <ele>398.1</ele>
        <time>2022-07-31T13:33:09.481Z</time>
      </trkpt>
      <trkpt lat="45.06095" lon="5.36052">
        <ele>395.22</ele>
        <time>2022-07-31T13:33:19.192Z</time>
      </trkpt>
      <trkpt lat="45.06106" lon="5.36047">
        <ele>391.63</ele>
        <time>2022-07-31T13:33:28.554Z</time>
      </trkpt>
      <trkpt lat="45.06114" lon="5.3604">
        <ele>390.72</ele>
        <time>2022-07-31T13:33:45.287Z</time>
      </trkpt>
      <trkpt lat="45.06127" lon="5.36038">
        <ele>386</ele>
        <time>2022-07-31T13:33:54.764Z</time>
      </trkpt>
      <trkpt lat="45.06136" lon="5.36037">
        <ele>382.93</ele>
        <time>2022-07-31T13:34:04.305Z</time>
      </trkpt>
      <trkpt lat="45.06144" lon="5.36029">
        <ele>381.96</ele>
        <time>2022-07-31T13:34:16.104Z</time>
      </trkpt>
      <trkpt lat="45.0615" lon="5.36019">
        <ele>381.88</ele>
        <time>2022-07-31T13:34:25.426Z</time>
      </trkpt>
      <trkpt lat="45.06156" lon="5.36008">
        <ele>381.75</ele>
        <time>2022-07-31T13:34:35.000Z</time>
      </trkpt>
      <trkpt lat="45.06161" lon="5.35997">
        <ele>381.68</ele>
        <time>2022-07-31T13:34:44.972Z</time>
      </trkpt>
      <trkpt lat="45.06166" lon="5.35986">
        <ele>381.31</ele>
        <time>2022-07-31T13:35:02.000Z</time>
      </trkpt>
      <trkpt lat="45.06172" lon="5.35978">
        <ele>379.28</ele>
        <time>2022-07-31T13:36:16.807Z</time>
      </trkpt>
      <trkpt lat="45.06179" lon="5.35964">
        <ele>377.37</ele>
        <time>2022-07-31T13:36:26.048Z</time>
      </trkpt>
      <trkpt lat="45.06183" lon="5.3595">
        <ele>376.51</ele>
        <time>2022-07-31T13:36:35.129Z</time>
      </trkpt>
      <trkpt lat="45.06189" lon="5.35938">
        <ele>374.75</ele>
        <time>2022-07-31T13:36:44.584Z</time>
      </trkpt>
      <trkpt lat="45.06194" lon="5.35922">
        <ele>372.95</ele>
        <time>2022-07-31T13:36:54.348Z</time>
      </trkpt>
      <trkpt lat="45.062" lon="5.3591">
        <ele>371.12</ele>
        <time>2022-07-31T13:37:05.309Z</time>
      </trkpt>
      <trkpt lat="45.06205" lon="5.359">
        <ele>369.19</ele>
        <time>2022-07-31T13:37:15.534Z</time>
      </trkpt>
      <trkpt lat="45.06212" lon="5.35885">
        <ele>366.97</ele>
        <time>2022-07-31T13:37:25.044Z</time>
      </trkpt>
      <trkpt lat="45.06219" lon="5.35871">
        <ele>364.04</ele>
        <time>2022-07-31T13:37:34.122Z</time>
      </trkpt>
      <trkpt lat="45.06223" lon="5.35859">
        <ele>362.3</ele>
        <time>2022-07-31T13:37:45.210Z</time>
      </trkpt>
      <trkpt lat="45.06227" lon="5.35841">
        <ele>361.01</ele>
        <time>2022-07-31T13:37:54.351Z</time>
      </trkpt>
      <trkpt lat="45.06229" lon="5.35826">
        <ele>360.32</ele>
        <time>2022-07-31T13:38:03.488Z</time>
      </trkpt>
      <trkpt lat="45.06233" lon="5.35811">
        <ele>359.25</ele>
        <time>2022-07-31T13:38:12.688Z</time>
      </trkpt>
      <trkpt lat="45.06237" lon="5.35796">
        <ele>357.54</ele>
        <time>2022-07-31T13:38:22.368Z</time>
      </trkpt>
      <trkpt lat="45.06241" lon="5.3578">
        <ele>356.04</ele>
        <time>2022-07-31T13:38:32.387Z</time>
      </trkpt>
      <trkpt lat="45.06243" lon="5.35765">
        <ele>355.73</ele>
        <time>2022-07-31T13:38:41.488Z</time>
      </trkpt>
      <trkpt lat="45.06246" lon="5.35752">
        <ele>354.63</ele>
        <time>2022-07-31T13:38:51.024Z</time>
      </trkpt>
      <trkpt lat="45.06257" lon="5.35729">
        <ele>348.7</ele>
        <time>2022-07-31T13:39:00.204Z</time>
      </trkpt>
      <trkpt lat="45.06262" lon="5.35717">
        <ele>346.54</ele>
        <time>2022-07-31T13:39:12.946Z</time>
      </trkpt>
      <trkpt lat="45.06268" lon="5.35706">
        <ele>343.23</ele>
        <time>2022-07-31T13:39:24.329Z</time>
      </trkpt>
      <trkpt lat="45.06274" lon="5.35691">
        <ele>340.08</ele>
        <time>2022-07-31T13:39:33.368Z</time>
      </trkpt>
      <trkpt lat="45.06278" lon="5.35679">
        <ele>338.35</ele>
        <time>2022-07-31T13:39:45.627Z</time>
      </trkpt>
      <trkpt lat="45.06284" lon="5.35666">
        <ele>335.1</ele>
        <time>2022-07-31T13:39:55.246Z</time>
      </trkpt>
      <trkpt lat="45.06288" lon="5.3565">
        <ele>333.47</ele>
        <time>2022-07-31T13:40:04.545Z</time>
      </trkpt>
      <trkpt lat="45.06291" lon="5.35636">
        <ele>333.12</ele>
        <time>2022-07-31T13:40:15.385Z</time>
      </trkpt>
      <trkpt lat="45.06292" lon="5.35623">
        <ele>333.79</ele>
        <time>2022-07-31T13:40:24.584Z</time>
      </trkpt>
      <trkpt lat="45.06295" lon="5.35607">
        <ele>333.64</ele>
        <time>2022-07-31T13:40:33.663Z</time>
      </trkpt>
      <trkpt lat="45.063" lon="5.35594">
        <ele>330.98</ele>
        <time>2022-07-31T13:40:42.883Z</time>
      </trkpt>
      <trkpt lat="45.06306" lon="5.35581">
        <ele>327.56</ele>
        <time>2022-07-31T13:40:52.532Z</time>
      </trkpt>
      <trkpt lat="45.06311" lon="5.35569">
        <ele>324.84</ele>
        <time>2022-07-31T13:41:01.710Z</time>
      </trkpt>
      <trkpt lat="45.06316" lon="5.35556">
        <ele>321.81</ele>
        <time>2022-07-31T13:41:10.809Z</time>
      </trkpt>
      <trkpt lat="45.06321" lon="5.35545">
        <ele>319.05</ele>
        <time>2022-07-31T13:41:20.066Z</time>
      </trkpt>
      <trkpt lat="45.06327" lon="5.35531">
        <ele>316.36</ele>
        <time>2022-07-31T13:41:29.348Z</time>
      </trkpt>
      <trkpt lat="45.06333" lon="5.35521">
        <ele>313.09</ele>
        <time>2022-07-31T13:41:38.590Z</time>
      </trkpt>
      <trkpt lat="45.06337" lon="5.35509">
        <ele>311.13</ele>
        <time>2022-07-31T13:41:48.545Z</time>
      </trkpt>
      <trkpt lat="45.06339" lon="5.35496">
        <ele>309.95</ele>
        <time>2022-07-31T13:41:58.104Z</time>
      </trkpt>
      <trkpt lat="45.06343" lon="5.35483">
        <ele>307.22</ele>
        <time>2022-07-31T13:42:11.482Z</time>
      </trkpt>
      <trkpt lat="45.06348" lon="5.35467">
        <ele>304.12</ele>
        <time>2022-07-31T13:42:20.889Z</time>
      </trkpt>
      <trkpt lat="45.06348" lon="5.35453">
        <ele>303.95</ele>
        <time>2022-07-31T13:42:30.248Z</time>
      </trkpt>
      <trkpt lat="45.06349" lon="5.3544">
        <ele>302.94</ele>
        <time>2022-07-31T13:42:42.089Z</time>
      </trkpt>
      <trkpt lat="45.06354" lon="5.35427">
        <ele>299.56</ele>
        <time>2022-07-31T13:42:52.538Z</time>
      </trkpt>
      <trkpt lat="45.06357" lon="5.35415">
        <ele>296.64</ele>
        <time>2022-07-31T13:43:02.147Z</time>
      </trkpt>
      <trkpt lat="45.06362" lon="5.35401">
        <ele>293.23</ele>
        <time>2022-07-31T13:43:11.325Z</time>
      </trkpt>
      <trkpt lat="45.06367" lon="5.35386">
        <ele>289.28</ele>
        <time>2022-07-31T13:43:20.364Z</time>
        <extensions>
          <visugpx:TrkExtension xmlns:visugpx="https://www.visugpx.com/editgpx/">
            <visugpx:node>1</visugpx:node>
            </visugpx:TrkExtension>
        </extensions>
      </trkpt>
      <trkpt lat="45.06372" lon="5.35393">
        <ele>288.3</ele>
      </trkpt>
      <trkpt lat="45.06375" lon="5.35402">
        <ele>286.5</ele>
      </trkpt>
      <trkpt lat="45.06399" lon="5.35654">
        <ele>258.4</ele>
        <extensions>
          <visugpx:TrkExtension xmlns:visugpx="https://www.visugpx.com/editgpx/">
            <visugpx:node>2</visugpx:node>
            </visugpx:TrkExtension>
        </extensions>
      </trkpt>
      <trkpt lat="45.06428" lon="5.35704">
        <ele>242.1</ele>
        <extensions>
          <visugpx:TrkExtension xmlns:visugpx="https://www.visugpx.com/editgpx/">
            <visugpx:node>4</visugpx:node>
            </visugpx:TrkExtension>
        </extensions>
      </trkpt>
      <trkpt lat="45.06428" lon="5.35686">
        <ele>241</ele>
      </trkpt>
      <trkpt lat="45.06428" lon="5.35662">
        <ele>240.2</ele>
      </trkpt>
      <trkpt lat="45.0643" lon="5.35631">
        <ele>239.1</ele>
      </trkpt>
      <trkpt lat="45.06435" lon="5.35595">
        <ele>237.9</ele>
      </trkpt>
      <trkpt lat="45.06438" lon="5.35576">
        <ele>237.3</ele>
      </trkpt>
      <trkpt lat="45.06442" lon="5.35561">
        <ele>236.1</ele>
      </trkpt>
      <trkpt lat="45.06446" lon="5.35548">
        <ele>234.7</ele>
      </trkpt>
      <trkpt lat="45.0645" lon="5.35535">
        <ele>233.6</ele>
      </trkpt>
      <trkpt lat="45.06455" lon="5.35517">
        <ele>232.1</ele>
      </trkpt>
      <trkpt lat="45.06461" lon="5.35493">
        <ele>230</ele>
      </trkpt>
      <trkpt lat="45.06465" lon="5.35469">
        <ele>229</ele>
      </trkpt>
      <trkpt lat="45.06467" lon="5.3546">
        <ele>228.5</ele>
        <extensions>
          <visugpx:TrkExtension xmlns:visugpx="https://www.visugpx.com/editgpx/">
            <visugpx:node>5</visugpx:node>
            </visugpx:TrkExtension>
        </extensions>
      </trkpt>
      <trkpt lat="45.06474" lon="5.35425">
        <ele>227.3</ele>
      </trkpt>
      <trkpt lat="45.06476" lon="5.3542">
        <ele>227.1</ele>
      </trkpt>
      <trkpt lat="45.06481" lon="5.35403">
        <ele>226.6</ele>
      </trkpt>
      <trkpt lat="45.06484" lon="5.35389">
        <ele>226.5</ele>
      </trkpt>
      <trkpt lat="45.06486" lon="5.35381">
        <ele>225.9</ele>
      </trkpt>
      <trkpt lat="45.06487" lon="5.35375">
        <ele>225.6</ele>
      </trkpt>
      <trkpt lat="45.06486" lon="5.35365">
        <ele>225.6</ele>
      </trkpt>
      <trkpt lat="45.06485" lon="5.35349">
        <ele>225.6</ele>
      </trkpt>
      <trkpt lat="45.06485" lon="5.35337">
        <ele>225.6</ele>
      </trkpt>
      <trkpt lat="45.06481" lon="5.35318">
        <ele>225.7</ele>
      </trkpt>
      <trkpt lat="45.06472" lon="5.35291">
        <ele>226</ele>
      </trkpt>
      <trkpt lat="45.06466" lon="5.35269">
        <ele>227</ele>
      </trkpt>
      <trkpt lat="45.06457" lon="5.35228">
        <ele>226.9</ele>
      </trkpt>
      <trkpt lat="45.06453" lon="5.35213">
        <ele>226.6</ele>
      </trkpt>
      <trkpt lat="45.06443" lon="5.35184">
        <ele>227.1</ele>
      </trkpt>
      <trkpt lat="45.0643" lon="5.35151">
        <ele>229</ele>
      </trkpt>
      <trkpt lat="45.06418" lon="5.35121">
        <ele>228.8</ele>
      </trkpt>
      <trkpt lat="45.06408" lon="5.35095">
        <ele>230</ele>
      </trkpt>
      <trkpt lat="45.06398" lon="5.35068">
        <ele>230.6</ele>
      </trkpt>
      <trkpt lat="45.06389" lon="5.35046">
        <ele>229.9</ele>
      </trkpt>
      <trkpt lat="45.06387" lon="5.35041">
        <ele>229.5</ele>
        <extensions>
          <visugpx:TrkExtension xmlns:visugpx="https://www.visugpx.com/editgpx/">
            <visugpx:node>6</visugpx:node>
            </visugpx:TrkExtension>
        </extensions>
      </trkpt>
      <trkpt lat="45.06379" lon="5.35025">
        <ele>228.6</ele>
      </trkpt>
      <trkpt lat="45.06371" lon="5.35012">
        <ele>227.9</ele>
      </trkpt>
      <trkpt lat="45.06362" lon="5.35">
        <ele>226.8</ele>
      </trkpt>
      <trkpt lat="45.06345" lon="5.34986">
        <ele>227.2</ele>
      </trkpt>
      <trkpt lat="45.06328" lon="5.34972">
        <ele>226.5</ele>
      </trkpt>
      <trkpt lat="45.06309" lon="5.34958">
        <ele>225</ele>
      </trkpt>
      <trkpt lat="45.06297" lon="5.34949">
        <ele>223.9</ele>
      </trkpt>
      <trkpt lat="45.06281" lon="5.34939">
        <ele>222.9</ele>
      </trkpt>
      <trkpt lat="45.0626" lon="5.3493">
        <ele>222</ele>
      </trkpt>
      <trkpt lat="45.0624" lon="5.34919">
        <ele>220</ele>
      </trkpt>
      <trkpt lat="45.06222" lon="5.3491">
        <ele>220</ele>
      </trkpt>
      <trkpt lat="45.06207" lon="5.34904">
        <ele>220.6</ele>
      </trkpt>
      <trkpt lat="45.06189" lon="5.34895">
        <ele>220.5</ele>
      </trkpt>
      <trkpt lat="45.06181" lon="5.34888">
        <ele>220</ele>
      </trkpt>
      <trkpt lat="45.06176" lon="5.34883">
        <ele>220.3</ele>
      </trkpt>
      <trkpt lat="45.06166" lon="5.34872">
        <ele>218.7</ele>
      </trkpt>
      <trkpt lat="45.06153" lon="5.34857">
        <ele>218.5</ele>
      </trkpt>
      <trkpt lat="45.06139" lon="5.34842">
        <ele>216.3</ele>
      </trkpt>
      <trkpt lat="45.06121" lon="5.34822">
        <ele>218.6</ele>
      </trkpt>
      <trkpt lat="45.06108" lon="5.34806">
        <ele>217.7</ele>
      </trkpt>
      <trkpt lat="45.06098" lon="5.34796">
        <ele>219.9</ele>
      </trkpt>
      <trkpt lat="45.06091" lon="5.34787">
        <ele>219.6</ele>
      </trkpt>
      <trkpt lat="45.06085" lon="5.34778">
        <ele>217.7</ele>
      </trkpt>
      <trkpt lat="45.06082" lon="5.34772">
        <ele>217.1</ele>
      </trkpt>
      <trkpt lat="45.06079" lon="5.34768">
        <ele>217.4</ele>
      </trkpt>
      <trkpt lat="45.06076" lon="5.34763">
        <ele>217.1</ele>
      </trkpt>
      <trkpt lat="45.06072" lon="5.3476">
        <ele>217.7</ele>
      </trkpt>
      <trkpt lat="45.06069" lon="5.34756">
        <ele>217.3</ele>
      </trkpt>
      <trkpt lat="45.06065" lon="5.34753">
        <ele>217.4</ele>
      </trkpt>
      <trkpt lat="45.06063" lon="5.3475">
        <ele>216.6</ele>
      </trkpt>
      <trkpt lat="45.06061" lon="5.34745">
        <ele>216.4</ele>
      </trkpt>
      <trkpt lat="45.06058" lon="5.34741">
        <ele>216.3</ele>
      </trkpt>
      <trkpt lat="45.06054" lon="5.34737">
        <ele>217</ele>
      </trkpt>
      <trkpt lat="45.0605" lon="5.34733">
        <ele>219</ele>
      </trkpt>
      <trkpt lat="45.06046" lon="5.3473">
        <ele>221.1</ele>
      </trkpt>
      <trkpt lat="45.06043" lon="5.34726">
        <ele>221.9</ele>
      </trkpt>
      <trkpt lat="45.06041" lon="5.34715">
        <ele>220.5</ele>
      </trkpt>
      <trkpt lat="45.06039" lon="5.34707">
        <ele>219.9</ele>
      </trkpt>
      <trkpt lat="45.06038" lon="5.34698">
        <ele>218.4</ele>
      </trkpt>
      <trkpt lat="45.06037" lon="5.34689">
        <ele>217.2</ele>
      </trkpt>
      <trkpt lat="45.06035" lon="5.34682">
        <ele>216.7</ele>
      </trkpt>
      <trkpt lat="45.06034" lon="5.34678">
        <ele>216.2</ele>
      </trkpt>
      <trkpt lat="45.06038" lon="5.34676">
        <ele>214.9</ele>
      </trkpt>
      <trkpt lat="45.06045" lon="5.34673">
        <ele>213</ele>
        <extensions>
          <visugpx:TrkExtension xmlns:visugpx="https://www.visugpx.com/editgpx/">
            <visugpx:node>7</visugpx:node>
            </visugpx:TrkExtension>
        </extensions>
      </trkpt>
      <trkpt lat="45.06045" lon="5.34672">
        <ele>212.9</ele>
      </trkpt>
      <trkpt lat="45.06048" lon="5.34669">
        <ele>212.2</ele>
      </trkpt>
      <trkpt lat="45.06049" lon="5.34664">
        <ele>211.5</ele>
      </trkpt>
      <trkpt lat="45.06051" lon="5.34654">
        <ele>209.6</ele>
      </trkpt>
      <trkpt lat="45.06053" lon="5.34643">
        <ele>207.7</ele>
      </trkpt>
      <trkpt lat="45.06056" lon="5.34636">
        <ele>206.5</ele>
      </trkpt>
      <trkpt lat="45.06061" lon="5.3463">
        <ele>208.2</ele>
      </trkpt>
      <trkpt lat="45.0607" lon="5.34622">
        <ele>212</ele>
      </trkpt>
      <trkpt lat="45.06079" lon="5.34612">
        <ele>215.3</ele>
      </trkpt>
      <trkpt lat="45.06085" lon="5.34601">
        <ele>216</ele>
      </trkpt>
      <trkpt lat="45.0609" lon="5.34589">
        <ele>215.5</ele>
      </trkpt>
      <trkpt lat="45.06091" lon="5.34581">
        <ele>214</ele>
      </trkpt>
      <trkpt lat="45.06093" lon="5.34573">
        <ele>213.8</ele>
      </trkpt>
      <trkpt lat="45.06094" lon="5.34568">
        <ele>213.6</ele>
      </trkpt>
      <trkpt lat="45.06097" lon="5.34537">
        <ele>212.7</ele>
      </trkpt>
      <trkpt lat="45.06097" lon="5.3453">
        <ele>212.5</ele>
      </trkpt>
      <trkpt lat="45.06098" lon="5.34521">
        <ele>212.7</ele>
      </trkpt>
      <trkpt lat="45.06098" lon="5.34509">
        <ele>212.2</ele>
      </trkpt>
      <trkpt lat="45.061" lon="5.3449">
        <ele>211.9</ele>
      </trkpt>
      <trkpt lat="45.06101" lon="5.34483">
        <ele>211.7</ele>
      </trkpt>
      <trkpt lat="45.06102" lon="5.34474">
        <ele>211.2</ele>
      </trkpt>
      <trkpt lat="45.06105" lon="5.34465">
        <ele>211.4</ele>
      </trkpt>
      <trkpt lat="45.06107" lon="5.34454">
        <ele>210.8</ele>
      </trkpt>
      <trkpt lat="45.06112" lon="5.34435">
        <ele>210</ele>
      </trkpt>
      <trkpt lat="45.06118" lon="5.34416">
        <ele>209.7</ele>
      </trkpt>
      <trkpt lat="45.06121" lon="5.34409">
        <ele>210.3</ele>
      </trkpt>
      <trkpt lat="45.06132" lon="5.34384">
        <ele>212</ele>
      </trkpt>
      <trkpt lat="45.06142" lon="5.34365">
        <ele>213.6</ele>
      </trkpt>
      <trkpt lat="45.06151" lon="5.34348">
        <ele>213.3</ele>
      </trkpt>
      <trkpt lat="45.06161" lon="5.34335">
        <ele>213.6</ele>
      </trkpt>
      <trkpt lat="45.06165" lon="5.34328">
        <ele>213.2</ele>
      </trkpt>
      <trkpt lat="45.0617" lon="5.3432">
        <ele>212.3</ele>
      </trkpt>
      <trkpt lat="45.06175" lon="5.3431">
        <ele>210.9</ele>
      </trkpt>
      <trkpt lat="45.06185" lon="5.34284">
        <ele>208.9</ele>
      </trkpt>
      <trkpt lat="45.06195" lon="5.34253">
        <ele>207.4</ele>
      </trkpt>
      <trkpt lat="45.06196" lon="5.34251">
        <ele>207.4</ele>
      </trkpt>
      <trkpt lat="45.06206" lon="5.3422">
        <ele>206.7</ele>
      </trkpt>
      <trkpt lat="45.06211" lon="5.34201">
        <ele>205.9</ele>
      </trkpt>
      <trkpt lat="45.06215" lon="5.34179">
        <ele>204.4</ele>
      </trkpt>
      <trkpt lat="45.06216" lon="5.34173">
        <ele>203.9</ele>
      </trkpt>
      <trkpt lat="45.06221" lon="5.34148">
        <ele>202.6</ele>
      </trkpt>
      <trkpt lat="45.06228" lon="5.3411">
        <ele>201.6</ele>
      </trkpt>
      <trkpt lat="45.06234" lon="5.34084">
        <ele>201.4</ele>
      </trkpt>
      <trkpt lat="45.06241" lon="5.34063">
        <ele>201.7</ele>
      </trkpt>
      <trkpt lat="45.06244" lon="5.34053">
        <ele>201.9</ele>
      </trkpt>
      <trkpt lat="45.06256" lon="5.34021">
        <ele>202.4</ele>
      </trkpt>
      <trkpt lat="45.0627" lon="5.33981">
        <ele>202</ele>
      </trkpt>
      <trkpt lat="45.06288" lon="5.33932">
        <ele>202</ele>
      </trkpt>
      <trkpt lat="45.063" lon="5.33898">
        <ele>201.9</ele>
      </trkpt>
      <trkpt lat="45.06304" lon="5.33885">
        <ele>201.6</ele>
      </trkpt>
      <trkpt lat="45.06312" lon="5.33871">
        <ele>201.8</ele>
      </trkpt>
      <trkpt lat="45.06325" lon="5.33845">
        <ele>201.6</ele>
      </trkpt>
      <trkpt lat="45.06343" lon="5.33815">
        <ele>201.3</ele>
      </trkpt>
      <trkpt lat="45.06348" lon="5.33805">
        <ele>201</ele>
      </trkpt>
      <trkpt lat="45.0636" lon="5.33784">
        <ele>201.1</ele>
      </trkpt>
      <trkpt lat="45.06378" lon="5.33751">
        <ele>201.2</ele>
      </trkpt>
      <trkpt lat="45.06394" lon="5.33722">
        <ele>201.2</ele>
      </trkpt>
      <trkpt lat="45.06406" lon="5.337">
        <ele>201</ele>
        <extensions>
          <visugpx:TrkExtension xmlns:visugpx="https://www.visugpx.com/editgpx/">
            <visugpx:node>8</visugpx:node>
            </visugpx:TrkExtension>
        </extensions>
      </trkpt>
    </trkseg>
  </trk>
</gpx>